[[{"header":{"parameterUnit":"m.s-1","parameterCategory":1,"la1":31.0,"la2":29.5877,"lo1":-88.7671,"lo2":-86.6584,"dx":0.0162,"dy":0.0185,"nx":115,"ny":88,"refTime":"2022-11-25T06:00:00:Z","depth":0,"parameterNumber":2,"parameterNumberName":"U-component_of_WINDS"},"data":[0.0,0.0,0.0,0.0,0.0,0.0,0.0,0.0,0.0,0.0,0.0,0.0,0.0,0.0,0.0,0.0,0.0,0.0,0.0,0.0,0.0,0.0,0.0,0.0,0.0,0.0,0.0,0.0,0.0,0.0,0.0,0.0,0.0,0.0,0.0,0.0,0.0,0.0,0.0,0.0,0.0,0.0,0.0,0.0,0.0,0.0,0.0,0.0,0.0,0.0,0.0,0.0,0.0,0.0,0.0,0.0,0.0,0.0,0.0,0.0,0.0,0.0,0.0,0.0,0.0,0.0,0.0,0.0,0.0,0.0,0.0,0.0,0.0,0.0,0.0,0.0,0.0,0.0,0.0,0.0,0.0,0.0,0.0,0.0,0.0,0.0,0.0,0.0,0.0,0.0,0.0,0.0,0.0,0.0,0.0,0.0,0.0,0.0,0.0,0.0,0.0,0.0,0.0,0.0,0.0,0.0,0.0,0.0,0.0,0.0,0.0,0.0,0.0,0.0,0.0,0.0,0.0,0.0,0.0,0.0,0.0,0.0,0.0,0.0,0.0,0.0,0.0,0.0,0.0,0.0,0.0,0.0,0.0,0.0,0.0,0.0,0.0,0.0,0.0,0.0,0.0,0.0,0.0,0.0,0.0,0.0,0.0,0.0,0.0,0.0,0.0,0.0,0.0,0.0,0.0,0.0,0.0,0.0,0.0,0.0,0.0,0.0,0.0,0.0,0.0,0.0,0.0,0.0,0.0,0.0,0.0,0.0,0.0,0.0,0.0,0.0,0.0,0.0,0.0,0.0,0.0,0.0,0.0,0.0,0.0,0.0,0.0,0.0,0.0,0.0,0.0,0.0,0.0,0.0,0.0,0.0,0.0,0.0,0.0,0.0,0.0,0.0,0.0,0.0,0.0,0.0,0.0,0.0,0.0,0.0,0.0,0.0,0.0,0.0,0.0,0.0,0.0,0.0,0.0,0.0,0.0,0.0,0.0,0.0,0.0,0.0,0.0,0.0,0.0,0.0,0.0,0.0,0.0,0.0,0.0,0.0,0.0,0.0,0.0,0.0,0.0,0.0,0.0,0.0,0.0,0.0,0.0,0.0,0.0,0.0,0.0,0.0,0.0,0.0,0.0,0.0,0.0,0.0,0.0,0.0,0.0,0.0,0.0,0.0,0.0,0.0,0.0,0.0,0.0,0.0,0.0,0.0,0.0,0.0,0.0,0.0,0.0,0.0,0.0,0.0,0.0,0.0,0.0,0.0,0.0,0.0,0.0,0.0,0.0,0.0,0.0,0.0,0.0,0.0,0.0,0.0,0.0,0.0,0.0,0.0,0.0,0.0,0.0,0.0,0.0,0.0,0.0,0.0,0.0,0.0,0.0,0.0,0.0,0.0,0.0,0.0,0.0,0.0,0.0,0.0,0.0,0.0,0.0,0.0,0.0,0.0,0.0,0.0,0.0,0.0,0.0,0.0,0.0,0.0,0.0,0.0,0.0,0.0,0.0,0.0,0.0,0.0,0.0,0.0,0.0,0.0,0.0,0.0,0.0,0.0,0.0,0.0,0.0,0.0,0.0,0.0,0.0,0.0,0.0,0.0,0.0,0.0,0.0,0.0,0.0,0.0,0.0,0.0,0.0,0.0,0.0,0.0,0.0,0.0,0.0,0.0,0.0,0.0,0.0,0.0,0.0,0.0,0.0,0.0,0.0,0.0,0.0,0.0,0.0,0.0,0.0,0.0,0.0,0.0,0.0,0.0,0.0,0.0,0.0,0.0,0.0,0.0,0.0,0.0,0.0,0.0,0.0,0.0,0.0,0.0,0.0,0.0,0.0,0.0,0.0,0.0,0.0,0.0,0.0,0.0,0.0,0.0,0.0,0.0,0.0,0.0,0.0,0.0,0.0,0.0,0.0,0.0,0.0,0.0,0.0,0.0,0.0,0.0,0.0,0.0,0.0,0.0,0.0,0.0,0.0,0.0,0.0,0.0,0.0,0.0,0.0,0.0,0.0,0.0,0.0,0.0,0.0,0.0,0.0,0.0,0.0,0.0,0.0,0.0,0.0,0.0,0.0,0.0,0.0,0.0,0.0,0.0,0.0,0.0,0.0,0.0,0.0,0.0,0.0,0.0,0.0,0.0,0.0,0.0,0.0,0.0,0.0,0.0,0.0,0.0,0.0,0.0,0.0,0.0,0.0,0.0,0.0,0.0,0.0,0.0,0.0,0.0,0.0,0.0,0.0,0.0,0.0,0.0,0.0,0.0,0.0,0.0,0.0,0.0,0.0,0.0,0.0,0.0,0.0,0.0,0.0,0.0,0.0,0.0,0.0,0.0,0.0,0.0,0.0,0.0,0.0,0.0,0.0,0.0,0.0,0.0,0.0,0.0,0.0,0.0,0.0,0.0,0.0,0.0,0.0,0.0,0.0,0.0,0.0,0.0,0.0,0.0,0.0,0.0,0.0,0.0,0.0,0.0,0.0,0.0,0.0,0.0,0.0,0.0,0.0,0.0,0.0,0.0,0.0,0.0,0.0,0.0,0.0,0.0,0.0,0.0,0.0,0.0,0.0,0.0,0.0,0.0,0.0,0.0,0.0,0.0,0.0,0.0,0.0,0.0,0.0,0.0,0.0,0.0,0.0,0.0,0.0,0.0,0.0,0.0,0.0,0.0,0.0,0.0,0.0,0.0,0.0,0.0,0.0,0.0,0.0,0.0,0.0,0.0,0.0,0.0,0.0,0.0,0.0,0.0,0.0,0.0,0.0,0.0,0.0,0.0,0.0,0.0,0.0,0.0,0.0,0.0,0.0,0.0,0.0,0.0,0.0,0.0,0.0,0.0,0.0,0.0,0.0,0.0,0.0,0.0,0.0,0.0,0.0,0.0,0.0,0.0,0.0,0.0,0.0,0.0,0.0,0.0,0.0,0.0,0.0,0.0,0.0,0.0,0.0,0.0,0.0,0.0,0.0,0.0,0.0,0.0,0.0,0.0,0.0,0.0,0.0,0.0,0.0,0.0,0.0,0.0,0.0,0.0,0.0,0.0,0.0,0.0,0.0,0.0,0.0,0.0,0.0,0.0,0.0,0.0,0.0,0.0,0.0,0.0,0.0,0.0,0.0,0.0,0.0,0.0,0.0,0.0,0.0,0.0,0.0,0.0,0.0,0.0,0.0,0.0,0.0,0.0,0.0,0.0,0.0,0.0,0.0,0.0,0.0,0.0,0.0,0.0,0.0,0.0,0.0,0.0,0.0,0.0,0.0,0.0,0.0,0.0,0.0,0.0,0.0,0.0,0.0,0.0,0.0,0.0,0.0,0.0,0.0,0.0,0.0,0.0,0.0,0.0,0.0,0.0,0.0,0.0,0.0,0.0,0.0,0.0,0.0,0.0,0.0,0.0,0.0,0.0,0.0,0.0,0.0,0.0,0.0,0.0,0.0,0.0,0.0,0.0,0.0,0.0,0.0,0.0,0.0,0.0,0.0,0.0,0.0,0.0,0.0,0.0,0.0,0.0,0.0,0.0,0.0,0.0,0.0,0.0,0.0,0.0,0.0,0.0,0.0,0.0,0.0,0.0,0.0,0.0,0.0,0.0,0.0,0.0,0.0,0.0,0.0,0.0,0.0,0.0,0.0,0.0,0.0,0.0,0.0,0.0,0.0,0.0,0.0,0.0,0.0,0.0,0.0,0.0,0.0,0.0,0.0,0.0,0.0,0.0,0.0,0.0,0.0,0.0,0.0,0.0,0.0,0.0,0.0,0.0,0.0,0.0,0.0,0.0,0.0,0.0,0.0,0.0,0.0,0.0,0.0,0.0,0.0,0.0,0.0,0.0,0.0,0.0,0.0,0.0,0.0,0.0,0.0,0.0,0.0,0.0,0.0,0.0,0.0,0.0,0.0,0.0,0.0,0.0,0.0,0.0,0.0,0.0,0.0,0.0,0.0,0.0,0.0,0.0,0.0,0.0,0.0,0.0,0.0,0.0,0.0,0.0,0.0,0.0,0.0,0.0,0.0,0.0,0.0,0.0,0.0,0.0,0.0,0.0,0.0,0.0,0.0,0.0,0.0,0.0,0.0,0.0,0.0,0.0,0.0,0.0,0.0,0.0,0.0,0.0,0.0,0.0,0.0,0.0,0.0,0.0,0.0,0.0,0.0,0.0,0.0,0.0,0.0,0.0,0.0,0.0,0.0,0.0,0.0,0.0,0.0,0.0,0.0,0.0,0.0,0.0,0.0,0.0,0.0,0.0,0.0,0.0,0.0,0.0,-3.1823,0.0,0.0,0.0,-2.9777,0.0,0.0,0.0,0.0,0.0,0.0,0.0,0.0,0.0,0.0,0.0,0.0,0.0,0.0,0.0,0.0,0.0,0.0,0.0,0.0,0.0,0.0,0.0,0.0,0.0,0.0,0.0,0.0,0.0,0.0,0.0,0.0,0.0,0.0,0.0,0.0,0.0,0.0,0.0,0.0,0.0,0.0,0.0,0.0,0.0,0.0,0.0,0.0,0.0,0.0,0.0,0.0,0.0,0.0,0.0,0.0,0.0,0.0,0.0,0.0,0.0,0.0,0.0,0.0,0.0,0.0,0.0,0.0,0.0,0.0,0.0,0.0,0.0,0.0,0.0,0.0,0.0,0.0,0.0,0.0,0.0,0.0,0.0,0.0,0.0,0.0,0.0,0.0,0.0,0.0,0.0,0.0,0.0,0.0,0.0,0.0,0.0,0.0,0.0,0.0,0.0,0.0,0.0,0.0,0.0,0.0,0.0,0.0,0.0,0.0,-3.1857,-3.1214,-3.1188,-3.0843,-3.016,0.0,0.0,0.0,0.0,0.0,0.0,0.0,0.0,0.0,0.0,0.0,0.0,0.0,0.0,0.0,0.0,0.0,0.0,0.0,0.0,0.0,0.0,0.0,0.0,0.0,0.0,0.0,0.0,0.0,0.0,0.0,0.0,0.0,0.0,0.0,0.0,0.0,0.0,0.0,0.0,0.0,0.0,0.0,0.0,0.0,0.0,0.0,0.0,0.0,0.0,0.0,0.0,0.0,0.0,0.0,0.0,0.0,0.0,0.0,0.0,0.0,0.0,0.0,0.0,0.0,0.0,0.0,0.0,0.0,0.0,0.0,0.0,0.0,0.0,0.0,0.0,0.0,0.0,0.0,0.0,0.0,0.0,0.0,0.0,0.0,0.0,0.0,0.0,0.0,0.0,0.0,0.0,0.0,0.0,0.0,0.0,0.0,0.0,0.0,0.0,0.0,0.0,0.0,0.0,0.0,0.0,0.0,0.0,0.0,0.0,0.0,0.0,-3.1233,-3.0802,-2.9972,0.0,0.0,0.0,0.0,0.0,0.0,0.0,0.0,0.0,0.0,0.0,0.0,0.0,0.0,0.0,0.0,0.0,0.0,0.0,0.0,0.0,0.0,0.0,0.0,0.0,0.0,0.0,0.0,0.0,0.0,0.0,0.0,0.0,0.0,0.0,0.0,0.0,0.0,0.0,0.0,0.0,0.0,0.0,0.0,0.0,0.0,0.0,0.0,0.0,0.0,0.0,0.0,0.0,0.0,0.0,0.0,0.0,0.0,0.0,0.0,0.0,0.0,0.0,0.0,0.0,0.0,0.0,0.0,0.0,0.0,0.0,0.0,0.0,0.0,0.0,0.0,0.0,0.0,0.0,0.0,0.0,0.0,0.0,0.0,0.0,0.0,0.0,0.0,0.0,0.0,0.0,0.0,0.0,0.0,0.0,0.0,0.0,0.0,0.0,0.0,0.0,0.0,0.0,0.0,0.0,0.0,0.0,0.0,0.0,0.0,-3.2514,-3.1501,-3.1216,0.0,-2.8706,0.0,0.0,0.0,0.0,0.0,0.0,0.0,0.0,0.0,0.0,0.0,0.0,0.0,0.0,0.0,0.0,0.0,0.0,0.0,0.0,0.0,0.0,0.0,0.0,0.0,0.0,0.0,0.0,0.0,0.0,0.0,0.0,0.0,0.0,0.0,0.0,0.0,0.0,0.0,0.0,0.0,0.0,0.0,0.0,0.0,0.0,0.0,0.0,0.0,0.0,0.0,0.0,0.0,0.0,0.0,0.0,0.0,0.0,0.0,0.0,0.0,0.0,0.0,0.0,0.0,0.0,0.0,0.0,0.0,0.0,0.0,0.0,0.0,0.0,0.0,0.0,0.0,0.0,0.0,0.0,0.0,0.0,0.0,0.0,0.0,0.0,0.0,0.0,0.0,0.0,0.0,0.0,0.0,0.0,0.0,0.0,0.0,0.0,0.0,0.0,0.0,0.0,0.0,0.0,0.0,0.0,0.0,0.0,0.0,0.0,-3.2302,-3.1522,-3.077,-2.9599,0.0,0.0,0.0,0.0,0.0,0.0,0.0,0.0,0.0,0.0,0.0,0.0,0.0,0.0,0.0,0.0,0.0,0.0,0.0,0.0,0.0,0.0,0.0,0.0,0.0,0.0,0.0,0.0,0.0,0.0,0.0,0.0,0.0,0.0,0.0,0.0,0.0,0.0,0.0,0.0,0.0,0.0,0.0,0.0,0.0,0.0,0.0,0.0,0.0,0.0,0.0,0.0,0.0,0.0,0.0,0.0,0.0,0.0,0.0,0.0,0.0,0.0,0.0,0.0,0.0,0.0,0.0,0.0,0.0,0.0,0.0,0.0,0.0,0.0,0.0,0.0,0.0,0.0,0.0,0.0,0.0,0.0,0.0,0.0,0.0,0.0,0.0,0.0,0.0,0.0,0.0,0.0,0.0,0.0,0.0,0.0,0.0,0.0,0.0,0.0,0.0,0.0,0.0,0.0,0.0,0.0,0.0,0.0,0.0,0.0,-3.2094,-3.1728,-3.1004,-3.025,-2.905,-2.7371,0.0,0.0,0.0,0.0,0.0,0.0,0.0,0.0,0.0,0.0,0.0,0.0,0.0,0.0,0.0,0.0,0.0,0.0,0.0,0.0,0.0,0.0,0.0,0.0,0.0,0.0,0.0,0.0,0.0,0.0,0.0,0.0,0.0,0.0,0.0,0.0,0.0,0.0,0.0,0.0,0.0,0.0,0.0,0.0,0.0,0.0,0.0,0.0,0.0,0.0,0.0,0.0,0.0,0.0,0.0,0.0,0.0,0.0,0.0,0.0,0.0,0.0,0.0,0.0,0.0,0.0,0.0,0.0,0.0,0.0,0.0,0.0,0.0,0.0,0.0,0.0,0.0,0.0,0.0,0.0,0.0,0.0,0.0,0.0,0.0,0.0,0.0,0.0,0.0,0.0,0.0,0.0,0.0,0.0,0.0,0.0,0.0,0.0,0.0,0.0,0.0,0.0,0.0,0.0,0.0,0.0,0.0,0.0,-3.1362,-3.1362,-3.0818,-2.9844,-2.9748,-2.8848,0.0,0.0,0.0,0.0,0.0,0.0,0.0,0.0,0.0,0.0,0.0,0.0,0.0,0.0,0.0,0.0,0.0,0.0,0.0,0.0,0.0,0.0,0.0,0.0,0.0,0.0,0.0,0.0,0.0,0.0,0.0,0.0,0.0,0.0,0.0,0.0,0.0,0.0,0.0,0.0,0.0,0.0,0.0,0.0,0.0,0.0,0.0,0.0,0.0,0.0,0.0,0.0,0.0,0.0,0.0,0.0,0.0,0.0,0.0,0.0,0.0,0.0,0.0,0.0,0.0,0.0,0.0,0.0,0.0,0.0,0.0,0.0,0.0,0.0,0.0,0.0,0.0,0.0,0.0,0.0,0.0,0.0,0.0,0.0,0.0,0.0,0.0,0.0,0.0,0.0,0.0,0.0,0.0,0.0,0.0,0.0,0.0,0.0,0.0,0.0,0.0,0.0,0.0,0.0,0.0,0.0,0.0,0.0,0.0,-3.0578,-3.0578,-3.0252,-2.9535,-2.9359,-2.8602,0.0,0.0,0.0,0.0,0.0,0.0,0.0,0.0,0.0,0.0,0.0,0.0,0.0,0.0,0.0,0.0,0.0,0.0,0.0,0.0,0.0,0.0,0.0,0.0,0.0,0.0,0.0,0.0,0.0,0.0,0.0,0.0,0.0,0.0,0.0,0.0,0.0,0.0,0.0,0.0,0.0,0.0,0.0,0.0,0.0,0.0,0.0,0.0,0.0,0.0,0.0,0.0,0.0,0.0,0.0,0.0,0.0,0.0,0.0,0.0,0.0,0.0,0.0,0.0,0.0,0.0,0.0,0.0,0.0,0.0,0.0,0.0,0.0,0.0,0.0,0.0,0.0,0.0,0.0,0.0,0.0,0.0,0.0,0.0,0.0,0.0,0.0,0.0,0.0,0.0,0.0,0.0,0.0,0.0,0.0,0.0,0.0,0.0,0.0,0.0,0.0,0.0,0.0,0.0,0.0,0.0,0.0,0.0,0.0,-2.9988,-2.9988,-2.9693,-2.9215,-2.8845,-2.8199,0.0,0.0,0.0,0.0,0.0,0.0,0.0,0.0,0.0,0.0,0.0,0.0,0.0,0.0,0.0,0.0,0.0,0.0,0.0,0.0,0.0,0.0,0.0,0.0,0.0,0.0,0.0,0.0,0.0,0.0,0.0,0.0,0.0,0.0,0.0,0.0,0.0,0.0,0.0,0.0,0.0,0.0,0.0,0.0,0.0,0.0,0.0,0.0,0.0,0.0,0.0,0.0,0.0,0.0,0.0,0.0,0.0,0.0,0.0,0.0,0.0,0.0,0.0,0.0,0.0,0.0,0.0,0.0,0.0,0.0,0.0,0.0,0.0,0.0,0.0,0.0,0.0,0.0,0.0,0.0,0.0,0.0,0.0,0.0,0.0,0.0,0.0,0.0,0.0,0.0,0.0,0.0,0.0,0.0,0.0,0.0,0.0,0.0,0.0,0.0,0.0,0.0,0.0,0.0,0.0,0.0,0.0,0.0,-2.9485,-2.9485,-2.9485,-2.9216,-2.8679,-2.8231,-2.7558,0.0,0.0,0.0,0.0,0.0,0.0,0.0,0.0,0.0,0.0,0.0,0.0,0.0,0.0,0.0,0.0,0.0,0.0,0.0,0.0,0.0,0.0,0.0,0.0,0.0,0.0,0.0,0.0,0.0,0.0,0.0,0.0,0.0,0.0,0.0,0.0,0.0,0.0,0.0,0.0,0.0,0.0,0.0,0.0,0.0,0.0,0.0,0.0,0.0,0.0,0.0,0.0,0.0,0.0,0.0,0.0,0.0,0.0,0.0,0.0,0.0,0.0,0.0,0.0,0.0,0.0,0.0,0.0,0.0,0.0,0.0,0.0,0.0,0.0,0.0,0.0,0.0,0.0,0.0,0.0,0.0,0.0,0.0,0.0,0.0,0.0,0.0,0.0,0.0,0.0,0.0,0.0,0.0,0.0,0.0,0.0,0.0,0.0,0.0,0.0,0.0,0.0,0.0,0.0,0.0,0.0,0.0,0.0,0.0,-2.8466,-2.8445,-2.8402,-2.8228,-2.7786,-2.7349,0.0,0.0,0.0,0.0,0.0,0.0,0.0,0.0,0.0,0.0,0.0,0.0,0.0,0.0,0.0,0.0,0.0,0.0,0.0,0.0,0.0,0.0,0.0,0.0,0.0,0.0,0.0,0.0,0.0,0.0,0.0,0.0,0.0,0.0,0.0,0.0,0.0,0.0,0.0,0.0,0.0,0.0,0.0,0.0,0.0,0.0,0.0,0.0,0.0,0.0,0.0,0.0,0.0,0.0,0.0,0.0,0.0,0.0,0.0,0.0,0.0,0.0,0.0,0.0,0.0,0.0,0.0,0.0,0.0,0.0,0.0,0.0,0.0,0.0,0.0,0.0,0.0,0.0,0.0,0.0,0.0,0.0,0.0,0.0,0.0,0.0,0.0,0.0,0.0,0.0,0.0,0.0,0.0,0.0,0.0,0.0,0.0,0.0,0.0,0.0,0.0,0.0,0.0,0.0,0.0,0.0,0.0,0.0,0.0,-2.7594,-2.7762,-2.7857,-2.7857,-2.739,-2.7144,-2.7172,0.0,0.0,0.0,0.0,0.0,0.0,0.0,0.0,0.0,0.0,0.0,0.0,0.0,0.0,0.0,0.0,0.0,0.0,0.0,0.0,0.0,0.0,0.0,0.0,0.0,0.0,0.0,0.0,0.0,0.0,0.0,0.0,0.0,0.0,0.0,0.0,0.0,0.0,0.0,0.0,0.0,0.0,0.0,0.0,0.0,0.0,0.0,0.0,0.0,0.0,0.0,0.0,0.0,0.0,0.0,0.0,0.0,0.0,0.0,0.0,0.0,0.0,0.0,0.0,0.0,0.0,0.0,0.0,0.0,0.0,0.0,0.0,0.0,0.0,0.0,0.0,0.0,0.0,0.0,0.0,0.0,0.0,0.0,0.0,0.0,0.0,0.0,0.0,0.0,0.0,0.0,0.0,0.0,0.0,0.0,0.0,0.0,0.0,0.0,0.0,0.0,0.0,0.0,0.0,0.0,0.0,0.0,0.0,-2.6962,-2.7372,-2.7568,-2.7526,-2.7133,-2.6922,0.0,0.0,0.0,0.0,0.0,0.0,0.0,0.0,0.0,0.0,0.0,0.0,0.0,0.0,0.0,0.0,0.0,0.0,0.0,0.0,0.0,0.0,0.0,0.0,0.0,0.0,0.0,0.0,0.0,0.0,0.0,0.0,0.0,0.0,0.0,0.0,0.0,0.0,0.0,0.0,0.0,0.0,0.0,0.0,0.0,0.0,0.0,0.0,0.0,0.0,0.0,0.0,0.0,0.0,0.0,0.0,0.0,0.0,0.0,0.0,0.0,0.0,0.0,0.0,0.0,0.0,0.0,0.0,0.0,0.0,0.0,0.0,0.0,0.0,0.0,0.0,0.0,0.0,0.0,0.0,0.0,0.0,0.0,0.0,0.0,0.0,0.0,0.0,0.0,0.0,0.0,0.0,0.0,0.0,0.0,0.0,0.0,0.0,0.0,0.0,0.0,0.0,0.0,0.0,0.0,0.0,0.0,0.0,0.0,-2.7541,-2.714,-2.6915,-2.6784,-2.6666,-2.6727,0.0,0.0,0.0,0.0,0.0,0.0,0.0,0.0,0.0,0.0,0.0,0.0,0.0,0.0,0.0,0.0,0.0,0.0,0.0,0.0,0.0,0.0,0.0,0.0,0.0,0.0,0.0,0.0,0.0,0.0,0.0,0.0,0.0,0.0,0.0,0.0,0.0,0.0,0.0,0.0,0.0,0.0,0.0,0.0,0.0,0.0,0.0,0.0,0.0,0.0,0.0,0.0,0.0,0.0,0.0,0.0,0.0,0.0,0.0,0.0,0.0,0.0,0.0,0.0,0.0,0.0,0.0,0.0,0.0,0.0,0.0,0.0,0.0,0.0,0.0,0.0,0.0,0.0,0.0,0.0,0.0,0.0,0.0,0.0,0.0,0.0,0.0,0.0,0.0,0.0,0.0,0.0,0.0,0.0,0.0,0.0,0.0,0.0,0.0,0.0,0.0,0.0,0.0,0.0,0.0,0.0,0.0,0.0,-2.7692,-2.7652,-2.7111,-2.6754,-2.6567,-2.6597,-2.6668,0.0,0.0,0.0,0.0,0.0,0.0,0.0,0.0,0.0,0.0,0.0,0.0,0.0,0.0,0.0,0.0,0.0,0.0,0.0,0.0,0.0,0.0,0.0,0.0,0.0,0.0,0.0,0.0,0.0,0.0,0.0,0.0,0.0,0.0,0.0,0.0,0.0,0.0,0.0,0.0,0.0,0.0,0.0,0.0,0.0,0.0,0.0,0.0,0.0,0.0,0.0,0.0,0.0,0.0,0.0,0.0,0.0,0.0,0.0,0.0,0.0,0.0,0.0,0.0,0.0,0.0,0.0,0.0,0.0,0.0,0.0,0.0,0.0,0.0,0.0,0.0,0.0,0.0,0.0,0.0,0.0,0.0,0.0,0.0,0.0,0.0,0.0,0.0,0.0,0.0,0.0,0.0,0.0,0.0,0.0,0.0,0.0,0.0,0.0,0.0,0.0,0.0,0.0,0.0,0.0,0.0,0.0,0.0,-2.7722,-2.7546,-2.7251,-2.6994,-2.6769,-2.6831,-2.679,0.0,0.0,0.0,0.0,0.0,0.0,0.0,0.0,0.0,0.0,0.0,0.0,0.0,0.0,0.0,0.0,0.0,0.0,0.0,0.0,0.0,0.0,0.0,0.0,0.0,0.0,0.0,0.0,0.0,0.0,0.0,0.0,0.0,0.0,0.0,0.0,0.0,0.0,0.0,0.0,0.0,0.0,0.0,0.0,0.0,0.0,0.0,0.0,0.0,0.0,0.0,0.0,0.0,0.0,0.0,0.0,0.0,0.0,0.0,0.0,0.0,0.0,0.0,0.0,0.0,0.0,0.0,0.0,0.0,0.0,0.0,0.0,0.0,0.0,0.0,0.0,0.0,0.0,0.0,0.0,0.0,0.0,0.0,0.0,0.0,0.0,0.0,0.0,0.0,0.0,0.0,0.0,0.0,0.0,0.0,0.0,0.0,0.0,0.0,0.0,0.0,0.0,0.0,0.0,0.0,0.0,0.0,0.0,-2.8199,-2.8584,-2.8184,-2.7921,-2.7637,-2.742,-2.7382,0.0,0.0,0.0,0.0,0.0,0.0,0.0,0.0,0.0,0.0,0.0,0.0,0.0,0.0,0.0,0.0,0.0,0.0,0.0,0.0,0.0,0.0,0.0,0.0,0.0,0.0,0.0,0.0,0.0,0.0,0.0,0.0,0.0,0.0,0.0,0.0,0.0,0.0,0.0,0.0,0.0,0.0,0.0,0.0,0.0,0.0,0.0,0.0,-2.8737,0.0,0.0,0.0,0.0,0.0,0.0,0.0,0.0,0.0,0.0,0.0,0.0,0.0,0.0,0.0,0.0,0.0,0.0,0.0,0.0,0.0,0.0,0.0,0.0,0.0,0.0,0.0,0.0,0.0,0.0,0.0,0.0,0.0,0.0,0.0,0.0,0.0,0.0,0.0,0.0,0.0,0.0,0.0,0.0,0.0,0.0,0.0,0.0,0.0,0.0,0.0,0.0,0.0,0.0,0.0,0.0,0.0,0.0,0.0,-2.8691,-2.8687,-2.8852,-2.8723,-2.8265,-2.7921,-2.7617,0.0,0.0,0.0,0.0,0.0,0.0,0.0,0.0,0.0,0.0,0.0,0.0,0.0,0.0,0.0,0.0,0.0,0.0,0.0,0.0,0.0,0.0,0.0,0.0,0.0,0.0,0.0,0.0,0.0,0.0,0.0,0.0,0.0,0.0,0.0,0.0,0.0,0.0,0.0,0.0,0.0,0.0,0.0,0.0,0.0,0.0,0.0,0.0,0.0,0.0,0.0,0.0,0.0,0.0,0.0,0.0,0.0,0.0,0.0,0.0,0.0,0.0,0.0,0.0,0.0,0.0,0.0,0.0,0.0,0.0,0.0,0.0,0.0,0.0,0.0,0.0,0.0,0.0,0.0,0.0,0.0,0.0,0.0,0.0,0.0,0.0,0.0,0.0,0.0,0.0,0.0,0.0,0.0,0.0,0.0,0.0,0.0,0.0,0.0,0.0,0.0,0.0,0.0,0.0,0.0,0.0,0.0,-2.9075,-2.9078,-2.8663,-2.9325,-2.9387,-2.8804,-2.8482,-2.7959,-2.726,0.0,0.0,0.0,0.0,0.0,0.0,0.0,0.0,0.0,0.0,0.0,0.0,0.0,0.0,0.0,0.0,0.0,0.0,0.0,0.0,0.0,0.0,0.0,0.0,0.0,0.0,0.0,0.0,0.0,0.0,0.0,0.0,0.0,0.0,0.0,0.0,0.0,0.0,-3.0472,-3.0037,0.0,0.0,0.0,0.0,0.0,0.0,0.0,0.0,-2.6408,0.0,0.0,0.0,0.0,0.0,0.0,0.0,0.0,0.0,0.0,0.0,0.0,0.0,0.0,0.0,0.0,0.0,0.0,0.0,0.0,0.0,0.0,0.0,0.0,0.0,0.0,0.0,0.0,0.0,0.0,0.0,0.0,0.0,0.0,0.0,0.0,0.0,0.0,0.0,0.0,0.0,0.0,0.0,0.0,0.0,0.0,0.0,0.0,0.0,0.0,0.0,0.0,0.0,0.0,0.0,0.0,-2.8555,-2.8578,-2.8853,-2.9165,-2.9774,-2.9793,-2.9241,-2.9184,-2.8897,-2.8292,0.0,0.0,0.0,0.0,0.0,0.0,0.0,0.0,0.0,0.0,0.0,0.0,0.0,0.0,0.0,0.0,0.0,0.0,0.0,0.0,0.0,0.0,0.0,0.0,0.0,0.0,0.0,0.0,0.0,0.0,0.0,0.0,0.0,0.0,0.0,0.0,0.0,0.0,0.0,-2.8765,-2.8635,0.0,0.0,0.0,0.0,0.0,0.0,0.0,0.0,-2.5647,0.0,0.0,0.0,0.0,0.0,0.0,0.0,0.0,0.0,0.0,0.0,0.0,0.0,0.0,0.0,0.0,0.0,0.0,0.0,0.0,0.0,0.0,0.0,0.0,0.0,0.0,0.0,0.0,0.0,0.0,0.0,0.0,0.0,0.0,0.0,0.0,0.0,0.0,0.0,0.0,0.0,0.0,0.0,0.0,0.0,0.0,0.0,0.0,0.0,0.0,0.0,0.0,0.0,0.0,0.0,-2.7992,-2.8426,-2.888,-2.9425,-3.0389,-3.0642,-3.0,-2.9791,-2.9489,0.0,0.0,0.0,0.0,0.0,0.0,0.0,0.0,0.0,0.0,0.0,0.0,0.0,0.0,0.0,0.0,0.0,0.0,0.0,0.0,0.0,0.0,0.0,0.0,0.0,0.0,0.0,0.0,0.0,0.0,0.0,0.0,0.0,0.0,0.0,0.0,0.0,0.0,0.0,0.0,-2.767,-2.7466,-2.6499,0.0,0.0,0.0,0.0,0.0,0.0,-2.4843,-2.5138,0.0,0.0,0.0,0.0,0.0,0.0,0.0,0.0,0.0,0.0,0.0,0.0,0.0,0.0,0.0,0.0,0.0,0.0,0.0,0.0,0.0,0.0,0.0,0.0,0.0,0.0,0.0,0.0,0.0,0.0,0.0,0.0,0.0,0.0,0.0,0.0,0.0,0.0,0.0,0.0,0.0,0.0,0.0,0.0,0.0,0.0,0.0,0.0,0.0,0.0,0.0,0.0,0.0,0.0,0.0,-2.7623,-2.8401,-2.9093,-2.9639,-3.0895,-3.1287,-3.0626,-3.0403,-3.0159,0.0,0.0,0.0,0.0,0.0,0.0,0.0,0.0,0.0,0.0,0.0,0.0,0.0,0.0,0.0,0.0,0.0,0.0,0.0,0.0,0.0,0.0,0.0,0.0,0.0,0.0,0.0,0.0,0.0,0.0,0.0,0.0,0.0,0.0,0.0,0.0,0.0,0.0,0.0,0.0,0.0,-2.6718,-2.5522,-2.6245,0.0,0.0,0.0,0.0,-2.5038,-2.4667,0.0,0.0,0.0,0.0,0.0,0.0,0.0,0.0,0.0,0.0,0.0,0.0,0.0,0.0,0.0,0.0,0.0,0.0,0.0,0.0,0.0,0.0,0.0,0.0,0.0,0.0,0.0,0.0,0.0,0.0,0.0,0.0,0.0,0.0,0.0,0.0,0.0,0.0,0.0,0.0,0.0,0.0,0.0,0.0,0.0,0.0,0.0,0.0,0.0,0.0,0.0,0.0,0.0,0.0,0.0,0.0,-2.7857,-2.8564,-2.9342,-3.0032,-3.1047,-3.1287,-3.0626,-3.1048,-3.0937,0.0,0.0,0.0,0.0,0.0,0.0,0.0,0.0,0.0,0.0,0.0,0.0,0.0,0.0,0.0,0.0,0.0,0.0,0.0,0.0,0.0,0.0,0.0,0.0,0.0,0.0,0.0,0.0,0.0,0.0,0.0,0.0,0.0,0.0,0.0,0.0,0.0,0.0,0.0,0.0,0.0,-2.716,-2.629,-2.6493,-2.6823,0.0,0.0,-2.5478,-2.4595,-2.4454,0.0,0.0,0.0,0.0,0.0,0.0,0.0,0.0,0.0,0.0,0.0,0.0,0.0,0.0,0.0,0.0,0.0,0.0,0.0,0.0,0.0,0.0,0.0,0.0,0.0,0.0,0.0,0.0,0.0,0.0,0.0,0.0,0.0,0.0,0.0,0.0,0.0,0.0,0.0,0.0,0.0,0.0,0.0,0.0,0.0,0.0,0.0,0.0,0.0,0.0,0.0,0.0,0.0,0.0,0.0,-2.7262,-2.7694,-2.8264,-2.9069,-3.016,-3.1227,-3.1496,-3.102,-3.1405,-3.1283,0.0,0.0,0.0,0.0,0.0,0.0,0.0,0.0,0.0,0.0,0.0,0.0,0.0,0.0,0.0,0.0,0.0,0.0,0.0,0.0,0.0,0.0,0.0,0.0,0.0,0.0,0.0,0.0,0.0,0.0,0.0,0.0,0.0,0.0,0.0,0.0,0.0,0.0,0.0,0.0,0.0,0.0,-2.6469,-2.6316,0.0,0.0,0.0,-2.5789,-2.556,0.0,0.0,0.0,0.0,0.0,0.0,0.0,0.0,0.0,0.0,0.0,0.0,0.0,0.0,0.0,0.0,0.0,0.0,0.0,0.0,0.0,0.0,0.0,0.0,0.0,0.0,0.0,0.0,0.0,0.0,0.0,0.0,0.0,0.0,0.0,0.0,0.0,0.0,0.0,0.0,0.0,0.0,0.0,0.0,0.0,0.0,0.0,0.0,0.0,0.0,0.0,0.0,0.0,0.0,0.0,0.0,0.0,-2.7496,-2.8087,-2.902,-3.0392,-3.1497,-3.1902,-3.1463,-3.1488,0.0,0.0,0.0,0.0,0.0,0.0,0.0,0.0,0.0,0.0,0.0,0.0,0.0,0.0,0.0,0.0,0.0,0.0,0.0,0.0,0.0,0.0,0.0,0.0,0.0,0.0,0.0,-2.5503,0.0,0.0,0.0,0.0,0.0,0.0,0.0,0.0,0.0,0.0,0.0,0.0,0.0,0.0,-2.7383,-2.6924,-2.653,-2.6388,0.0,0.0,-2.6473,-2.6471,-2.5974,-2.5999,0.0,0.0,0.0,0.0,0.0,0.0,0.0,0.0,0.0,0.0,0.0,0.0,0.0,0.0,0.0,0.0,0.0,0.0,0.0,0.0,0.0,0.0,0.0,0.0,0.0,0.0,0.0,0.0,0.0,0.0,0.0,0.0,0.0,0.0,0.0,0.0,0.0,0.0,0.0,0.0,0.0,0.0,0.0,0.0,0.0,0.0,0.0,0.0,0.0,0.0,0.0,0.0,0.0,0.0,0.0,-2.7552,-2.8352,-2.9433,-3.0843,-3.1979,-3.2345,-3.1891,-3.1526,-3.1052,0.0,0.0,0.0,0.0,0.0,0.0,0.0,0.0,0.0,0.0,0.0,0.0,0.0,0.0,0.0,0.0,0.0,0.0,0.0,0.0,0.0,0.0,0.0,0.0,0.0,0.0,0.0,0.0,0.0,0.0,0.0,0.0,0.0,0.0,0.0,0.0,0.0,0.0,0.0,0.0,0.0,-2.8295,-2.8018,-2.7685,-2.7621,0.0,0.0,-2.7724,-2.6748,-2.6277,-2.6422,-2.7432,0.0,0.0,0.0,0.0,0.0,0.0,0.0,0.0,0.0,0.0,0.0,0.0,0.0,0.0,0.0,0.0,0.0,0.0,0.0,0.0,0.0,0.0,0.0,0.0,0.0,0.0,0.0,0.0,0.0,0.0,0.0,0.0,0.0,0.0,0.0,0.0,0.0,0.0,0.0,0.0,0.0,0.0,0.0,0.0,0.0,0.0,0.0,0.0,0.0,0.0,0.0,0.0,0.0,-2.7027,-2.7946,-2.8349,-2.9284,-3.0912,-3.1781,-3.2241,-3.2345,-3.1635,-3.1217,0.0,0.0,0.0,0.0,0.0,0.0,0.0,0.0,0.0,0.0,0.0,0.0,0.0,0.0,0.0,0.0,0.0,0.0,0.0,0.0,0.0,0.0,0.0,0.0,0.0,0.0,0.0,0.0,-2.218,-2.2265,-2.3169,0.0,0.0,0.0,0.0,0.0,0.0,0.0,0.0,0.0,0.0,-2.8474,-2.8133,-2.7838,0.0,0.0,-2.787,-2.7756,-2.737,-2.6968,-2.7123,-2.8133,-2.865,0.0,0.0,0.0,0.0,0.0,0.0,0.0,0.0,0.0,0.0,0.0,0.0,0.0,0.0,0.0,0.0,0.0,0.0,0.0,0.0,0.0,0.0,0.0,0.0,0.0,0.0,0.0,0.0,0.0,0.0,0.0,0.0,0.0,0.0,0.0,0.0,0.0,0.0,0.0,0.0,0.0,0.0,0.0,0.0,0.0,0.0,0.0,0.0,0.0,0.0,0.0,0.0,-2.7058,-2.787,-2.8252,-2.9253,-3.0839,-3.1602,-3.2137,-3.2416,-3.1541,-3.1009,0.0,0.0,0.0,0.0,0.0,0.0,0.0,0.0,0.0,0.0,0.0,0.0,0.0,0.0,0.0,0.0,0.0,0.0,0.0,0.0,0.0,0.0,0.0,0.0,0.0,0.0,0.0,0.0,-2.1835,-2.231,-2.3886,0.0,0.0,0.0,0.0,0.0,0.0,0.0,0.0,0.0,0.0,-2.8558,-2.832,-2.8331,-2.8401,-2.8466,-2.8531,-2.8466,-2.8401,-2.8058,-2.8154,-2.8918,0.0,0.0,0.0,0.0,0.0,0.0,0.0,0.0,0.0,0.0,0.0,0.0,0.0,0.0,0.0,0.0,0.0,0.0,0.0,0.0,0.0,0.0,0.0,0.0,0.0,0.0,0.0,0.0,0.0,0.0,-2.9531,0.0,0.0,0.0,0.0,0.0,0.0,0.0,0.0,0.0,0.0,0.0,0.0,0.0,0.0,0.0,0.0,0.0,0.0,0.0,0.0,0.0,0.0,-2.681,-2.727,-2.8296,-2.9412,-3.0514,-3.1566,-3.2105,-3.2098,-3.1,-3.0421,-3.0278,0.0,0.0,0.0,0.0,0.0,0.0,0.0,0.0,0.0,0.0,0.0,0.0,0.0,0.0,0.0,0.0,0.0,0.0,0.0,0.0,0.0,0.0,0.0,0.0,0.0,0.0,-2.314,-2.2841,-2.32,0.0,0.0,0.0,0.0,0.0,0.0,0.0,0.0,0.0,0.0,-2.8673,-2.8708,-2.879,-2.9396,-2.9936,-3.0225,-3.0293,-3.0242,-2.9833,-2.9547,-2.9514,0.0,0.0,0.0,0.0,0.0,0.0,0.0,0.0,0.0,0.0,0.0,0.0,0.0,0.0,0.0,0.0,0.0,0.0,0.0,0.0,0.0,0.0,0.0,0.0,0.0,0.0,0.0,-2.9108,-2.8994,0.0,0.0,0.0,0.0,0.0,0.0,0.0,0.0,0.0,0.0,0.0,-2.686,-2.6931,0.0,0.0,0.0,0.0,0.0,0.0,0.0,0.0,0.0,0.0,0.0,0.0,-2.7041,-2.7866,-2.856,-2.9496,-3.0806,-3.1635,-3.2193,-3.2506,-3.1667,-3.0696,-2.9661,0.0,0.0,0.0,0.0,0.0,0.0,0.0,0.0,0.0,0.0,0.0,0.0,0.0,0.0,0.0,0.0,0.0,0.0,0.0,0.0,0.0,0.0,0.0,0.0,0.0,-2.3221,0.0,0.0,0.0,0.0,0.0,0.0,0.0,0.0,0.0,0.0,0.0,-2.7966,-2.7963,-2.8577,-2.9191,-2.9525,-2.9964,-3.0253,0.0,0.0,0.0,0.0,0.0,0.0,0.0,0.0,0.0,0.0,0.0,0.0,0.0,0.0,-3.3058,-3.2642,-3.1866,-3.1318,-3.1318,0.0,0.0,0.0,0.0,0.0,0.0,0.0,0.0,0.0,0.0,0.0,0.0,0.0,0.0,-2.826,0.0,-2.7871,0.0,0.0,0.0,0.0,0.0,0.0,0.0,0.0,-2.6711,-2.6818,-2.697,-2.71,-2.7101,0.0,-2.7035,-2.6726,0.0,0.0,0.0,0.0,0.0,0.0,0.0,0.0,-2.7164,-2.7833,-2.8539,-2.9473,-3.0763,-3.1559,-3.2119,-3.2473,-3.1774,-3.0617,-2.9022,-2.8789,-2.839,0.0,0.0,0.0,0.0,0.0,0.0,0.0,0.0,0.0,0.0,0.0,0.0,0.0,0.0,0.0,0.0,0.0,0.0,0.0,0.0,0.0,0.0,0.0,-2.3226,0.0,0.0,0.0,0.0,0.0,0.0,0.0,0.0,0.0,-2.8354,-2.7994,-2.7851,-2.8135,-2.8992,-2.9778,-3.0422,0.0,0.0,0.0,0.0,0.0,0.0,0.0,-3.1985,-3.213,-3.2364,-3.2581,-3.287,-3.3428,-3.3911,-3.441,0.0,0.0,-3.2611,-3.1788,-3.1207,-3.1207,-3.1074,-3.0941,-3.0941,-3.0941,-3.1078,0.0,0.0,0.0,0.0,0.0,0.0,0.0,0.0,-2.7889,-2.7884,0.0,-2.7542,0.0,0.0,0.0,0.0,0.0,-2.7044,0.0,0.0,-2.6392,-2.639,-2.674,-2.7073,-2.7232,-2.7216,-2.6964,-2.6789,-2.6726,-2.6661,0.0,0.0,0.0,0.0,0.0,0.0,-2.7212,-2.7264,-2.8325,-2.9367,-3.0496,-3.1237,-3.1782,-3.2107,-3.1422,-3.019,-2.8527,-2.8675,-2.8156,-2.679,-2.7497,0.0,0.0,0.0,0.0,0.0,0.0,0.0,0.0,0.0,0.0,0.0,0.0,0.0,0.0,0.0,0.0,0.0,0.0,0.0,0.0,-2.3983,0.0,0.0,0.0,0.0,0.0,0.0,0.0,0.0,0.0,0.0,-2.8196,-2.7914,-2.8138,-2.9174,0.0,0.0,0.0,0.0,-3.1843,-3.2594,-3.3066,-3.3323,-3.3289,-3.3614,-3.3702,-3.3492,0.0,0.0,-3.4493,-3.4852,-3.5303,-3.605,-3.5695,-3.4765,-3.3623,-3.2948,-3.2614,-3.2614,-3.2614,-3.2614,-3.2614,-3.2544,-3.2702,-2.8593,0.0,0.0,0.0,0.0,-2.7621,-2.7297,-2.6881,-2.698,-2.698,-2.6881,-2.6881,0.0,0.0,0.0,0.0,0.0,0.0,-2.7165,-2.7398,-2.728,-2.7455,-2.7772,-2.7884,-2.7931,-2.7931,-2.7836,-2.7661,-2.7423,-2.735,-2.7132,-2.6645,0.0,0.0,0.0,0.0,-2.7678,-2.7984,-2.8739,-2.9601,-3.0444,-3.1226,-3.1782,-3.2124,-3.1662,-3.0922,-2.9916,-2.9211,-2.8573,-2.819,-2.7609,0.0,0.0,0.0,0.0,0.0,0.0,0.0,0.0,0.0,0.0,0.0,0.0,0.0,0.0,0.0,0.0,0.0,0.0,0.0,-2.3953,-2.3716,-2.3834,0.0,0.0,0.0,0.0,0.0,0.0,0.0,0.0,0.0,-2.8943,-2.8734,-2.8782,0.0,0.0,-3.1799,-3.2716,-3.2993,-3.3221,-3.3492,-3.4077,0.0,-3.4204,-3.4692,-3.5252,-3.5704,-3.6044,-3.6298,-3.6534,-3.6613,-3.6927,-3.7457,-3.7379,-3.7216,-3.7071,-3.5135,-3.3739,-3.3613,-3.3596,-3.3613,-3.3596,-3.3596,-3.367,-2.8535,-2.7947,-2.8229,-2.8196,-2.7933,-2.7802,-2.749,-2.705,-2.7178,-2.7162,-2.7034,-2.7034,-2.7164,-2.7377,-2.7507,0.0,0.0,0.0,-2.7944,-2.8154,-2.8424,-2.8662,-2.8869,-2.898,-2.9059,-2.9043,-2.8932,-2.8687,-2.8551,-2.8281,-2.7888,-2.7451,0.0,0.0,-2.7547,-2.7772,-2.8088,-2.8424,-2.9001,-2.976,-3.06,-3.1569,-3.2081,-3.2057,-3.1916,-3.1401,-3.0525,-2.9868,-2.9228,-2.8626,-2.8104,-2.7974,0.0,0.0,0.0,0.0,0.0,0.0,0.0,0.0,0.0,0.0,0.0,-2.7414,-2.6773,0.0,0.0,0.0,-2.4531,-2.407,-2.361,-2.3994,0.0,0.0,0.0,0.0,0.0,0.0,0.0,-2.9384,-2.966,-3.0026,-3.0365,-3.0713,-3.0818,-3.0738,-3.1737,-3.296,-3.4086,0.0,-3.4667,-3.4968,-3.5686,-3.6105,-3.5957,-3.6395,-3.7046,-3.7677,-3.7971,-3.8294,-3.8616,-3.8616,-3.8777,-3.9178,-3.9339,-3.9419,-3.9738,-3.8116,-3.6523,-3.5787,-3.548,-3.5392,-3.5392,-3.5374,-3.5392,-2.8996,-2.8392,-2.9102,-2.8995,-2.8348,-2.8688,-2.845,-2.7852,-2.817,-2.8138,-2.7852,-2.7852,-2.7852,-2.7868,-2.817,0.0,-2.8878,-2.8921,-2.8869,-2.8916,-2.9568,-2.987,-2.987,-3.0172,-3.0315,-3.0299,-3.0013,-2.9854,-2.9822,-2.9202,-2.89,-2.8869,-2.8249,-2.8043,-2.8217,-2.8249,-2.8424,-2.8757,-2.9139,-2.9897,-3.1046,-3.2151,-3.2541,-3.2227,-3.2164,-3.1691,-3.0713,-3.0542,-2.9899,-2.8594,-2.8709,-2.8466,-2.7809,0.0,0.0,0.0,0.0,0.0,0.0,0.0,0.0,0.0,0.0,0.0,0.0,0.0,0.0,0.0,-2.3958,0.0,-2.3771,-2.4735,0.0,0.0,0.0,-2.841,-2.8334,-2.9553,-3.0436,-3.0557,0.0,0.0,-3.2318,-3.3398,-3.3881,-3.3245,-3.3348,-3.4043,-3.5539,-3.5756,-3.6095,-3.6861,-3.7623,-3.8167,-3.8212,-3.8669,-3.922,-3.955,-3.9568,-3.997,-4.0544,-4.0789,-4.0934,-4.1398,-4.1423,-4.1423,-4.1466,-4.129,-4.0787,-3.8873,-3.8139,-3.7785,-3.7822,-3.7822,-3.7918,-3.029,-2.9822,-2.9968,-2.9369,-2.8276,-2.8643,-2.8739,-2.8551,-2.89,-2.8996,-2.8916,-2.8932,-2.8932,-2.8932,-2.8996,-2.9258,-2.9529,-2.9608,-2.9711,-2.9949,-3.0124,-3.0203,-3.0203,-3.0283,-3.0315,-3.0315,-3.0235,-3.0203,-3.0187,-3.0029,-2.9949,-2.9949,-2.979,-2.9202,-2.8265,-2.8503,-2.8678,-2.8844,-2.9377,-3.0412,-3.1794,-3.2366,-3.276,-3.2986,-3.2685,-3.233,-3.1725,-3.1179,-3.0753,-3.0343,-2.9378,-2.8935,-2.9245,-2.9196,0.0,0.0,0.0,0.0,0.0,0.0,0.0,0.0,0.0,-2.6215,-2.6101,0.0,-2.4096,0.0,-2.5105,-2.5039,-2.4805,-2.5937,0.0,0.0,-2.8228,-2.9207,-2.9492,-3.0072,-3.0907,-3.2131,-3.2584,-3.3213,-3.4288,-3.539,-3.6322,-3.6745,-3.6315,-3.6219,-3.6852,-3.7241,-3.7692,-3.8464,-3.9158,-3.9713,-4.0345,-4.1351,-4.1966,-4.2153,-4.2396,-4.2688,-4.2942,-4.2961,-4.3046,-4.3449,-4.3534,-4.3606,-4.3529,-4.3322,-4.2876,-4.2014,-4.1071,-4.0306,-4.0306,-4.0287,-4.0287,-3.1234,-3.085,-3.085,-3.0324,-2.9472,-2.9449,-2.9457,-2.9472,-2.9663,-2.9743,-2.9758,-2.9743,-2.9758,-2.9743,-2.9743,-2.9854,-3.0044,-3.0203,-3.0378,-3.0569,-3.0728,-3.0791,-3.0791,-3.0791,-3.0791,-3.0791,-3.0791,-3.0791,-3.0775,-3.0632,-3.0553,-3.0553,-3.0394,-2.9933,-2.9202,-2.9361,-2.9457,-2.9457,-3.0144,-3.1076,-3.1988,-3.2581,-3.2953,-3.3065,-3.3197,-3.2982,-3.2374,-3.2156,-3.1844,-3.1496,-3.0734,-3.0299,-3.0316,-3.0106,-3.0203,0.0,0.0,0.0,0.0,0.0,0.0,0.0,0.0,0.0,0.0,0.0,-2.4935,-2.577,-2.6172,-2.6512,-2.6685,-2.7761,-2.8541,-2.8911,-2.9993,-3.0827,-3.1175,-3.1686,-3.2564,-3.3908,-3.4381,-3.5121,-3.6534,-3.7391,-3.8213,-3.9061,-3.9116,-3.8956,-3.8868,-3.9323,-3.9942,-4.0511,-4.1194,-4.1751,-4.2256,-4.2904,-4.3396,-4.3566,-4.3823,-4.4061,-4.4252,-4.4252,-4.4337,-4.4574,-4.4574,-4.4601,-4.4622,-4.4316,-4.3926,-4.3609,-4.2973,-4.2241,-4.1775,-4.1698,-4.1698,-3.2035,-3.1754,-3.1754,-3.1531,-3.116,-3.0697,-3.0426,-3.0394,-3.0442,-3.0458,-3.0458,-3.0458,-3.0458,-3.0458,-3.0458,-3.0458,-3.0473,-3.0851,-3.101,-3.1102,-3.1405,-3.1549,-3.1549,-3.1533,-3.1549,-3.1549,-3.1533,-3.1549,-3.1533,-3.1229,-3.107,-3.0994,-3.0675,-3.0516,-3.0458,-3.0532,-3.05,-3.0468,-3.1146,-3.1696,-3.213,-3.2892,-3.3137,-3.2984,-3.3586,-3.3699,-3.2962,-3.3232,-3.3074,-3.2363,-3.2343,-3.1986,-3.1256,-3.1175,-3.1073,0.0,-3.0995,0.0,0.0,0.0,0.0,0.0,0.0,0.0,0.0,-2.6567,-2.6456,-2.6954,-2.752,-2.8148,-2.9049,-2.9774,-3.0562,-3.1415,-3.2092,-3.2759,-3.3248,-3.3943,-3.4796,-3.5928,-3.6415,-3.7246,-3.8645,-3.9342,-3.9954,-4.0671,-4.1329,-4.1525,-4.1091,-4.1432,-4.2003,-4.2478,-4.3348,-4.389,-4.4004,-4.4043,-4.4253,-4.4491,-4.4615,-4.4729,-4.5149,-4.5149,-4.5215,-4.5215,-4.5168,-4.5195,-4.5117,-4.4805,-4.4551,-4.4375,-4.3921,-4.3453,-4.279,-4.2595,-4.2598,-3.2759,-3.239,-3.239,-3.239,-3.2238,-3.1858,-3.1317,-3.0775,-3.1061,-3.1188,-3.1188,-3.1188,-3.1188,-3.1188,-3.1188,-3.1188,-3.1188,-3.1634,-3.1819,-3.1819,-3.219,-3.2375,-3.2375,-3.2359,-3.2359,-3.2375,-3.2359,-3.2375,-3.2375,-3.231,-3.2108,-3.1819,-3.1739,-3.1494,-3.1265,0.0,0.0,0.0,-3.1426,-3.1998,-3.2952,-3.3424,-3.3768,-3.4093,-3.4246,0.0,-3.4153,-3.4197,-3.4019,-3.3498,-3.3505,0.0,0.0,0.0,0.0,0.0,0.0,0.0,0.0,0.0,0.0,0.0,-3.1488,-3.0676,-2.9027,-2.9038,-2.8984,-2.8551,-2.9911,-3.075,-3.0667,-3.1594,-3.2565,-3.3366,-3.4101,-3.4843,-3.561,-3.6385,-3.7184,-3.7992,-3.8476,-3.9059,-4.002,-4.0801,-4.1517,-4.2053,-4.2518,-4.2895,-4.3046,-4.2869,-4.296,-4.3457,-4.4508,-4.5405,-4.5735,-4.5754,-4.5629,-4.588,-4.5968,-4.5948,-4.6016,-4.6016,-4.6055,-4.6016,-4.6055,-4.5937,-4.5625,-4.5488,-4.5176,-4.4551,-4.4336,-4.4101,-4.3594,-4.3457,-4.3457,-3.3365,0.0,-3.3213,-3.3061,0.0,-3.2664,-3.2261,-3.1734,-3.1545,-3.1395,-3.1395,-3.1395,-3.1395,-3.1395,-3.1609,-3.1686,-3.1686,-3.2146,-3.2299,-3.2299,-3.2528,-3.2588,-3.2588,-3.2588,-3.2588,-3.2588,-3.2588,-3.2588,-3.2588,-3.2588,-3.2512,-3.2283,-3.2299,-3.2222,-3.1993,-3.2222,-3.2201,-3.2021,-3.2248,-3.2709,-3.3483,-3.3895,-3.4273,-3.4707,-3.4904,0.0,0.0,0.0,0.0,0.0,0.0,0.0,0.0,0.0,0.0,-3.4122,-3.4052,-3.4007,-3.3804,-3.3669,-3.3471,-3.3331,-3.3524,-3.2929,-3.1236,-3.1056,-3.1061,-3.1069,-3.2087,-3.2899,-3.3336,-3.4077,-3.4966,-3.5897,-3.6376,-3.6952,-3.772,-3.8345,-3.9124,-4.0023,-4.0388,-4.0909,-4.1924,-4.243,-4.29,-4.3359,-4.3574,-4.3793,-4.4017,-4.4026,-4.4211,-4.4892,-4.5472,-4.6055,-4.625,-4.6308,-4.6308,-4.6308,-4.6308,-4.6308,-4.6308,-4.6308,-4.6308,-4.6308,-4.6308,-4.6211,-4.6035,-4.582,-4.5547,-4.5098,-4.4687,-4.4355,-4.4082,-4.3867,-4.3691,-3.3837,-3.3837,-3.3837,-3.3592,-3.3272,-3.3272,-3.2968,-3.2512,0.0,0.0,0.0,-3.1549,-3.1549,-3.1609,-3.1916,-3.2069,-3.2146,-3.2594,-3.2856,-3.2856,-3.2923,-3.2983,-3.2916,-3.2933,-3.2883,-3.2833,-3.2833,-3.2833,-3.2833,-3.2833,-3.274,-3.2757,-3.2664,-3.274,-3.2816,-3.2892,-3.2985,-3.3044,-3.3196,-3.3575,-3.4105,-3.4499,-3.495,-3.5306,-3.568,-3.5906,-3.5889,-3.6327,-3.6485,-3.6428,-3.6551,-3.6513,-3.6437,-3.6112,-3.5991,-3.5921,-3.5597,-3.5337,-3.5061,-3.4991,-3.5022,-3.5134,-3.5417,-3.4935,-3.3322,-3.2927,-3.3101,-3.376,-3.4248,-3.4954,-3.6087,-3.657,-3.7315,-3.8519,-3.8671,-3.8994,-3.9759,-4.0221,-4.086,-4.1817,-4.2151,-4.2585,-4.3557,-4.3856,-4.4035,-4.4353,-4.4452,-4.4492,-4.4568,-4.4744,-4.5149,-4.5792,-4.6113,-4.6289,-4.6308,-4.6308,-4.6308,-4.6308,-4.6308,-4.6308,-4.6308,-4.6308,-4.6308,-4.6308,-4.6308,-4.6289,-4.6269,-4.6035,-4.5762,-4.5683,-4.5137,-4.459,-4.4492,-4.4219,-4.3965,-3.3837,-3.3837,-3.3837,-3.3761,-3.3668,-3.3348,-3.2968,-3.2588,-3.2146,-3.2146,-3.2452,-3.2069,-3.2069,-3.2435,-3.2512,-3.2528,-3.2544,-3.3319,-3.3607,-3.3641,-3.4348,-3.4469,-3.4163,-3.4163,-3.3992,-3.3626,-3.3609,-3.3609,-3.3609,-3.3609,-3.3441,-3.312,-3.312,-3.3272,-3.3651,-3.3954,-3.4331,-3.4632,-3.4029,-3.4255,-3.5306,-3.5754,-3.6145,-3.6516,-3.6979,-3.7162,-3.7179,-3.7547,-3.7575,-3.7297,-3.7851,-3.7889,-3.7183,-3.7457,-3.7468,-3.7187,-3.7059,-3.702,-3.702,-3.695,-3.7144,-3.7501,-3.7526,-3.6799,-3.4972,-3.5012,-3.5358,-3.5851,-3.6478,-3.7259,-3.8141,-3.8652,-3.9316,-4.0484,-4.0735,-4.1065,-4.1768,-4.2261,-4.2639,-4.2938,-4.3559,-4.4,-4.4301,-4.4622,-4.4762,-4.4862,-4.4964,-4.492,-4.4929,-4.496,-4.5195,-4.5683,-4.6074,-4.6269,-4.6308,-4.6308,-4.6308,-4.6308,-4.6308,-4.6308,-4.6308,-4.6308,-4.6308,-4.6308,-4.6308,-4.6308,-4.6308,-4.6269,-4.6055,-4.5801,-4.5508,-4.5312,-4.5019,-4.4844,-4.4707,-3.3837,-3.3837,-3.3837,-3.3837,-3.3761,-3.3609,-3.3441,-3.323,-3.3049,-3.2786,-3.2604,-3.2375,-3.2567,-3.2901,-3.3132,-3.3326,-3.3526,-3.4159,-3.4477,-3.4494,-3.482,-3.4881,-3.4693,-3.4487,-3.4299,-3.4128,-3.3939,-3.3912,-3.4139,-3.4139,-3.4122,-3.418,-3.418,-3.4406,-3.4782,-3.522,-3.5704,-3.6306,-3.5553,-3.5553,-3.6306,-3.7109,-3.7746,-3.814,-3.8533,-3.8886,-3.9109,-3.9258,-3.9401,-3.9425,-3.948,-3.9333,-3.899,-3.8966,-3.8826,-3.8684,-3.8612,-3.8684,-3.8612,-3.8684,-3.8811,-3.9248,-3.9288,-3.909,-3.8452,-3.7881,-3.7832,-3.8456,-3.8911,-3.9406,-4.0193,-4.0479,-4.098,-4.1722,-4.1859,-4.2116,-4.2651,-4.3147,-4.3627,-4.4073,-4.45,-4.4865,-4.5109,-4.5251,-4.5372,-4.5372,-4.5372,-4.531,-4.51,-4.5449,-4.5687,-4.5778,-4.584,-4.6055,-4.625,-4.6308,-4.6308,-4.6308,-4.6308,-4.6308,-4.6308,-4.6308,-4.6308,-4.6308,-4.6308,-4.6308,-4.6308,-4.6308,-4.6191,-4.6074,-4.5801,-4.5586,-4.541,-4.5371,-4.5215,-3.3888,-3.3957,-3.3957,-3.4008,-3.4094,-3.4094,-3.4094,-3.4051,-3.4094,-3.3735,-3.3176,-3.3006,-3.3249,-3.3653,-3.3903,-3.421,-3.448,-3.4896,-3.5104,-3.5104,-3.5268,-3.5347,-3.5226,-3.5012,-3.4865,-3.4692,-3.4322,-3.4301,-3.4516,-3.4667,-3.4875,-3.5231,-3.5381,-3.553,-3.5829,-3.6379,-3.7032,-3.7652,-3.7444,-3.7348,-3.7558,-3.8538,-3.9221,-3.9693,-3.9994,-4.0294,-4.0594,-4.0669,-4.0818,-4.1042,-4.0888,-4.0686,-4.0686,-4.0436,-4.0306,-4.0306,-4.0306,-4.0306,-4.0306,-4.0306,-4.0468,-4.0793,-4.0833,-4.1036,-4.1326,-4.0584,-4.0226,-4.0674,-4.0733,-4.1063,-4.1766,-4.1923,-4.214,-4.256,-4.2778,-4.2961,-4.3383,-4.3861,-4.4386,-4.5041,-4.5267,-4.5492,-4.5779,-4.5861,-4.5861,-4.5779,-4.5861,-4.5617,-4.5372,-4.5916,-4.6205,-4.6029,-4.5942,-4.6044,-4.625,-4.6308,-4.6308,-4.6308,-4.6308,-4.6308,-4.6308,-4.6308,-4.6308,-4.6308,-4.6308,-4.6308,-4.6308,-4.6308,-4.6289,-4.623,-4.6035,-4.584,-4.582,-4.582,-4.5723,-3.4042,-3.4316,-3.435,-3.4539,-3.483,-3.4847,-3.4847,-3.4847,-3.4915,-3.4837,-3.4691,-3.43,-3.4396,-3.4837,-3.4837,-3.4872,-3.4957,-3.5309,-3.5463,-3.5577,-3.6223,-3.6365,-3.6114,-3.6456,-3.6224,-3.5563,-3.544,-3.5303,-3.5096,-3.5435,-3.5698,-3.6052,-3.6442,-3.6683,-3.6794,-3.7465,-3.8102,-3.8624,-3.9583,-3.9948,-3.9654,-3.9749,-4.0144,-4.0913,-4.0988,-4.0988,-4.1102,-4.1062,-4.1062,-4.1137,-4.1414,-4.1616,-4.1616,-4.185,-4.2051,-4.203,-4.203,-4.2051,-4.2051,-4.2051,-4.2051,-4.2113,-4.2039,-4.2245,-4.2658,-4.2583,-4.2263,-4.1797,-4.1625,-4.1999,-4.2729,-4.2846,-4.3019,-4.3427,-4.3736,-4.4179,-4.4267,-4.4964,-4.5602,-4.5564,-4.5855,-4.6225,-4.6165,-4.6185,-4.6185,-4.6185,-4.6185,-4.6064,-4.5821,-4.6146,-4.6489,-4.643,-4.665,-4.6694,-4.6483,-4.6308,-4.6308,-4.6308,-4.6308,-4.6308,-4.6308,-4.6308,-4.6308,-4.6308,-4.6308,-4.6308,-4.6308,-4.6308,-4.6308,-4.6308,-4.623,-4.6211,-4.623,-4.6211,-4.6133,-3.4959,-3.5098,-3.4882,-3.483,-3.4967,-3.4967,-3.4967,-3.4984,-3.5207,-3.5292,-3.5326,-3.5356,-3.5339,-3.5292,-3.5292,-3.557,-3.605,-3.6188,-3.6418,-3.6657,-3.7215,-3.7357,-3.7276,-3.7438,-3.7384,-3.7076,-3.6823,-3.6776,-3.6877,-3.7218,-3.7671,-3.7972,-3.8197,-3.8496,-3.8964,-3.9615,-4.0056,-4.0508,-4.1234,-4.1626,-4.1715,-4.1695,-4.1847,-4.2226,-4.2453,-4.2604,-4.2604,-4.2604,-4.2604,-4.2583,-4.2508,-4.2439,-4.2439,-4.234,-4.2322,-4.2322,-4.2322,-4.2322,-4.2322,-4.2322,-4.2447,-4.2621,-4.2642,-4.2849,-4.3284,-4.3325,-4.3174,-4.2946,-4.2794,-4.2952,-4.3289,-4.331,-4.3565,-4.389,-4.4194,-4.4505,-4.5084,-4.5436,-4.5768,-4.6037,-4.6142,-4.6266,-4.6266,-4.6266,-4.6266,-4.6266,-4.6266,-4.6268,-4.6393,-4.6907,-4.7173,-4.7223,-4.7556,-4.7468,-4.692,-4.6483,-4.6308,-4.6308,-4.6308,-4.6308,-4.6308,-4.6308,-4.6308,-4.6308,-4.6308,-4.6308,-4.6308,-4.6308,-4.6308,-4.6308,-4.6308,-4.6308,-4.6308,-4.6308,-4.6308,-3.5782,-3.5887,-3.5696,-3.559,-3.5433,-3.5433,-3.5354,-3.5309,-3.5566,-3.5749,-3.5846,-3.6138,-3.6184,-3.6005,-3.5908,-3.6223,-3.6867,-3.6965,-3.7205,-3.7605,-3.8084,-3.8383,-3.8505,-3.8661,-3.875,-3.8698,-3.8476,-3.8499,-3.8728,-3.9013,-3.9391,-3.9768,-3.9824,-4.0069,-4.0634,-4.1127,-4.1499,-4.1898,-4.2301,-4.2774,-4.3081,-4.3157,-4.3157,-4.3177,-4.3462,-4.3615,-4.3615,-4.3615,-4.3615,-4.3594,-4.3284,-4.3118,-4.3097,-4.2787,-4.2642,-4.2621,-4.2696,-4.2621,-4.2621,-4.2621,-4.2766,-4.3056,-4.3097,-4.3242,-4.3532,-4.3615,-4.3615,-4.3594,-4.3615,-4.3594,-4.3615,-4.3718,-4.3946,-4.4277,-4.4484,-4.4981,-4.5561,-4.5768,-4.5995,-4.6285,-4.6246,-4.6266,-4.6266,-4.6266,-4.6266,-4.6266,-4.6266,-4.6432,-4.6886,-4.7403,-4.767,-4.7912,-4.8172,-4.8007,-4.7181,-4.6745,-4.6483,-4.6308,-4.6308,-4.6308,-4.6308,-4.6308,-4.6308,-4.6308,-4.6308,-4.6308,-4.6308,-4.6308,-4.6308,-4.6308,-4.6308,-4.6308,-4.6308,-4.6308,-4.6308,-3.6408,-3.6798,-3.7153,-3.6957,-3.6592,-3.6574,-3.6431,-3.604,-3.6126,-3.6305,-3.6609,-3.6724,-3.6965,-3.7312,-3.6895,-3.6947,-3.7365,-3.7845,-3.8004,-3.8145,-3.8956,-3.949,-3.9864,-4.0237,-4.0415,-4.049,-4.0412,-4.0349,-4.0449,-4.0389,-4.0669,-4.1008,-4.1048,-4.1028,-4.1258,-4.1565,-4.1953,-4.2377,-4.28,-4.3157,-4.3539,-4.3539,-4.3539,-4.3539,-4.3615,-4.3615,-4.3615,-4.3615,-4.3615,-4.3615,-4.3573,-4.3553,-4.3573,-4.3532,-4.3491,-4.3511,-4.3511,-4.3511,-4.3491,-4.347,-4.3511,-4.3553,-4.3511,-4.3573,-4.3594,-4.3615,-4.3615,-4.3615,-4.3615,-4.3615,-4.3698,-4.3987,-4.4256,-4.4443,-4.5105,-4.554,-4.5685,-4.6057,-4.6204,-4.6266,-4.6266,-4.6266,-4.6266,-4.6266,-4.6266,-4.6266,-4.6266,-4.6533,-4.703,-4.7444,-4.7858,-4.8271,-4.8322,-4.8093,-4.7268,-4.692,-4.6745,-4.6571,-4.6396,-4.6308,-4.6308,-4.6308,-4.6308,-4.6308,-4.6308,-4.6308,-4.6308,-4.6308,-4.6308,-4.6308,-4.6308,-4.6308,-4.6308,-4.6308,-4.6308,-3.7266,-3.717,-3.7374,-3.7285,-3.7125,-3.7125,-3.7045,-3.6965,-3.6965,-3.7045,-3.7205,-3.7445,-3.7765,-3.8163,-3.8621,-3.8542,-3.8243,-3.8859,-3.9314,-3.9647,-4.0509,-4.1133,-4.1521,-4.1907,-4.2233,-4.2454,-4.253,-4.2353,-4.2079,-4.2135,-4.2135,-4.2287,-4.2287,-4.2438,-4.2706,-4.2809,-4.2987,-4.316,-4.3324,-4.3462,-4.3615,-4.3615,-4.3615,-4.3615,-4.3615,-4.3615,-4.3615,-4.3615,-4.3615,-4.3615,-4.3615,-4.3615,-4.3615,-4.3615,-4.3615,-4.3615,-4.3615,-4.3615,-4.3615,-4.3615,-4.3615,-4.3615,-4.3615,-4.3615,-4.3615,-4.3615,-4.3615,-4.3615,-4.3615,-4.3718,-4.4029,-4.4215,-4.4546,-4.5126,-4.5478,-4.5889,-4.6057,-4.6163,-4.6266,-4.6266,-4.6266,-4.6266,-4.6266,-4.6266,-4.6266,-4.6266,-4.6266,-4.6678,-4.7258,-4.761,-4.7962,-4.8624,-4.8849,-4.863,-4.8027,-4.7354,-4.692,-4.6745,-4.6571,-4.6396,-4.6308,-4.6396,-4.6396,-4.6308,-4.6308,-4.6308,-4.6308,-4.6308,-4.6308,-4.6308,-4.6308,-4.6308,-4.6308,-4.6308,-4.6308,-3.8481,-3.8243,-3.8243,-3.8145,-3.7986,-3.7986,-3.7906,-3.7827,-3.7827,-3.7906,-3.8066,-3.8463,-3.8877,-3.9333,-4.0118,-4.0275,-3.9883,-4.0353,-4.0744,-4.1133,-4.185,-4.2467,-4.2984,-4.3233,-4.3615,-4.3898,-4.3995,-4.3843,-4.3615,-4.3615,-4.3615,-4.3594,-4.3539,-4.3691,-4.3898,-4.3822,-4.3767,-4.3746,-4.3691,-4.3615,-4.3615,-4.3615,-4.3615,-4.3615,-4.3615,-4.3615,-4.3615,-4.3615,-4.3615,-4.3615,-4.3615,-4.3615,-4.3615,-4.3615,-4.3615,-4.3615,-4.3615,-4.3615,-4.3615,-4.3767,-4.3843,-4.3843,-4.3919,-4.3974,-4.3974,-4.3974,-4.3974,-4.3974,-4.3995,-4.4204,-4.4746,-4.4914,-4.5149,-4.5778,-4.6108,-4.6396,-4.6688,-4.673,-4.667,-4.659,-4.6428,-4.6347,-4.6266,-4.6266,-4.6266,-4.6266,-4.637,-4.6906,-4.7486,-4.7858,-4.8148,-4.8893,-4.9038,-4.8973,-4.8544,-4.8027,-4.7528,-4.7268,-4.7007,-4.6745,-4.6571,-4.6571,-4.6483,-4.6396,-4.6308,-4.6308,-4.6308,-4.6308,-4.6308,-4.6308,-4.6308,-4.6308,-4.6308,-4.6308,-4.6308,-3.9823,-3.9823,-3.9902,-3.9588,-3.9333,-3.9333,-3.9096,-3.8761,-3.8682,-3.8919,-3.9333,-3.9726,-4.0099,-4.0588,-4.1366,-4.1985,-4.2139,-4.1985,-4.2062,-4.2447,-4.2927,-4.3539,-4.4201,-4.4277,-4.4579,-4.4955,-4.488,-4.488,-4.4805,-4.473,-4.473,-4.473,-4.4654,-4.4579,-4.473,-4.4352,-4.4201,-4.4125,-4.3843,-4.3691,-4.3615,-4.3615,-4.3615,-4.3615,-4.3615,-4.3615,-4.3615,-4.3615,-4.3615,-4.3615,-4.3615,-4.3615,-4.3615,-4.3615,-4.3615,-4.3691,-4.3615,-4.3615,-4.3691,-4.3995,-4.4201,-4.4201,-4.4504,-4.4654,-4.4654,-4.4654,-4.4654,-4.4654,-4.4739,-4.5112,-4.5821,-4.6131,-4.6209,-4.6358,-4.6917,-4.739,-4.7512,-4.7533,-4.7453,-4.7073,-4.6691,-4.6347,-4.6347,-4.6347,-4.6287,-4.6411,-4.6659,-4.7154,-4.7693,-4.8065,-4.8521,-4.8914,-4.9059,-4.9059,-4.8887,-4.8716,-4.8286,-4.7874,-4.7615,-4.7354,-4.7094,-4.7007,-4.6745,-4.6658,-4.6308,-4.6308,-4.6308,-4.6308,-4.6308,-4.6308,-4.6308,-4.6308,-4.6308,-4.6308,-4.6308,-4.0059,-4.0275,-4.0275,-4.0431,-4.049,-4.0568,-4.0412,-4.0334,-4.0334,-4.0412,-4.0568,-4.1055,-4.1443,-4.1907,-4.2677,-4.3233,-4.367,-4.3746,-4.3822,-4.3767,-4.4352,-4.488,-4.5405,-4.5704,-4.6077,-4.6374,-4.6448,-4.6299,-4.6002,-4.5779,-4.548,-4.5256,-4.4955,-4.4805,-4.488,-4.4654,-4.4579,-4.4579,-4.4201,-4.3995,-4.3995,-4.3746,-4.3615,-4.3615,-4.3615,-4.3615,-4.3615,-4.3615,-4.3615,-4.3615,-4.3615,-4.3615,-4.3615,-4.3615,-4.3767,-4.3995,-4.3995,-4.4125,-4.4428,-4.4504,-4.4654,-4.4654,-4.473,-4.4805,-4.4805,-4.488,-4.488,-4.4848,-4.5103,-4.5592,-4.6124,-4.684,-4.7183,-4.7178,-4.7427,-4.7693,-4.7773,-4.7693,-4.7533,-4.7373,-4.7073,-4.6852,-4.6691,-4.659,-4.6492,-4.6679,-4.6886,-4.7341,-4.7982,-4.8293,-4.8562,-4.8955,-4.9017,-4.9059,-4.8973,-4.8887,-4.8716,-4.8392,-4.8134,-4.7874,-4.7615,-4.7441,-4.7268,-4.6832,-4.6571,-4.6289,-4.6308,-4.6308,-4.6308,-4.6308,-4.6308,-4.6308,-4.6308,-4.6308,-4.6308,-4.0977,-4.1191,-4.121,-4.1424,-4.183,-4.183,-4.1888,-4.2042,-4.2042,-4.2042,-4.2139,-4.2524,-4.283,-4.3136,-4.3746,-4.4382,-4.4888,-4.5384,-4.5621,-4.561,-4.5513,-4.595,-4.6448,-4.6913,-4.7112,-4.7355,-4.7428,-4.7186,-4.6817,-4.6596,-4.6299,-4.6077,-4.5779,-4.5704,-4.563,-4.5405,-4.5256,-4.5181,-4.473,-4.4428,-4.4352,-4.4222,-4.405,-4.4071,-4.4071,-4.405,-4.405,-4.4071,-4.3919,-4.3691,-4.3767,-4.3898,-4.3974,-4.4071,-4.4146,-4.4352,-4.4428,-4.4504,-4.4805,-4.5031,-4.5256,-4.5256,-4.5555,-4.5704,-4.5704,-4.5704,-4.5704,-4.5769,-4.6214,-4.6616,-4.717,-4.7803,-4.8283,-4.8583,-4.849,-4.841,-4.8468,-4.8251,-4.8092,-4.8012,-4.7613,-4.7234,-4.7014,-4.7041,-4.6841,-4.701,-4.7341,-4.7631,-4.8272,-4.8521,-4.879,-4.8976,-4.9038,-4.9059,-4.9059,-4.9059,-4.9059,-4.8887,-4.865,-4.8286,-4.8027,-4.7941,-4.7768,-4.7181,-4.6745,-4.6483,-4.6483,-4.6308,-4.6308,-4.6308,-4.6308,-4.6308,-4.6308,-4.6308,-4.6308,-4.2447,-4.2524,-4.2524,-4.2697,-4.3081,-4.3081,-4.333,-4.3677,-4.3677,-4.3718,-4.3836,-4.4127,-4.439,-4.4479,-4.4888,-4.5534,-4.6171,-4.6713,-4.7342,-4.756,-4.7118,-4.6921,-4.7428,-4.7794,-4.8013,-4.8013,-4.8013,-4.7794,-4.7552,-4.7406,-4.7259,-4.7259,-4.7186,-4.7186,-4.6965,-4.6448,-4.6151,-4.6002,-4.533,-4.488,-4.488,-4.473,-4.473,-4.473,-4.473,-4.473,-4.4654,-4.4793,-4.4491,-4.3843,-4.405,-4.4352,-4.4654,-4.4805,-4.4805,-4.488,-4.488,-4.5031,-4.5106,-4.5704,-4.6077,-4.6225,-4.667,-4.7259,-4.7134,-4.7134,-4.7112,-4.7157,-4.7723,-4.8216,-4.8664,-4.9202,-4.9672,-5.0131,-4.9752,-4.9595,-4.9987,-4.9381,-4.8965,-4.8727,-4.8172,-4.7533,-4.7276,-4.743,-4.7377,-4.7402,-4.7859,-4.821,-4.85,-4.8748,-4.8976,-4.9059,-4.9059,-4.9059,-4.9059,-4.9059,-4.9059,-4.9059,-4.8887,-4.8716,-4.8458,-4.8372,-4.8113,-4.7528,-4.7007,-4.6745,-4.6483,-4.6396,-4.6308,-4.6308,-4.6308,-4.6308,-4.6308,-4.6308,-4.6308,-4.3442,-4.3746,-4.3746,-4.3974,-4.4277,-4.4374,-4.4584,-4.5011,-4.5032,-4.5222,-4.5553,-4.5715,-4.5882,-4.6253,-4.6593,-4.7062,-4.7531,-4.8031,-4.8658,-4.9276,-4.9117,-4.885,-4.8905,-4.9005,-4.9078,-4.9078,-4.9078,-4.9005,-4.8861,-4.8549,-4.8476,-4.8404,-4.8209,-4.7941,-4.7648,-4.7502,-4.7186,-4.6817,-4.6077,-4.5704,-4.563,-4.5106,-4.4805,-4.4805,-4.488,-4.488,-4.4923,-4.5524,-4.5427,-4.46,-4.4579,-4.4654,-4.4902,-4.5202,-4.5502,-4.5704,-4.6002,-4.6299,-4.6522,-4.6743,-4.7038,-4.7259,-4.7575,-4.7794,-4.8086,-4.8109,-4.8086,-4.8246,-4.884,-4.941,-4.9684,-5.0346,-5.0948,-5.1262,-5.0688,-5.0165,-5.0244,-4.9987,-4.9774,-4.9381,-4.8907,-4.841,-4.804,-4.7856,-4.7769,-4.7899,-4.8213,-4.85,-4.8813,-4.8873,-4.9059,-4.9059,-4.9059,-4.9059,-4.9059,-4.9059,-4.9059,-4.9059,-4.9059,-4.8973,-4.8802,-4.863,-4.8199,-4.7701,-4.7268,-4.7007,-4.6571,-4.6308,-4.6308,-4.6308,-4.6308,-4.6308,-4.6308,-4.6308,-4.6308,-4.4201,-4.4449,-4.4639,-4.4951,-4.5351,-4.5565,-4.5953,-4.6244,-4.6364,-4.6514,-4.6828,-4.7026,-4.7158,-4.7466,-4.7827,-4.8265,-4.865,-4.9305,-4.9875,-5.0543,-5.096,-5.0875,-5.0459,-5.0246,-5.0222,-5.0222,-5.0222,-5.0056,-4.9914,-4.97,-4.9628,-4.9628,-4.9437,-4.915,-4.8812,-4.8572,-4.8232,-4.7721,-4.7061,-4.667,-4.6448,-4.6077,-4.5853,-4.5853,-4.5779,-4.5919,-4.618,-4.6842,-4.68,-4.6204,-4.6085,-4.615,-4.618,-4.6532,-4.672,-4.6788,-4.7112,-4.7502,-4.7648,-4.7845,-4.8136,-4.8427,-4.8644,-4.8933,-4.9221,-4.9317,-4.9317,-4.9787,-5.032,-5.069,-5.1012,-5.1536,-5.1931,-5.2077,-5.1616,-5.1231,-5.1231,-5.0921,-5.0611,-5.0221,-4.9617,-4.8986,-4.8591,-4.8361,-4.8241,-4.8356,-4.8463,-4.8795,-4.8999,-4.9103,-4.9059,-4.9059,-4.9059,-4.9059,-4.9059,-4.9059,-4.9059,-4.9059,-4.9059,-4.9059,-4.8973,-4.8802,-4.8458,-4.8047,-4.7615,-4.7181,-4.6745,-4.6396,-4.6308,-4.6308,-4.6308,-4.6308,-4.6308,-4.6308,-4.6308,-4.4998,-4.5083,-4.5489,-4.5855,-4.6268,-4.6754,-4.7137,-4.7553,-4.7553,-4.7696,-4.7937,-4.8178,-4.8366,-4.8364,-4.887,-4.9189,-4.9724,-5.0414,-5.1125,-5.1833,-5.2577,-5.2768,-5.2114,-5.1578,-5.1476,-5.1498,-5.1425,-5.1211,-5.1047,-5.0906,-5.0835,-5.0835,-5.0835,-5.0553,-5.0222,-4.9866,-4.9293,-4.8667,-4.8232,-4.7772,-4.7479,-4.7259,-4.7186,-4.7208,-4.7342,-4.7589,-4.8089,-4.8636,-4.8678,-4.8112,-4.8199,-4.8093,-4.8134,-4.8537,-4.8578,-4.8429,-4.8676,-4.8895,-4.8948,-4.9308,-4.9457,-4.984,-5.0151,-5.0412,-5.0601,-5.0648,-5.0816,-5.1297,-5.1681,-5.2084,-5.2607,-5.2807,-5.2944,-5.3068,-5.2892,-5.2816,-5.2664,-5.2077,-5.1539,-5.1385,-5.0299,-4.9617,-4.9096,-4.8901,-4.8892,-4.8789,-4.8922,-4.8964,-4.9149,-4.9124,-4.9144,-4.9059,-4.9059,-4.9059,-4.9059,-4.9059,-4.9059,-4.9059,-4.9059,-4.9059,-4.9059,-4.8973,-4.8802,-4.8458,-4.7941,-4.7528,-4.7007,-4.6745,-4.6483,-4.6308,-4.6308,-4.6308,-4.6308,-4.6308,-4.6308,-4.5921,-4.629,-4.6377,-4.6735,-4.716,-4.7367,-4.7783,-4.8499,-4.8499,-4.8908,-4.9429,-4.9674,-4.9707,-4.9707,-5.0126,-5.0616,-5.0925,-5.1485,-5.2236,-5.3401,-5.4377,-5.4737,-5.424,-5.3424,-5.2953,-5.3039,-5.2734,-5.2491,-5.2421,-5.2327,-5.2372,-5.2302,-5.2025,-5.1771,-5.1422,-5.1,-5.0435,-4.9818,-4.9365,-4.8933,-4.8549,-4.8331,-4.8209,-4.8255,-4.8525,-4.8982,-4.956,-5.0267,-5.0954,-5.0971,-5.0102,-4.9517,-4.9605,-4.9933,-5.0114,-5.0367,-5.0734,-5.105,-5.1366,-5.1416,-5.1537,-5.1512,-5.1606,-5.1603,-5.1541,-5.166,-5.188,-5.2345,-5.2716,-5.34,-5.4131,-5.4398,-5.4347,-5.4272,-5.4272,-5.4347,-5.4197,-5.3195,-5.223,-5.1616,-5.1153,-5.0611,-4.9538,-4.9438,-4.9356,-4.9364,-4.9234,-4.9196,-4.93,-4.9338,-4.9401,-4.9401,-4.9401,-4.9401,-4.9401,-4.9401,-4.9401,-4.9401,-4.9401,-4.923,-4.923,-4.9144,-4.8973,-4.8716,-4.8372,-4.7854,-4.7354,-4.7007,-4.6832,-4.6571,-4.6308,-4.6308,-4.6396,-4.6308,-4.6308,-4.658,-4.7091,-4.7509,-4.7937,-4.8377,-4.8675,-4.9074,-4.9429,-4.9452,-4.9741,-5.0199,-5.04,-5.0555,-5.0766,-5.1153,-5.1539,-5.2077,-5.2612,-5.3596,-5.4745,-5.5601,-5.6009,-5.6407,-5.5578,-5.4949,-5.4645,-5.4112,-5.3858,-5.3782,-5.3579,-5.3359,-5.3427,-5.3154,-5.2879,-5.2535,-5.2189,-5.1632,-5.093,-5.0506,-5.0127,-4.97,-4.9557,-4.9413,-4.9601,-5.0118,-5.0704,-5.1037,-5.1962,-5.2712,-5.2981,-5.2475,-5.1675,-5.1511,-5.1784,-5.1985,-5.1991,-5.2526,-5.2816,-5.3081,-5.3297,-5.3365,-5.3499,-5.3449,-5.3607,-5.3618,-5.3588,-5.3864,-5.429,-5.4599,-5.4785,-5.5213,-5.5041,-5.5041,-5.4967,-5.5041,-5.5041,-5.4818,-5.3897,-5.3068,-5.2436,-5.1847,-5.1231,-5.059,-5.0107,-4.9657,-4.9567,-4.9532,-4.9485,-4.9617,-4.966,-4.987,-4.9912,-4.9827,-4.9827,-4.9827,-4.9806,-4.9891,-4.9891,-4.9891,-4.9721,-4.9486,-4.9401,-4.923,-4.8887,-4.863,-4.8286,-4.7854,-4.7508,-4.7161,-4.692,-4.6658,-4.6483,-4.6396,-4.6396,-4.6308,-4.721,-4.7809,-4.8531,-4.914,-4.9605,-4.9941,-5.0176,-5.0299,-5.0322,-5.0355,-5.0478,-5.0789,-5.1176,-5.1539,-5.2,-5.2383,-5.3044,-5.3798,-5.4942,-5.5827,-5.6362,-5.6891,-5.7409,-5.7191,-5.6803,-5.6077,-5.5486,-5.5203,-5.4894,-5.4585,-5.4354,-5.4183,-5.4039,-5.3768,-5.3495,-5.3222,-5.2673,-5.205,-5.1771,-5.1327,-5.0976,-5.0835,-5.0765,-5.0887,-5.1754,-5.2333,-5.2647,-5.3495,-5.4322,-5.4794,-5.5066,-5.4672,-5.4181,-5.379,-5.3937,-5.3593,-5.4221,-5.4533,-5.4702,-5.4888,-5.5148,-5.5446,-5.5324,-5.5363,-5.5497,-5.542,-5.558,-5.5989,-5.6132,-5.6027,-5.5851,-5.5779,-5.5608,-5.5608,-5.5534,-5.5411,-5.5435,-5.4814,-5.4412,-5.3521,-5.2764,-5.2077,-5.1308,-5.0668,-5.0209,-4.9861,-4.9735,-4.9804,-4.9946,-4.9975,-5.0103,-5.0231,-5.0146,-5.0061,-5.0061,-5.0146,-5.0231,-5.0316,-5.04,-5.0146,-4.9891,-4.9806,-4.9636,-4.9144,-4.8802,-4.8544,-4.8286,-4.8027,-4.7595,-4.7248,-4.7094,-4.7007,-4.6745,-4.6483,-4.6396,-4.8289,-4.9125,-4.9205,-4.9573,-5.0009,-5.0199,-5.04,-5.0633,-5.0711,-5.0866,-5.1254,-5.1639,-5.177,-5.2077,-5.2688,-5.337,-5.4173,-5.5164,-5.5926,-5.651,-5.6993,-5.7784,-5.7876,-5.8082,-5.7997,-5.7833,-5.706,-5.6262,-5.5845,-5.5601,-5.5154,-5.4935,-5.4604,-5.4309,-5.4241,-5.3971,-5.3589,-5.3154,-5.2879,-5.2535,-5.2164,-5.205,-5.1911,-5.1894,-5.2971,-5.3632,-5.4,-5.4986,-5.5974,-5.634,-5.6438,-5.6507,-5.6334,-5.592,-5.587,-5.5915,-5.6056,-5.6222,-5.6463,-5.678,-5.6647,-5.6463,-5.6309,-5.6053,-5.5937,-5.5835,-5.6264,-5.6579,-5.6944,-5.7133,-5.7065,-5.6877,-5.7226,-5.7356,-5.7291,-5.7269,-5.7448,-5.6925,-5.5826,-5.4636,-5.3764,-5.3039,-5.2347,-5.1577,-5.0993,-5.0557,-5.0255,-5.0402,-5.0622,-5.045,-5.0248,-5.0293,-5.0316,-5.0316,-5.0316,-5.0485,-5.0569,-5.0738,-5.0738,-5.0654,-5.0485,-5.0316,-5.0061,-4.9551,-4.9144,-4.8887,-4.863,-4.8372,-4.8113,-4.7681,-4.7528,-4.7441,-4.7094,-4.6832,-4.6571,-4.9153,-4.9756,-5.0004,-5.0407,-5.0766,-5.0789,-5.0944,-5.1099,-5.1331,-5.1485,-5.1793,-5.2154,-5.2535,-5.2916,-5.3295,-5.4122,-5.5312,-5.6047,-5.6729,-5.7138,-5.7641,-5.807,-5.8141,-5.8426,-5.8523,-5.8366,-5.7895,-5.7346,-5.6771,-5.617,-5.583,-5.545,-5.5054,-5.4805,-5.4738,-5.4443,-5.4174,-5.3971,-5.3768,-5.3563,-5.3154,-5.3154,-5.3017,-5.3319,-5.4049,-5.4794,-5.5143,-5.6074,-5.6848,-5.7091,-5.7307,-5.7451,-5.7523,-5.7523,-5.7307,-5.7163,-5.721,-5.7426,-5.7667,-5.7784,-5.7772,-5.7591,-5.7513,-5.741,-5.7203,-5.7247,-5.7203,-5.7391,-5.7481,-5.7796,-5.8079,-5.7934,-5.8144,-5.8481,-5.8488,-5.8567,-5.8597,-5.8251,-5.7175,-5.5877,-5.4951,-5.4223,-5.3547,-5.2734,-5.1824,-5.134,-5.0883,-5.1023,-5.1345,-5.1202,-5.0948,-5.1362,-5.158,-5.1496,-5.1496,-5.158,-5.1496,-5.1496,-5.1412,-5.1328,-5.1076,-5.1076,-5.0569,-5.0061,-4.9636,-4.9401,-4.8973,-4.8802,-4.8458,-4.8199,-4.8027,-4.7874,-4.7528,-4.7181,-4.7007,-4.9932,-5.0375,-5.0785,-5.1122,-5.1331,-5.1485,-5.1485,-5.1562,-5.1924,-5.2177,-5.233,-5.2688,-5.3195,-5.3822,-5.4347,-5.509,-5.6438,-5.6874,-5.7354,-5.7713,-5.7999,-5.8212,-5.8452,-5.8523,-5.8523,-5.8497,-5.8418,-5.8209,-5.7477,-5.6798,-5.6249,-5.583,-5.5412,-5.5177,-5.4991,-5.4738,-5.4645,-5.4511,-5.4402,-5.42,-5.4132,-5.4064,-5.3997,-5.4099,-5.5193,-5.5784,-5.5816,-5.6932,-5.7518,-5.7739,-5.7882,-5.7999,-5.807,-5.8284,-5.8239,-5.781,-5.7856,-5.7999,-5.807,-5.8212,-5.8355,-5.8276,-5.8426,-5.8497,-5.84,-5.8172,-5.8373,-5.8452,-5.8239,-5.8304,-5.8719,-5.8657,-5.8899,-5.9341,-5.9447,-5.945,-5.9555,-5.9359,-5.8958,-5.7699,-5.6341,-5.5564,-5.5062,-5.3966,-5.3058,-5.2457,-5.2069,-5.1887,-5.2081,-5.2155,-5.2168,-5.2727,-5.3018,-5.3018,-5.3018,-5.2995,-5.2913,-5.2769,-5.2603,-5.2415,-5.2081,-5.1831,-5.1328,-5.0823,-5.0569,-5.0337,-4.9742,-4.923,-4.8973,-4.8716,-4.863,-4.8372,-4.7941,-4.7681,-4.7528,-5.075,-5.1239,-5.1308,-5.1354,-5.1508,-5.1793,-5.1947,-5.2,-5.2383,-5.2764,-5.3068,-5.3521,-5.3948,-5.4546,-5.5533,-5.6412,-5.7091,-5.7569,-5.7784,-5.7999,-5.8212,-5.8355,-5.8497,-5.8523,-5.8523,-5.8523,-5.8523,-5.8183,-5.7765,-5.7451,-5.6824,-5.6118,-5.583,-5.5595,-5.5125,-5.4965,-5.5032,-5.5032,-5.4965,-5.4738,-5.4443,-5.42,-5.4064,-5.4415,-5.5392,-5.6201,-5.6426,-5.7447,-5.8212,-5.831,-5.8381,-5.8452,-5.8452,-5.8452,-5.8452,-5.8381,-5.8452,-5.8452,-5.8381,-5.8452,-5.8523,-5.8523,-5.8523,-5.8523,-5.8523,-5.8523,-5.8523,-5.8523,-5.8478,-5.872,-5.9189,-5.9293,-5.9841,-6.0267,-6.0487,-6.0671,-6.0803,-6.0296,-5.9895,-5.9566,-5.8301,-5.7444,-5.6789,-5.5512,-5.4315,-5.379,-5.3306,-5.3062,-5.3033,-5.3176,-5.336,-5.3815,-5.4089,-5.4089,-5.4089,-5.4148,-5.4171,-5.3925,-5.3678,-5.3513,-5.3183,-5.283,-5.2437,-5.202,-5.1601,-5.1013,-5.0316,-4.9806,-4.9486,-4.923,-4.8973,-4.8716,-4.8458,-4.8199,-4.7941,-5.1868,-5.2077,-5.2077,-5.2077,-5.2077,-5.2307,-5.2459,-5.2764,-5.3068,-5.3521,-5.3972,-5.457,-5.5164,-5.5827,-5.6776,-5.7354,-5.7739,-5.807,-5.8212,-5.8212,-5.8426,-5.8523,-5.8523,-5.8523,-5.8523,-5.8523,-5.8497,-5.8444,-5.8104,-5.7739,-5.719,-5.6536,-5.6066,-5.5621,-5.5203,-5.5099,-5.5099,-5.5099,-5.5099,-5.5006,-5.4805,-5.4671,-5.463,-5.4656,-5.5881,-5.6444,-5.6877,-5.7755,-5.847,-5.8523,-5.8523,-5.8523,-5.8523,-5.8523,-5.8523,-5.8523,-5.8523,-5.8523,-5.8523,-5.8523,-5.8523,-5.8523,-5.8523,-5.8523,-5.8523,-5.8523,-5.8523,-5.8523,-5.8836,-5.9228,-5.9777,-6.0169,-6.0771,-6.1219,-6.1279,-6.1409,-6.1467,-6.1292,-6.0836,-6.0583,-6.0202,-5.9211,-5.8199,-5.704,-5.5859,-5.5231,-5.4746,-5.4521,-5.4548,-5.469,-5.481,-5.4928,-5.4963,-5.4963,-5.5044,-5.5125,-5.5125,-5.4963,-5.4661,-5.4498,-5.4252,-5.3925,-5.3431,-5.2935,-5.2437,-5.1769,-5.0991,-5.0231,-4.9742,-4.9486,-4.923,-4.8973,-4.8716,-4.8437,-4.8199,-5.3219,-5.3219,-5.2916,-5.2764,-5.2764,-5.2968,-5.3219,-5.3521,-5.4047,-5.4496,-5.5016,-5.5681,-5.6438,-5.6993,-5.7569,-5.7856,-5.807,-5.8355,-5.8523,-5.8594,-5.8664,-5.8735,-5.8876,-5.8806,-5.8806,-5.8735,-5.8735,-5.8683,-5.8507,-5.8175,-5.7634,-5.7007,-5.6484,-5.5909,-5.5438,-5.5177,-5.5099,-5.5099,-5.5099,-5.5099,-5.5032,-5.5032,-5.5032,-5.5371,-5.6092,-5.6824,-5.6981,-5.7895,-5.8497,-5.8523,-5.8523,-5.8523,-5.8523,-5.8523,-5.8523,-5.8523,-5.8523,-5.8523,-5.8523,-5.8523,-5.8523,-5.8523,-5.8523,-5.8523,-5.8523,-5.8523,-5.8523,-5.8523,-5.8993,-5.9542,-6.0169,-6.0718,-6.1241,-6.1607,-6.1894,-6.1947,-6.1973,-6.1672,-6.1344,-6.1065,-6.0812,-6.0609,-5.9592,-5.8425,-5.749,-5.6731,-5.6269,-5.5955,-5.5974,-5.6001,-5.6111,-5.6094,-5.6094,-5.6174,-5.6174,-5.6174,-5.6174,-5.6013,-5.5795,-5.5473,-5.5287,-5.4905,-5.4416,-5.3842,-5.3348,-5.2769,-5.2081,-5.0991,-4.9997,-4.9657,-4.9401,-4.923,-4.9059,-4.8716,-4.8437,-5.4818,-5.4744,-5.3672,-5.3243,-5.3295,-5.3972,-5.4272,-5.4472,-5.5164,-5.5681,-5.612,-5.6874,-5.7379,-5.7784,-5.7927,-5.8141,-5.8452,-5.8523,-5.8735,-5.8947,-5.9088,-5.9228,-5.9298,-5.9368,-5.9438,-5.9368,-5.9158,-5.9017,-5.8947,-5.863,-5.8096,-5.7608,-5.7102,-5.6432,-5.583,-5.5308,-5.5125,-5.5099,-5.5099,-5.5099,-5.5099,-5.5099,-5.5099,-5.5334,-5.6118,-5.6824,-5.6876,-5.7921,-5.8523,-5.8523,-5.8523,-5.8523,-5.8523,-5.8523,-5.8523,-5.8523,-5.8523,-5.8523,-5.8523,-5.8523,-5.8523,-5.8523,-5.8523,-5.8523,-5.8523,-5.8523,-5.8523,-5.8653,-5.9202,-5.9725,-6.0248,-6.0771,-6.1476,-6.1764,-6.2048,-6.2048,-6.2048,-6.1973,-6.1747,-6.1521,-6.1268,-6.1041,-6.0813,-5.9668,-5.888,-5.8119,-5.7306,-5.6916,-5.7082,-5.7103,-5.7248,-5.729,-5.7369,-5.7369,-5.7449,-5.7369,-5.7235,-5.7076,-5.6837,-5.6574,-5.6334,-5.5852,-5.5392,-5.4905,-5.4416,-5.382,-5.3078,-5.1914,-5.0823,-5.0082,-4.9572,-4.9401,-4.923,-4.8973,-4.8716,-5.5779,-5.5681,-5.546,-5.5164,-5.4744,-5.5016,-5.5386,-5.5901,-5.6219,-5.6703,-5.721,-5.7595,-5.7927,-5.8141,-5.8284,-5.8523,-5.8806,-5.8876,-5.9088,-5.9298,-5.9438,-5.9508,-5.9578,-5.9718,-5.9578,-5.9648,-5.9508,-5.9438,-5.9368,-5.9017,-5.8797,-5.8333,-5.7721,-5.6745,-5.6066,-5.5438,-5.5151,-5.5099,-5.5099,-5.5099,-5.5099,-5.5099,-5.5099,-5.5177,-5.6223,-5.6745,-5.6981,-5.7948,-5.8366,-5.8523,-5.8523,-5.8523,-5.8523,-5.8523,-5.8523,-5.8523,-5.8523,-5.8523,-5.8523,-5.8523,-5.8523,-5.8523,-5.8523,-5.8523,-5.8523,-5.8523,-5.8758,-5.9045,-5.9516,-6.0039,-6.0718,-6.1293,-6.179,-6.1921,-6.2048,-6.2048,-6.2048,-6.2048,-6.1973,-6.1747,-6.1646,-6.1571,-6.1268,-6.0913,-6.0176,-5.9514,-5.8723,-5.8059,-5.7974,-5.797,-5.7913,-5.7908,-5.7883,-5.7981,-5.7981,-5.8134,-5.8286,-5.8129,-5.7868,-5.7631,-5.729,-5.6813,-5.6334,-5.5933,-5.5311,-5.4556,-5.3655,-5.2664,-5.1663,-5.0654,-4.9997,-4.9486,-4.9315,-4.9144,-4.8973,-5.6583,-5.6583,-5.6874,-5.6583,-5.5999,-5.6072,-5.6438,-5.6946,-5.7091,-5.7498,-5.807,-5.807,-5.8212,-5.8452,-5.8664,-5.8806,-5.9017,-5.9228,-5.9578,-5.9787,-5.9969,-6.0039,-6.0177,-6.0315,-6.0453,-6.0177,-5.9969,-5.9969,-5.9969,-5.9508,-5.9202,-5.8859,-5.8429,-5.7476,-5.6301,-5.5465,-5.5099,-5.5099,-5.5099,-5.5099,-5.5099,-5.5099,-5.5099,-5.5255,-5.6223,-5.6745,-5.7111,-5.7843,-5.8444,-5.8523,-5.8523,-5.8523,-5.8523,-5.8523,-5.8523,-5.8523,-5.8523,-5.8523,-5.8523,-5.8523,-5.8523,-5.8523,-5.8523,-5.8523,-5.8523,-5.8523,-5.8732,-5.9281,-5.9856,-6.0483,-6.1084,-6.1555,-6.1868,-6.2048,-6.2048,-6.2048,-6.2048,-6.2048,-6.2048,-6.1973,-6.1898,-6.1823,-6.1646,-6.1344,-6.066,-6.0049,-5.9538,-5.8773,-5.8392,-5.8288,-5.8186,-5.8235,-5.8235,-5.8281,-5.8405,-5.8607,-5.8784,-5.8731,-5.8575,-5.8418,-5.8104,-5.7631,-5.7211,-5.6837,-5.6117,-5.5206,-5.4311,-5.3513,-5.2331,-5.116,-5.0422,-4.9572,-4.9315,-4.9059,-4.9059,-5.7379,-5.7379,-5.7379,-5.7163,-5.6874,-5.7163,-5.7379,-5.7451,-5.7713,-5.807,-5.8381,-5.8452,-5.8523,-5.8664,-5.8947,-5.9158,-5.9368,-5.9578,-5.9969,-6.0522,-6.0797,-6.1138,-6.1383,-6.1586,-6.1478,-6.1519,-6.1138,-6.0797,-6.0591,-5.9969,-5.9578,-5.9149,-5.8718,-5.7939,-5.6745,-5.5647,-5.5125,-5.5099,-5.5099,-5.5099,-5.5099,-5.5099,-5.5099,-5.536,-5.6196,-5.6798,-5.7059,-5.7921,-5.847,-5.8523,-5.8523,-5.8523,-5.8523,-5.8523,-5.8523,-5.8523,-5.8523,-5.8523,-5.8523,-5.8523,-5.8523,-5.8523,-5.8523,-5.8523,-5.8523,-5.8575,-5.8758,-5.9307,-5.9882,-6.0457,-6.1058,-6.1607,-6.1842,-6.2048,-6.2048,-6.2048,-6.2048,-6.2048,-6.2048,-6.2048,-6.2048,-6.1973,-6.1823,-6.1571,-6.0913,-6.0431,-6.0176,-5.959,-5.893,-5.8399,-5.8222,-5.8222,-5.8222,-5.8422,-5.8596,-5.905,-5.9253,-5.9303,-5.9198,-5.8965,-5.8731,-5.8418,-5.8025,-5.7631,-5.6917,-5.5933,-5.5125,-5.4334,-5.2913,-5.1496,-5.0337,-4.9572,-4.9315,-4.9059,-4.9059,-5.8381,-5.8167,-5.8167,-5.8096,-5.7953,-5.7784,-5.7856,-5.807,-5.8212,-5.8381,-5.8523,-5.8735,-5.8876,-5.9017,-5.9298,-5.9648,-6.0108,-6.0246,-6.0728,-6.1411,-6.1681,-6.1912,-6.222,-6.242,-6.242,-6.222,-6.1816,-6.1478,-6.1098,-6.0522,-6.0177,-5.975,-5.8689,-5.7561,-5.6657,-5.5752,-5.5099,-5.5099,-5.5099,-5.5099,-5.5099,-5.5099,-5.5125,-5.5203,-5.6249,-5.685,-5.6928,-5.7974,-5.847,-5.8523,-5.8523,-5.8523,-5.8523,-5.8523,-5.8523,-5.8523,-5.8523,-5.8523,-5.8523,-5.8523,-5.8523,-5.8523,-5.8523,-5.8523,-5.8523,-5.8523,-5.8836,-5.9307,-5.9882,-6.0457,-6.1058,-6.1633,-6.1996,-6.2048,-6.2048,-6.2048,-6.2048,-6.2048,-6.2048,-6.2048,-6.2048,-6.2048,-6.1973,-6.164,-6.1111,-6.045,-6.0022,-5.9642,-5.8984,-5.8378,-5.7976,-5.8051,-5.8102,-5.8327,-5.8654,-5.893,-5.9232,-5.9255,-5.9355,-5.9353,-5.912,-5.8887,-5.8575,-5.8129,-5.7369,-5.6654,-5.553,-5.4334,-5.3078,-5.1831,-5.0654,-4.9742,-4.9315,-4.9144,-4.9059,-5.9088,-5.8876,-5.8876,-5.8876,-5.8806,-5.8523,-5.8523,-5.8876,-5.8876,-5.8876,-5.8947,-5.9158,-5.9298,-5.9368,-5.9787,-6.0108,-6.0728,-6.1207,-6.1546,-6.222,-6.2554,-6.2914,-6.3178,-6.3216,-6.3282,-6.3046,-6.2781,-6.242,-6.1884,-6.1343,-6.0728,-5.9866,-5.8552,-5.7715,-5.6768,-5.5939,-5.5099,-5.5099,-5.5099,-5.5099,-5.5151,-5.5255,-5.5412,-5.5726,-5.6405,-5.7137,-5.7373,-5.7869,-5.8523,-5.8523,-5.8523,-5.8523,-5.8523,-5.8523,-5.8523,-5.8523,-5.8523,-5.8523,-5.8523,-5.8523,-5.8523,-5.8523,-5.8523,-5.8523,-5.8523,-5.8523,-5.8862,-5.9333,-5.9856,-6.0457,-6.1032,-6.1607,-6.1996,-6.2048,-6.2048,-6.2048,-6.2048,-6.2048,-6.1947,-6.1947,-6.1868,-6.1894,-6.1842,-6.1659,-6.1252,-6.0516,-5.9856,-5.9406,-5.9005,-5.8326,-5.7774,-5.7698,-5.7624,-5.775,-5.8102,-5.8529,-5.8855,-5.9182,-5.9332,-5.9483,-5.9405,-5.9198,-5.8887,-5.8599,-5.7947,-5.7052,-5.5611,-5.4311,-5.3078,-5.1998,-5.0823,-5.0082,-4.9401,-4.923,-4.9144,-5.9648,-5.9578,-5.9578,-5.9578,-5.9578,-5.9298,-5.9368,-5.9578,-5.9578,-5.9578,-5.9578,-5.9578,-5.9718,-5.9857,-6.0384,-6.0865,-6.1138,-6.1951,-6.2554,-6.3018,-6.3479,-6.39,-6.4224,-6.4224,-6.426,-6.416,-6.39,-6.3348,-6.2886,-6.1923,-6.1138,-6.0181,-5.8929,-5.8054,-5.7093,-5.6179,-5.5348,-5.5151,-5.5229,-5.5255,-5.536,-5.57,-5.5909,-5.6275,-5.6902,-5.7425,-5.7712,-5.8131,-5.8444,-5.8523,-5.8523,-5.8523,-5.8523,-5.8523,-5.8523,-5.8523,-5.8523,-5.8523,-5.8523,-5.8523,-5.8523,-5.8523,-5.8523,-5.8523,-5.8523,-5.8523,-5.8758,-5.9228,-5.9777,-6.0378,-6.098,-6.1476,-6.2048,-6.2048,-6.2048,-6.2048,-6.2048,-6.1947,-6.1894,-6.1816,-6.1685,-6.1607,-6.1476,-6.1319,-6.0906,-6.0341,-5.9631,-5.9148,-5.8679,-5.8111,-5.7512,-5.721,-5.719,-5.7121,-5.7474,-5.8127,-5.8579,-5.893,-5.9332,-5.9508,-5.9483,-5.9405,-5.912,-5.8809,-5.8443,-5.7394,-5.5772,-5.4393,-5.3101,-5.1998,-5.116,-5.0252,-4.9572,-4.923,-4.9059,-5.983,-5.9578,-5.9578,-5.9787,-6.0039,-6.048,-6.0273,-5.9648,-5.9578,-5.9578,-5.9648,-6.0177,-6.0384,-6.0453,-6.1138,-6.1721,-6.2287,-6.2886,-6.3413,-6.4001,-6.4518,-6.4967,-6.5158,-6.5285,-6.5314,-6.5094,-6.4711,-6.4196,-6.3451,-6.2526,-6.1451,-6.0483,-5.9502,-5.8529,-5.7524,-5.6566,-5.589,-5.5375,-5.5465,-5.5595,-5.583,-5.6249,-5.6458,-5.6824,-5.7294,-5.7756,-5.7869,-5.8235,-5.847,-5.8523,-5.8523,-5.8523,-5.8523,-5.8523,-5.8523,-5.8523,-5.8523,-5.8523,-5.8523,-5.8523,-5.8523,-5.8523,-5.8523,-5.8523,-5.8523,-5.8549,-5.8627,-5.9045,-5.962,-6.0222,-6.0744,-6.1241,-6.1738,-6.2022,-6.1921,-6.1816,-6.179,-6.1685,-6.1607,-6.1346,-6.1215,-6.1032,-6.0927,-6.0718,-6.0352,-5.996,-5.9496,-5.8915,-5.8491,-5.7909,-5.7568,-5.7265,-5.7073,-5.7111,-5.732,-5.7874,-5.8278,-5.8679,-5.9056,-5.9408,-5.9483,-5.9431,-5.9276,-5.8887,-5.8261,-5.7235,-5.5852,-5.4556,-5.3266,-5.2415,-5.158,-5.0654,-4.9827,-4.9401,-4.9144,-6.0591,-6.0453,-6.0453,-6.0728,-6.107,-6.1574,-6.137,-6.0934,-6.0591,-6.0453,-6.0522,-6.1138,-6.1343,-6.1478,-6.2153,-6.2753,-6.3282,-6.3871,-6.4454,-6.5094,-6.5664,-6.604,-6.6228,-6.629,-6.6228,-6.5978,-6.5664,-6.5158,-6.4167,-6.299,-6.1856,-6.1152,-6.0226,-5.9114,-5.8144,-5.7527,-5.6833,-5.6194,-5.5861,-5.6013,-5.6405,-5.6824,-5.7059,-5.7242,-5.7712,-5.7921,-5.8,-5.8392,-5.847,-5.8523,-5.8523,-5.8523,-5.8523,-5.8523,-5.8523,-5.8523,-5.8523,-5.8523,-5.8523,-5.8523,-5.8523,-5.8523,-5.8523,-5.8523,-5.8523,-5.8523,-5.8549,-5.8732,-5.9385,-6.0013,-6.0509,-6.1006,-6.1476,-6.2022,-6.179,-6.1633,-6.1502,-6.1346,-6.111,-6.0797,-6.0588,-6.0405,-6.0222,-6.0013,-5.9803,-5.9542,-5.9255,-5.8817,-5.8447,-5.8037,-5.7796,-5.7621,-5.7359,-5.7197,-5.7509,-5.7767,-5.8125,-5.8479,-5.8755,-5.9133,-5.9332,-5.9431,-5.9276,-5.8628,-5.7922,-5.6893,-5.5933,-5.4661,-5.3513,-5.2747,-5.1831,-5.0823,-4.9976,-4.9486,-4.923,-6.1574,-6.1816,-6.1923,-6.2086,-6.2515,-6.2582,-6.2781,-6.3018,-6.2392,-6.1991,-6.1923,-6.2287,-6.2487,-6.262,-6.3216,-6.3712,-6.426,-6.4775,-6.5412,-6.6103,-6.6476,-6.6937,-6.7182,-6.7243,-6.706,-6.6937,-6.6568,-6.579,-6.4839,-6.3712,-6.2725,-6.1856,-6.122,-6.0131,-5.8846,-5.871,-5.805,-5.7044,-5.6667,-5.6578,-5.6928,-5.7373,-5.7739,-5.7817,-5.8131,-5.847,-5.847,-5.8523,-5.8523,-5.8523,-5.8523,-5.8523,-5.8523,-5.8523,-5.8523,-5.8523,-5.8523,-5.8523,-5.8523,-5.8523,-5.8523,-5.8523,-5.8523,-5.8523,-5.8523,-5.8523,-5.8523,-5.8627,-5.9228,-5.962,-6.0091,-6.0561,-6.1032,-6.1241,-6.1189,-6.1084,-6.098,-6.0744,-6.0352,-6.0065,-5.9856,-5.9699,-5.962,-5.9437,-5.9307,-5.9124,-5.8967,-5.8627,-5.8407,-5.8141,-5.7999,-5.7927,-5.7667,-5.7503,-5.7563,-5.7827,-5.7941,-5.8299,-5.8631,-5.8958,-5.9336,-5.9307,-5.9198,-5.8653,-5.8104,-5.7132,-5.6094,-5.4963,-5.3925,-5.3018,-5.2081,-5.0886,-5.0146,-4.9657,-4.9315,-6.1884,-6.2315,-6.282,-6.3188,-6.361,-6.39,-6.416,-6.4454,-6.4325,-6.3647,-6.2858,-6.3254,-6.3516,-6.3712,-6.4325,-6.4775,-6.5285,-6.579,-6.6382,-6.6846,-6.7304,-6.7608,-6.785,-6.785,-6.7789,-6.7548,-6.7121,-6.6257,-6.5285,-6.4361,-6.3582,-6.2659,-6.2058,-6.1079,-5.9656,-5.9657,-5.9102,-5.813,-5.7826,-5.7535,-5.7616,-5.8018,-5.834,-5.8314,-5.8523,-5.8523,-5.8523,-5.8523,-5.8523,-5.8523,-5.8523,-5.8523,-5.8523,-5.8523,-5.8523,-5.8523,-5.8523,-5.8523,-5.8523,-5.8523,-5.8523,-5.8523,-5.8523,-5.8523,-5.8523,-5.8523,-5.8575,-5.8732,-5.8941,-5.9281,-5.9673,-6.0143,-6.0509,-6.0561,-6.0535,-6.0483,-6.0405,-6.0013,-5.9594,-5.9385,-5.9176,-5.9072,-5.9019,-5.8915,-5.8758,-5.8679,-5.8653,-5.8523,-5.8523,-5.8381,-5.831,-5.8212,-5.7999,-5.7836,-5.7868,-5.7832,-5.8075,-5.8315,-5.8652,-5.9034,-5.9313,-5.9437,-5.9431,-5.8965,-5.834,-5.7369,-5.6414,-5.5553,-5.4498,-5.3326,-5.2248,-5.116,-5.04,-4.9891,-4.9486,-6.262,-6.3178,-6.3704,-6.4196,-6.4647,-6.5031,-6.5348,-6.5694,-6.5819,-6.5475,-6.4746,-6.4682,-6.4682,-6.4874,-6.5412,-6.5945,-6.6382,-6.6723,-6.7213,-6.7699,-6.803,-6.8179,-6.8298,-6.848,-6.8238,-6.8059,-6.7335,-6.6476,-6.579,-6.4938,-6.4167,-6.3516,-6.2962,-6.2008,-6.0776,-6.0496,-6.0077,-5.9222,-5.912,-5.8881,-5.849,-5.8596,-5.8523,-5.8523,-5.8523,-5.8523,-5.8523,-5.8523,-5.8523,-5.8523,-5.8523,-5.8523,-5.8523,-5.8523,-5.8523,-5.8523,-5.8523,-5.8523,-5.8523,-5.8523,-5.8523,-5.8523,-5.8523,-5.8523,-5.8523,-5.8523,-5.8523,-5.8627,-5.8653,-5.8967,-5.9359,-5.9777,-6.0117,-6.0248,-5.9986,-5.9777,-5.9542,-5.9176,-5.8993,-5.8941,-5.8784,-5.8758,-5.8732,-5.8732,-5.8601,-5.8601,-5.8523,-5.8523,-5.8523,-5.8523,-5.8523,-5.8452,-5.8212,-5.8141,-5.8219,-5.816,-5.813,-5.8401,-5.8741,-5.8954,-5.9211,-5.9591,-5.9637,-5.912,-5.8496,-5.7631,-5.6678,-5.5795,-5.4579,-5.3326,-5.2415,-5.1496,-5.0738,-5.0061,-4.9657,-6.3545,-6.4224,-6.4612,-6.5124,-6.5664,-6.604,-6.6352,-6.6691,-6.6999,-6.7181,-6.7025,-6.6343,-6.6129,-6.6228,-6.6538,-6.709,-6.7547,-6.7819,-6.8152,-6.8635,-6.8814,-6.9117,-6.9265,-6.923,-6.8993,-6.8452,-6.7729,-6.7334,-6.6846,-6.5978,-6.5129,-6.4525,-6.3663,-6.2765,-6.2012,-6.1469,-6.1096,-6.0498,-6.0171,-6.0027,-5.9552,-5.9017,-5.8806,-5.8664,-5.8567,-5.8523,-5.8523,-5.8523,-5.8523,-5.8523,-5.8523,-5.8523,-5.8523,-5.8523,-5.8523,-5.8523,-5.8523,-5.8523,-5.8523,-5.8523,-5.8523,-5.8523,-5.8523,-5.8523,-5.8523,-5.8523,-5.8523,-5.8523,-5.8549,-5.8679,-5.9072,-5.9307,-5.962,-5.9777,-5.9411,-5.915,-5.8836,-5.8575,-5.8575,-5.8575,-5.8549,-5.8523,-5.8523,-5.8523,-5.8523,-5.8523,-5.8523,-5.8523,-5.8523,-5.8523,-5.8523,-5.8523,-5.8381,-5.8381,-5.8452,-5.8414,-5.8238,-5.8425,-5.8671,-5.8894,-5.9158,-5.9465,-5.9564,-5.9328,-5.8628,-5.7765,-5.6813,-5.5956,-5.4638,-5.3431,-5.2747,-5.1998,-5.0738,-5.0146,-4.9657,-6.4612,-6.5285,-6.5882,-6.6382,-6.6723,-6.703,-6.7426,-6.7669,-6.7789,-6.8062,-6.8394,-6.8394,-6.8029,-6.7243,-6.7608,-6.8092,-6.8759,-6.8941,-6.9489,-7.0007,-7.0003,-7.0307,-7.0336,-6.9967,-6.9879,-6.9212,-6.8393,-6.791,-6.7457,-6.6846,-6.629,-6.5635,-6.4967,-6.4174,-6.3431,-6.2896,-6.227,-6.1623,-6.0947,-6.066,-6.0384,-5.983,-5.9298,-5.9088,-5.8947,-5.8806,-5.8594,-5.8523,-5.8523,-5.8523,-5.8523,-5.8523,-5.8523,-5.8523,-5.8523,-5.8523,-5.8523,-5.8523,-5.8523,-5.8523,-5.8523,-5.8523,-5.8523,-5.8523,-5.8523,-5.8523,-5.8523,-5.8523,-5.8523,-5.8523,-5.8784,-5.8784,-5.8967,-5.8967,-5.8758,-5.8732,-5.8601,-5.8549,-5.8549,-5.8523,-5.8523,-5.8523,-5.8523,-5.8523,-5.8523,-5.8523,-5.8523,-5.8523,-5.8523,-5.8523,-5.8523,-5.8523,-5.8523,-5.8523,-5.8523,-5.8523,-5.8466,-5.8551,-5.8719,-5.8929,-5.9176,-5.9311,-5.9364,-5.9133,-5.8635,-5.7873,-5.6949,-5.5999,-5.48,-5.3738,-5.3326,-5.2498,-5.116,-5.0231,-4.9806]},{"header":{"parameterUnit":"m.s-1","parameterCategory":1,"la1":31.0,"la2":29.5877,"lo1":-88.7671,"lo2":-86.6584,"dx":0.0162,"dy":0.0185,"nx":115,"ny":88,"refTime":"2022-11-25T06:00:00:Z","depth":0,"parameterNumber":3,"parameterNumberName":"V-component_of_WINDS"},"data":[0.0,0.0,0.0,0.0,0.0,0.0,0.0,0.0,0.0,0.0,0.0,0.0,0.0,0.0,0.0,0.0,0.0,0.0,0.0,0.0,0.0,0.0,0.0,0.0,0.0,0.0,0.0,0.0,0.0,0.0,0.0,0.0,0.0,0.0,0.0,0.0,0.0,0.0,0.0,0.0,0.0,0.0,0.0,0.0,0.0,0.0,0.0,0.0,0.0,0.0,0.0,0.0,0.0,0.0,0.0,0.0,0.0,0.0,0.0,0.0,0.0,0.0,0.0,0.0,0.0,0.0,0.0,0.0,0.0,0.0,0.0,0.0,0.0,0.0,0.0,0.0,0.0,0.0,0.0,0.0,0.0,0.0,0.0,0.0,0.0,0.0,0.0,0.0,0.0,0.0,0.0,0.0,0.0,0.0,0.0,0.0,0.0,0.0,0.0,0.0,0.0,0.0,0.0,0.0,0.0,0.0,0.0,0.0,0.0,0.0,0.0,0.0,0.0,0.0,0.0,0.0,0.0,0.0,0.0,0.0,0.0,0.0,0.0,0.0,0.0,0.0,0.0,0.0,0.0,0.0,0.0,0.0,0.0,0.0,0.0,0.0,0.0,0.0,0.0,0.0,0.0,0.0,0.0,0.0,0.0,0.0,0.0,0.0,0.0,0.0,0.0,0.0,0.0,0.0,0.0,0.0,0.0,0.0,0.0,0.0,0.0,0.0,0.0,0.0,0.0,0.0,0.0,0.0,0.0,0.0,0.0,0.0,0.0,0.0,0.0,0.0,0.0,0.0,0.0,0.0,0.0,0.0,0.0,0.0,0.0,0.0,0.0,0.0,0.0,0.0,0.0,0.0,0.0,0.0,0.0,0.0,0.0,0.0,0.0,0.0,0.0,0.0,0.0,0.0,0.0,0.0,0.0,0.0,0.0,0.0,0.0,0.0,0.0,0.0,0.0,0.0,0.0,0.0,0.0,0.0,0.0,0.0,0.0,0.0,0.0,0.0,0.0,0.0,0.0,0.0,0.0,0.0,0.0,0.0,0.0,0.0,0.0,0.0,0.0,0.0,0.0,0.0,0.0,0.0,0.0,0.0,0.0,0.0,0.0,0.0,0.0,0.0,0.0,0.0,0.0,0.0,0.0,0.0,0.0,0.0,0.0,0.0,0.0,0.0,0.0,0.0,0.0,0.0,0.0,0.0,0.0,0.0,0.0,0.0,0.0,0.0,0.0,0.0,0.0,0.0,0.0,0.0,0.0,0.0,0.0,0.0,0.0,0.0,0.0,0.0,0.0,0.0,0.0,0.0,0.0,0.0,0.0,0.0,0.0,0.0,0.0,0.0,0.0,0.0,0.0,0.0,0.0,0.0,0.0,0.0,0.0,0.0,0.0,0.0,0.0,0.0,0.0,0.0,0.0,0.0,0.0,0.0,0.0,0.0,0.0,0.0,0.0,0.0,0.0,0.0,0.0,0.0,0.0,0.0,0.0,0.0,0.0,0.0,0.0,0.0,0.0,0.0,0.0,0.0,0.0,0.0,0.0,0.0,0.0,0.0,0.0,0.0,0.0,0.0,0.0,0.0,0.0,0.0,0.0,0.0,0.0,0.0,0.0,0.0,0.0,0.0,0.0,0.0,0.0,0.0,0.0,0.0,0.0,0.0,0.0,0.0,0.0,0.0,0.0,0.0,0.0,0.0,0.0,0.0,0.0,0.0,0.0,0.0,0.0,0.0,0.0,0.0,0.0,0.0,0.0,0.0,0.0,0.0,0.0,0.0,0.0,0.0,0.0,0.0,0.0,0.0,0.0,0.0,0.0,0.0,0.0,0.0,0.0,0.0,0.0,0.0,0.0,0.0,0.0,0.0,0.0,0.0,0.0,0.0,0.0,0.0,0.0,0.0,0.0,0.0,0.0,0.0,0.0,0.0,0.0,0.0,0.0,0.0,0.0,0.0,0.0,0.0,0.0,0.0,0.0,0.0,0.0,0.0,0.0,0.0,0.0,0.0,0.0,0.0,0.0,0.0,0.0,0.0,0.0,0.0,0.0,0.0,0.0,0.0,0.0,0.0,0.0,0.0,0.0,0.0,0.0,0.0,0.0,0.0,0.0,0.0,0.0,0.0,0.0,0.0,0.0,0.0,0.0,0.0,0.0,0.0,0.0,0.0,0.0,0.0,0.0,0.0,0.0,0.0,0.0,0.0,0.0,0.0,0.0,0.0,0.0,0.0,0.0,0.0,0.0,0.0,0.0,0.0,0.0,0.0,0.0,0.0,0.0,0.0,0.0,0.0,0.0,0.0,0.0,0.0,0.0,0.0,0.0,0.0,0.0,0.0,0.0,0.0,0.0,0.0,0.0,0.0,0.0,0.0,0.0,0.0,0.0,0.0,0.0,0.0,0.0,0.0,0.0,0.0,0.0,0.0,0.0,0.0,0.0,0.0,0.0,0.0,0.0,0.0,0.0,0.0,0.0,0.0,0.0,0.0,0.0,0.0,0.0,0.0,0.0,0.0,0.0,0.0,0.0,0.0,0.0,0.0,0.0,0.0,0.0,0.0,0.0,0.0,0.0,0.0,0.0,0.0,0.0,0.0,0.0,0.0,0.0,0.0,0.0,0.0,0.0,0.0,0.0,0.0,0.0,0.0,0.0,0.0,0.0,0.0,0.0,0.0,0.0,0.0,0.0,0.0,0.0,0.0,0.0,0.0,0.0,0.0,0.0,0.0,0.0,0.0,0.0,0.0,0.0,0.0,0.0,0.0,0.0,0.0,0.0,0.0,0.0,0.0,0.0,0.0,0.0,0.0,0.0,0.0,0.0,0.0,0.0,0.0,0.0,0.0,0.0,0.0,0.0,0.0,0.0,0.0,0.0,0.0,0.0,0.0,0.0,0.0,0.0,0.0,0.0,0.0,0.0,0.0,0.0,0.0,0.0,0.0,0.0,0.0,0.0,0.0,0.0,0.0,0.0,0.0,0.0,0.0,0.0,0.0,0.0,0.0,0.0,0.0,0.0,0.0,0.0,0.0,0.0,0.0,0.0,0.0,0.0,0.0,0.0,0.0,0.0,0.0,0.0,0.0,0.0,0.0,0.0,0.0,0.0,0.0,0.0,0.0,0.0,0.0,0.0,0.0,0.0,0.0,0.0,0.0,0.0,0.0,0.0,0.0,0.0,0.0,0.0,0.0,0.0,0.0,0.0,0.0,0.0,0.0,0.0,0.0,0.0,0.0,0.0,0.0,0.0,0.0,0.0,0.0,0.0,0.0,0.0,0.0,0.0,0.0,0.0,0.0,0.0,0.0,0.0,0.0,0.0,0.0,0.0,0.0,0.0,0.0,0.0,0.0,0.0,0.0,0.0,0.0,0.0,0.0,0.0,0.0,0.0,0.0,0.0,0.0,0.0,0.0,0.0,0.0,0.0,0.0,0.0,0.0,0.0,0.0,0.0,0.0,0.0,0.0,0.0,0.0,0.0,0.0,0.0,0.0,0.0,0.0,0.0,0.0,0.0,0.0,0.0,0.0,0.0,0.0,0.0,0.0,0.0,0.0,0.0,0.0,0.0,0.0,0.0,0.0,0.0,0.0,0.0,0.0,0.0,0.0,0.0,0.0,0.0,0.0,0.0,0.0,0.0,0.0,0.0,0.0,0.0,0.0,0.0,0.0,0.0,0.0,0.0,0.0,0.0,0.0,0.0,0.0,0.0,0.0,0.0,0.0,0.0,0.0,0.0,0.0,0.0,0.0,0.0,0.0,0.0,0.0,0.0,0.0,0.0,0.0,0.0,0.0,0.0,0.0,0.0,0.0,0.0,0.0,0.0,0.0,0.0,0.0,0.0,0.0,0.0,0.0,0.0,0.0,0.0,0.0,0.0,0.0,0.0,0.0,0.0,0.0,0.0,0.0,0.0,0.0,0.0,0.0,0.0,0.0,0.0,0.0,0.0,0.0,0.0,0.0,0.0,0.0,0.0,0.0,0.0,0.0,0.0,0.0,0.0,0.0,0.0,0.0,0.0,0.0,0.0,0.0,0.0,0.0,0.0,0.0,0.0,0.0,0.0,0.0,0.0,0.0,0.0,0.0,0.0,0.0,0.0,0.0,0.0,0.0,0.0,0.0,0.0,0.0,0.0,0.0,0.0,0.0,0.0,0.0,0.0,0.0,0.0,0.0,0.0,0.0,0.0,0.0,0.0,0.0,0.0,0.0,0.0,0.0,0.0,0.0,0.0,0.0,0.0,0.0,0.0,0.0,0.0,0.0,0.0,0.0,3.6049,0.0,0.0,0.0,3.3583,0.0,0.0,0.0,0.0,0.0,0.0,0.0,0.0,0.0,0.0,0.0,0.0,0.0,0.0,0.0,0.0,0.0,0.0,0.0,0.0,0.0,0.0,0.0,0.0,0.0,0.0,0.0,0.0,0.0,0.0,0.0,0.0,0.0,0.0,0.0,0.0,0.0,0.0,0.0,0.0,0.0,0.0,0.0,0.0,0.0,0.0,0.0,0.0,0.0,0.0,0.0,0.0,0.0,0.0,0.0,0.0,0.0,0.0,0.0,0.0,0.0,0.0,0.0,0.0,0.0,0.0,0.0,0.0,0.0,0.0,0.0,0.0,0.0,0.0,0.0,0.0,0.0,0.0,0.0,0.0,0.0,0.0,0.0,0.0,0.0,0.0,0.0,0.0,0.0,0.0,0.0,0.0,0.0,0.0,0.0,0.0,0.0,0.0,0.0,0.0,0.0,0.0,0.0,0.0,0.0,0.0,0.0,0.0,0.0,0.0,3.6487,3.5908,3.5878,3.5402,3.4391,0.0,0.0,0.0,0.0,0.0,0.0,0.0,0.0,0.0,0.0,0.0,0.0,0.0,0.0,0.0,0.0,0.0,0.0,0.0,0.0,0.0,0.0,0.0,0.0,0.0,0.0,0.0,0.0,0.0,0.0,0.0,0.0,0.0,0.0,0.0,0.0,0.0,0.0,0.0,0.0,0.0,0.0,0.0,0.0,0.0,0.0,0.0,0.0,0.0,0.0,0.0,0.0,0.0,0.0,0.0,0.0,0.0,0.0,0.0,0.0,0.0,0.0,0.0,0.0,0.0,0.0,0.0,0.0,0.0,0.0,0.0,0.0,0.0,0.0,0.0,0.0,0.0,0.0,0.0,0.0,0.0,0.0,0.0,0.0,0.0,0.0,0.0,0.0,0.0,0.0,0.0,0.0,0.0,0.0,0.0,0.0,0.0,0.0,0.0,0.0,0.0,0.0,0.0,0.0,0.0,0.0,0.0,0.0,0.0,0.0,0.0,0.0,3.6408,3.5748,3.4555,0.0,0.0,0.0,0.0,0.0,0.0,0.0,0.0,0.0,0.0,0.0,0.0,0.0,0.0,0.0,0.0,0.0,0.0,0.0,0.0,0.0,0.0,0.0,0.0,0.0,0.0,0.0,0.0,0.0,0.0,0.0,0.0,0.0,0.0,0.0,0.0,0.0,0.0,0.0,0.0,0.0,0.0,0.0,0.0,0.0,0.0,0.0,0.0,0.0,0.0,0.0,0.0,0.0,0.0,0.0,0.0,0.0,0.0,0.0,0.0,0.0,0.0,0.0,0.0,0.0,0.0,0.0,0.0,0.0,0.0,0.0,0.0,0.0,0.0,0.0,0.0,0.0,0.0,0.0,0.0,0.0,0.0,0.0,0.0,0.0,0.0,0.0,0.0,0.0,0.0,0.0,0.0,0.0,0.0,0.0,0.0,0.0,0.0,0.0,0.0,0.0,0.0,0.0,0.0,0.0,0.0,0.0,0.0,0.0,0.0,3.9007,3.8728,3.7952,0.0,3.3685,0.0,0.0,0.0,0.0,0.0,0.0,0.0,0.0,0.0,0.0,0.0,0.0,0.0,0.0,0.0,0.0,0.0,0.0,0.0,0.0,0.0,0.0,0.0,0.0,0.0,0.0,0.0,0.0,0.0,0.0,0.0,0.0,0.0,0.0,0.0,0.0,0.0,0.0,0.0,0.0,0.0,0.0,0.0,0.0,0.0,0.0,0.0,0.0,0.0,0.0,0.0,0.0,0.0,0.0,0.0,0.0,0.0,0.0,0.0,0.0,0.0,0.0,0.0,0.0,0.0,0.0,0.0,0.0,0.0,0.0,0.0,0.0,0.0,0.0,0.0,0.0,0.0,0.0,0.0,0.0,0.0,0.0,0.0,0.0,0.0,0.0,0.0,0.0,0.0,0.0,0.0,0.0,0.0,0.0,0.0,0.0,0.0,0.0,0.0,0.0,0.0,0.0,0.0,0.0,0.0,0.0,0.0,0.0,0.0,0.0,3.9536,3.9013,3.7913,3.6146,0.0,0.0,0.0,0.0,0.0,0.0,0.0,0.0,0.0,0.0,0.0,0.0,0.0,0.0,0.0,0.0,0.0,0.0,0.0,0.0,0.0,0.0,0.0,0.0,0.0,0.0,0.0,0.0,0.0,0.0,0.0,0.0,0.0,0.0,0.0,0.0,0.0,0.0,0.0,0.0,0.0,0.0,0.0,0.0,0.0,0.0,0.0,0.0,0.0,0.0,0.0,0.0,0.0,0.0,0.0,0.0,0.0,0.0,0.0,0.0,0.0,0.0,0.0,0.0,0.0,0.0,0.0,0.0,0.0,0.0,0.0,0.0,0.0,0.0,0.0,0.0,0.0,0.0,0.0,0.0,0.0,0.0,0.0,0.0,0.0,0.0,0.0,0.0,0.0,0.0,0.0,0.0,0.0,0.0,0.0,0.0,0.0,0.0,0.0,0.0,0.0,0.0,0.0,0.0,0.0,0.0,0.0,0.0,0.0,0.0,4.0257,3.9799,3.8977,3.803,3.6439,3.418,0.0,0.0,0.0,0.0,0.0,0.0,0.0,0.0,0.0,0.0,0.0,0.0,0.0,0.0,0.0,0.0,0.0,0.0,0.0,0.0,0.0,0.0,0.0,0.0,0.0,0.0,0.0,0.0,0.0,0.0,0.0,0.0,0.0,0.0,0.0,0.0,0.0,0.0,0.0,0.0,0.0,0.0,0.0,0.0,0.0,0.0,0.0,0.0,0.0,0.0,0.0,0.0,0.0,0.0,0.0,0.0,0.0,0.0,0.0,0.0,0.0,0.0,0.0,0.0,0.0,0.0,0.0,0.0,0.0,0.0,0.0,0.0,0.0,0.0,0.0,0.0,0.0,0.0,0.0,0.0,0.0,0.0,0.0,0.0,0.0,0.0,0.0,0.0,0.0,0.0,0.0,0.0,0.0,0.0,0.0,0.0,0.0,0.0,0.0,0.0,0.0,0.0,0.0,0.0,0.0,0.0,0.0,0.0,4.078,4.078,4.0163,3.8893,3.8769,3.7342,0.0,0.0,0.0,0.0,0.0,0.0,0.0,0.0,0.0,0.0,0.0,0.0,0.0,0.0,0.0,0.0,0.0,0.0,0.0,0.0,0.0,0.0,0.0,0.0,0.0,0.0,0.0,0.0,0.0,0.0,0.0,0.0,0.0,0.0,0.0,0.0,0.0,0.0,0.0,0.0,0.0,0.0,0.0,0.0,0.0,0.0,0.0,0.0,0.0,0.0,0.0,0.0,0.0,0.0,0.0,0.0,0.0,0.0,0.0,0.0,0.0,0.0,0.0,0.0,0.0,0.0,0.0,0.0,0.0,0.0,0.0,0.0,0.0,0.0,0.0,0.0,0.0,0.0,0.0,0.0,0.0,0.0,0.0,0.0,0.0,0.0,0.0,0.0,0.0,0.0,0.0,0.0,0.0,0.0,0.0,0.0,0.0,0.0,0.0,0.0,0.0,0.0,0.0,0.0,0.0,0.0,0.0,0.0,0.0,4.1323,4.1323,4.0884,4.0005,3.9406,3.8216,0.0,0.0,0.0,0.0,0.0,0.0,0.0,0.0,0.0,0.0,0.0,0.0,0.0,0.0,0.0,0.0,0.0,0.0,0.0,0.0,0.0,0.0,0.0,0.0,0.0,0.0,0.0,0.0,0.0,0.0,0.0,0.0,0.0,0.0,0.0,0.0,0.0,0.0,0.0,0.0,0.0,0.0,0.0,0.0,0.0,0.0,0.0,0.0,0.0,0.0,0.0,0.0,0.0,0.0,0.0,0.0,0.0,0.0,0.0,0.0,0.0,0.0,0.0,0.0,0.0,0.0,0.0,0.0,0.0,0.0,0.0,0.0,0.0,0.0,0.0,0.0,0.0,0.0,0.0,0.0,0.0,0.0,0.0,0.0,0.0,0.0,0.0,0.0,0.0,0.0,0.0,0.0,0.0,0.0,0.0,0.0,0.0,0.0,0.0,0.0,0.0,0.0,0.0,0.0,0.0,0.0,0.0,0.0,0.0,4.1753,4.1753,4.1436,4.0769,3.9977,3.8901,0.0,0.0,0.0,0.0,0.0,0.0,0.0,0.0,0.0,0.0,0.0,0.0,0.0,0.0,0.0,0.0,0.0,0.0,0.0,0.0,0.0,0.0,0.0,0.0,0.0,0.0,0.0,0.0,0.0,0.0,0.0,0.0,0.0,0.0,0.0,0.0,0.0,0.0,0.0,0.0,0.0,0.0,0.0,0.0,0.0,0.0,0.0,0.0,0.0,0.0,0.0,0.0,0.0,0.0,0.0,0.0,0.0,0.0,0.0,0.0,0.0,0.0,0.0,0.0,0.0,0.0,0.0,0.0,0.0,0.0,0.0,0.0,0.0,0.0,0.0,0.0,0.0,0.0,0.0,0.0,0.0,0.0,0.0,0.0,0.0,0.0,0.0,0.0,0.0,0.0,0.0,0.0,0.0,0.0,0.0,0.0,0.0,0.0,0.0,0.0,0.0,0.0,0.0,0.0,0.0,0.0,0.0,0.0,4.2109,4.2109,4.2109,4.1821,4.1148,4.0412,3.9358,0.0,0.0,0.0,0.0,0.0,0.0,0.0,0.0,0.0,0.0,0.0,0.0,0.0,0.0,0.0,0.0,0.0,0.0,0.0,0.0,0.0,0.0,0.0,0.0,0.0,0.0,0.0,0.0,0.0,0.0,0.0,0.0,0.0,0.0,0.0,0.0,0.0,0.0,0.0,0.0,0.0,0.0,0.0,0.0,0.0,0.0,0.0,0.0,0.0,0.0,0.0,0.0,0.0,0.0,0.0,0.0,0.0,0.0,0.0,0.0,0.0,0.0,0.0,0.0,0.0,0.0,0.0,0.0,0.0,0.0,0.0,0.0,0.0,0.0,0.0,0.0,0.0,0.0,0.0,0.0,0.0,0.0,0.0,0.0,0.0,0.0,0.0,0.0,0.0,0.0,0.0,0.0,0.0,0.0,0.0,0.0,0.0,0.0,0.0,0.0,0.0,0.0,0.0,0.0,0.0,0.0,0.0,0.0,0.0,4.2805,4.2772,4.2707,4.2447,4.1098,4.0167,0.0,0.0,0.0,0.0,0.0,0.0,0.0,0.0,0.0,0.0,0.0,0.0,0.0,0.0,0.0,0.0,0.0,0.0,0.0,0.0,0.0,0.0,0.0,0.0,0.0,0.0,0.0,0.0,0.0,0.0,0.0,0.0,0.0,0.0,0.0,0.0,0.0,0.0,0.0,0.0,0.0,0.0,0.0,0.0,0.0,0.0,0.0,0.0,0.0,0.0,0.0,0.0,0.0,0.0,0.0,0.0,0.0,0.0,0.0,0.0,0.0,0.0,0.0,0.0,0.0,0.0,0.0,0.0,0.0,0.0,0.0,0.0,0.0,0.0,0.0,0.0,0.0,0.0,0.0,0.0,0.0,0.0,0.0,0.0,0.0,0.0,0.0,0.0,0.0,0.0,0.0,0.0,0.0,0.0,0.0,0.0,0.0,0.0,0.0,0.0,0.0,0.0,0.0,0.0,0.0,0.0,0.0,0.0,0.0,4.3419,4.3265,4.3204,4.3204,4.1877,4.101,4.0569,0.0,0.0,0.0,0.0,0.0,0.0,0.0,0.0,0.0,0.0,0.0,0.0,0.0,0.0,0.0,0.0,0.0,0.0,0.0,0.0,0.0,0.0,0.0,0.0,0.0,0.0,0.0,0.0,0.0,0.0,0.0,0.0,0.0,0.0,0.0,0.0,0.0,0.0,0.0,0.0,0.0,0.0,0.0,0.0,0.0,0.0,0.0,0.0,0.0,0.0,0.0,0.0,0.0,0.0,0.0,0.0,0.0,0.0,0.0,0.0,0.0,0.0,0.0,0.0,0.0,0.0,0.0,0.0,0.0,0.0,0.0,0.0,0.0,0.0,0.0,0.0,0.0,0.0,0.0,0.0,0.0,0.0,0.0,0.0,0.0,0.0,0.0,0.0,0.0,0.0,0.0,0.0,0.0,0.0,0.0,0.0,0.0,0.0,0.0,0.0,0.0,0.0,0.0,0.0,0.0,0.0,0.0,0.0,4.3997,4.3698,4.3482,4.3416,4.2693,4.1855,0.0,0.0,0.0,0.0,0.0,0.0,0.0,0.0,0.0,0.0,0.0,0.0,0.0,0.0,0.0,0.0,0.0,0.0,0.0,0.0,0.0,0.0,0.0,0.0,0.0,0.0,0.0,0.0,0.0,0.0,0.0,0.0,0.0,0.0,0.0,0.0,0.0,0.0,0.0,0.0,0.0,0.0,0.0,0.0,0.0,0.0,0.0,0.0,0.0,0.0,0.0,0.0,0.0,0.0,0.0,0.0,0.0,0.0,0.0,0.0,0.0,0.0,0.0,0.0,0.0,0.0,0.0,0.0,0.0,0.0,0.0,0.0,0.0,0.0,0.0,0.0,0.0,0.0,0.0,0.0,0.0,0.0,0.0,0.0,0.0,0.0,0.0,0.0,0.0,0.0,0.0,0.0,0.0,0.0,0.0,0.0,0.0,0.0,0.0,0.0,0.0,0.0,0.0,0.0,0.0,0.0,0.0,0.0,0.0,4.5611,4.5169,4.4574,4.3923,4.2987,4.2257,0.0,0.0,0.0,0.0,0.0,0.0,0.0,0.0,0.0,0.0,0.0,0.0,0.0,0.0,0.0,0.0,0.0,0.0,0.0,0.0,0.0,0.0,0.0,0.0,0.0,0.0,0.0,0.0,0.0,0.0,0.0,0.0,0.0,0.0,0.0,0.0,0.0,0.0,0.0,0.0,0.0,0.0,0.0,0.0,0.0,0.0,0.0,0.0,0.0,0.0,0.0,0.0,0.0,0.0,0.0,0.0,0.0,0.0,0.0,0.0,0.0,0.0,0.0,0.0,0.0,0.0,0.0,0.0,0.0,0.0,0.0,0.0,0.0,0.0,0.0,0.0,0.0,0.0,0.0,0.0,0.0,0.0,0.0,0.0,0.0,0.0,0.0,0.0,0.0,0.0,0.0,0.0,0.0,0.0,0.0,0.0,0.0,0.0,0.0,0.0,0.0,0.0,0.0,0.0,0.0,0.0,0.0,0.0,4.5748,4.6364,4.614,4.5761,4.5327,4.4265,4.3307,0.0,0.0,0.0,0.0,0.0,0.0,0.0,0.0,0.0,0.0,0.0,0.0,0.0,0.0,0.0,0.0,0.0,0.0,0.0,0.0,0.0,0.0,0.0,0.0,0.0,0.0,0.0,0.0,0.0,0.0,0.0,0.0,0.0,0.0,0.0,0.0,0.0,0.0,0.0,0.0,0.0,0.0,0.0,0.0,0.0,0.0,0.0,0.0,0.0,0.0,0.0,0.0,0.0,0.0,0.0,0.0,0.0,0.0,0.0,0.0,0.0,0.0,0.0,0.0,0.0,0.0,0.0,0.0,0.0,0.0,0.0,0.0,0.0,0.0,0.0,0.0,0.0,0.0,0.0,0.0,0.0,0.0,0.0,0.0,0.0,0.0,0.0,0.0,0.0,0.0,0.0,0.0,0.0,0.0,0.0,0.0,0.0,0.0,0.0,0.0,0.0,0.0,0.0,0.0,0.0,0.0,0.0,0.0,4.6596,4.6881,4.6963,4.7111,4.7194,4.6123,4.4696,0.0,0.0,0.0,0.0,0.0,0.0,0.0,0.0,0.0,0.0,0.0,0.0,0.0,0.0,0.0,0.0,0.0,0.0,0.0,0.0,0.0,0.0,0.0,0.0,0.0,0.0,0.0,0.0,0.0,0.0,0.0,0.0,0.0,0.0,0.0,0.0,0.0,0.0,0.0,0.0,0.0,0.0,0.0,0.0,0.0,0.0,0.0,0.0,0.0,0.0,0.0,0.0,0.0,0.0,0.0,0.0,0.0,0.0,0.0,0.0,0.0,0.0,0.0,0.0,0.0,0.0,0.0,0.0,0.0,0.0,0.0,0.0,0.0,0.0,0.0,0.0,0.0,0.0,0.0,0.0,0.0,0.0,0.0,0.0,0.0,0.0,0.0,0.0,0.0,0.0,0.0,0.0,0.0,0.0,0.0,0.0,0.0,0.0,0.0,0.0,0.0,0.0,0.0,0.0,0.0,0.0,0.0,0.0,4.7992,4.926,4.8815,4.8606,4.8723,4.7136,4.6025,0.0,0.0,0.0,0.0,0.0,0.0,0.0,0.0,0.0,0.0,0.0,0.0,0.0,0.0,0.0,0.0,0.0,0.0,0.0,0.0,0.0,0.0,0.0,0.0,0.0,0.0,0.0,0.0,0.0,0.0,0.0,0.0,0.0,0.0,0.0,0.0,0.0,0.0,0.0,0.0,0.0,0.0,0.0,0.0,0.0,0.0,0.0,0.0,4.6895,0.0,0.0,0.0,0.0,0.0,0.0,0.0,0.0,0.0,0.0,0.0,0.0,0.0,0.0,0.0,0.0,0.0,0.0,0.0,0.0,0.0,0.0,0.0,0.0,0.0,0.0,0.0,0.0,0.0,0.0,0.0,0.0,0.0,0.0,0.0,0.0,0.0,0.0,0.0,0.0,0.0,0.0,0.0,0.0,0.0,0.0,0.0,0.0,0.0,0.0,0.0,0.0,0.0,0.0,0.0,0.0,0.0,0.0,0.0,4.9198,5.0193,5.0098,5.0127,5.0342,4.9101,4.7834,0.0,0.0,0.0,0.0,0.0,0.0,0.0,0.0,0.0,0.0,0.0,0.0,0.0,0.0,0.0,0.0,0.0,0.0,0.0,0.0,0.0,0.0,0.0,0.0,0.0,0.0,0.0,0.0,0.0,0.0,0.0,0.0,0.0,0.0,0.0,0.0,0.0,0.0,0.0,0.0,0.0,0.0,0.0,0.0,0.0,0.0,0.0,0.0,0.0,0.0,0.0,0.0,0.0,0.0,0.0,0.0,0.0,0.0,0.0,0.0,0.0,0.0,0.0,0.0,0.0,0.0,0.0,0.0,0.0,0.0,0.0,0.0,0.0,0.0,0.0,0.0,0.0,0.0,0.0,0.0,0.0,0.0,0.0,0.0,0.0,0.0,0.0,0.0,0.0,0.0,0.0,0.0,0.0,0.0,0.0,0.0,0.0,0.0,0.0,0.0,0.0,0.0,0.0,0.0,0.0,0.0,0.0,4.9607,5.0238,5.0791,5.1178,5.1547,5.1831,5.125,4.9797,4.7454,0.0,0.0,0.0,0.0,0.0,0.0,0.0,0.0,0.0,0.0,0.0,0.0,0.0,0.0,0.0,0.0,0.0,0.0,0.0,0.0,0.0,0.0,0.0,0.0,0.0,0.0,0.0,0.0,0.0,0.0,0.0,0.0,0.0,0.0,0.0,0.0,0.0,0.0,4.7374,4.7836,0.0,0.0,0.0,0.0,0.0,0.0,0.0,0.0,4.6321,0.0,0.0,0.0,0.0,0.0,0.0,0.0,0.0,0.0,0.0,0.0,0.0,0.0,0.0,0.0,0.0,0.0,0.0,0.0,0.0,0.0,0.0,0.0,0.0,0.0,0.0,0.0,0.0,0.0,0.0,0.0,0.0,0.0,0.0,0.0,0.0,0.0,0.0,0.0,0.0,0.0,0.0,0.0,0.0,0.0,0.0,0.0,0.0,0.0,0.0,0.0,0.0,0.0,0.0,0.0,0.0,5.0088,5.0255,5.0997,5.2345,5.2226,5.226,5.2616,5.2514,5.16,4.9879,0.0,0.0,0.0,0.0,0.0,0.0,0.0,0.0,0.0,0.0,0.0,0.0,0.0,0.0,0.0,0.0,0.0,0.0,0.0,0.0,0.0,0.0,0.0,0.0,0.0,0.0,0.0,0.0,0.0,0.0,0.0,0.0,0.0,0.0,0.0,0.0,0.0,0.0,0.0,4.8111,4.8371,0.0,0.0,0.0,0.0,0.0,0.0,0.0,0.0,4.7236,0.0,0.0,0.0,0.0,0.0,0.0,0.0,0.0,0.0,0.0,0.0,0.0,0.0,0.0,0.0,0.0,0.0,0.0,0.0,0.0,0.0,0.0,0.0,0.0,0.0,0.0,0.0,0.0,0.0,0.0,0.0,0.0,0.0,0.0,0.0,0.0,0.0,0.0,0.0,0.0,0.0,0.0,0.0,0.0,0.0,0.0,0.0,0.0,0.0,0.0,0.0,0.0,0.0,0.0,0.0,5.0629,5.1415,5.2369,5.3496,5.3988,5.4159,5.3982,5.3606,5.2791,0.0,0.0,0.0,0.0,0.0,0.0,0.0,0.0,0.0,0.0,0.0,0.0,0.0,0.0,0.0,0.0,0.0,0.0,0.0,0.0,0.0,0.0,0.0,0.0,0.0,0.0,0.0,0.0,0.0,0.0,0.0,0.0,0.0,0.0,0.0,0.0,0.0,0.0,0.0,0.0,4.8659,4.9044,4.8552,0.0,0.0,0.0,0.0,0.0,0.0,4.8236,4.7907,0.0,0.0,0.0,0.0,0.0,0.0,0.0,0.0,0.0,0.0,0.0,0.0,0.0,0.0,0.0,0.0,0.0,0.0,0.0,0.0,0.0,0.0,0.0,0.0,0.0,0.0,0.0,0.0,0.0,0.0,0.0,0.0,0.0,0.0,0.0,0.0,0.0,0.0,0.0,0.0,0.0,0.0,0.0,0.0,0.0,0.0,0.0,0.0,0.0,0.0,0.0,0.0,0.0,0.0,0.0,5.1408,5.2719,5.3722,5.4447,5.545,5.5724,5.5109,5.4428,5.3579,0.0,0.0,0.0,0.0,0.0,0.0,0.0,0.0,0.0,0.0,0.0,0.0,0.0,0.0,0.0,0.0,0.0,0.0,0.0,0.0,0.0,0.0,0.0,0.0,0.0,0.0,0.0,0.0,0.0,0.0,0.0,0.0,0.0,0.0,0.0,0.0,0.0,0.0,0.0,0.0,0.0,4.9854,4.9688,4.9884,0.0,0.0,0.0,0.0,4.954,4.9071,0.0,0.0,0.0,0.0,0.0,0.0,0.0,0.0,0.0,0.0,0.0,0.0,0.0,0.0,0.0,0.0,0.0,0.0,0.0,0.0,0.0,0.0,0.0,0.0,0.0,0.0,0.0,0.0,0.0,0.0,0.0,0.0,0.0,0.0,0.0,0.0,0.0,0.0,0.0,0.0,0.0,0.0,0.0,0.0,0.0,0.0,0.0,0.0,0.0,0.0,0.0,0.0,0.0,0.0,0.0,0.0,5.3229,5.4005,5.4608,5.5168,5.5723,5.5724,5.5109,5.4737,5.3856,0.0,0.0,0.0,0.0,0.0,0.0,0.0,0.0,0.0,0.0,0.0,0.0,0.0,0.0,0.0,0.0,0.0,0.0,0.0,0.0,0.0,0.0,0.0,0.0,0.0,0.0,0.0,0.0,0.0,0.0,0.0,0.0,0.0,0.0,0.0,0.0,0.0,0.0,0.0,0.0,0.0,5.0814,5.1182,5.1165,5.139,0.0,0.0,5.1242,5.0848,5.0699,0.0,0.0,0.0,0.0,0.0,0.0,0.0,0.0,0.0,0.0,0.0,0.0,0.0,0.0,0.0,0.0,0.0,0.0,0.0,0.0,0.0,0.0,0.0,0.0,0.0,0.0,0.0,0.0,0.0,0.0,0.0,0.0,0.0,0.0,0.0,0.0,0.0,0.0,0.0,0.0,0.0,0.0,0.0,0.0,0.0,0.0,0.0,0.0,0.0,0.0,0.0,0.0,0.0,0.0,0.0,5.279,5.45,5.5174,5.599,5.6873,5.7364,5.7261,5.6542,5.5792,5.4873,0.0,0.0,0.0,0.0,0.0,0.0,0.0,0.0,0.0,0.0,0.0,0.0,0.0,0.0,0.0,0.0,0.0,0.0,0.0,0.0,0.0,0.0,0.0,0.0,0.0,0.0,0.0,0.0,0.0,0.0,0.0,0.0,0.0,0.0,0.0,0.0,0.0,0.0,0.0,0.0,0.0,0.0,5.223,5.2352,0.0,0.0,0.0,5.2439,5.2116,0.0,0.0,0.0,0.0,0.0,0.0,0.0,0.0,0.0,0.0,0.0,0.0,0.0,0.0,0.0,0.0,0.0,0.0,0.0,0.0,0.0,0.0,0.0,0.0,0.0,0.0,0.0,0.0,0.0,0.0,0.0,0.0,0.0,0.0,0.0,0.0,0.0,0.0,0.0,0.0,0.0,0.0,0.0,0.0,0.0,0.0,0.0,0.0,0.0,0.0,0.0,0.0,0.0,0.0,0.0,0.0,0.0,5.5604,5.6488,5.7419,5.8383,5.9082,5.8909,5.7947,5.6953,0.0,0.0,0.0,0.0,0.0,0.0,0.0,0.0,0.0,0.0,0.0,0.0,0.0,0.0,0.0,0.0,0.0,0.0,0.0,0.0,0.0,0.0,0.0,0.0,0.0,0.0,0.0,4.3188,0.0,0.0,0.0,0.0,0.0,0.0,0.0,0.0,0.0,0.0,0.0,0.0,0.0,0.0,5.3167,5.3707,5.3946,5.4103,0.0,0.0,5.4279,5.3975,5.4,5.3901,0.0,0.0,0.0,0.0,0.0,0.0,0.0,0.0,0.0,0.0,0.0,0.0,0.0,0.0,0.0,0.0,0.0,0.0,0.0,0.0,0.0,0.0,0.0,0.0,0.0,0.0,0.0,0.0,0.0,0.0,0.0,0.0,0.0,0.0,0.0,0.0,0.0,0.0,0.0,0.0,0.0,0.0,0.0,0.0,0.0,0.0,0.0,0.0,0.0,0.0,0.0,0.0,0.0,0.0,0.0,5.649,5.7969,5.8873,5.9249,6.0462,6.0356,5.8736,5.7913,5.6747,0.0,0.0,0.0,0.0,0.0,0.0,0.0,0.0,0.0,0.0,0.0,0.0,0.0,0.0,0.0,0.0,0.0,0.0,0.0,0.0,0.0,0.0,0.0,0.0,0.0,0.0,0.0,0.0,0.0,0.0,0.0,0.0,0.0,0.0,0.0,0.0,0.0,0.0,0.0,0.0,0.0,5.4938,5.6043,5.6295,5.6631,0.0,0.0,5.7319,5.6875,5.6191,5.5864,5.6245,0.0,0.0,0.0,0.0,0.0,0.0,0.0,0.0,0.0,0.0,0.0,0.0,0.0,0.0,0.0,0.0,0.0,0.0,0.0,0.0,0.0,0.0,0.0,0.0,0.0,0.0,0.0,0.0,0.0,0.0,0.0,0.0,0.0,0.0,0.0,0.0,0.0,0.0,0.0,0.0,0.0,0.0,0.0,0.0,0.0,0.0,0.0,0.0,0.0,0.0,0.0,0.0,0.0,5.5877,5.7298,5.8448,5.9383,6.0181,6.1051,6.1119,6.0356,5.9185,5.7946,0.0,0.0,0.0,0.0,0.0,0.0,0.0,0.0,0.0,0.0,0.0,0.0,0.0,0.0,0.0,0.0,0.0,0.0,0.0,0.0,0.0,0.0,0.0,0.0,0.0,0.0,0.0,0.0,4.5985,4.6811,4.7503,0.0,0.0,0.0,0.0,0.0,0.0,0.0,0.0,0.0,0.0,5.6644,5.7206,5.7394,0.0,0.0,5.7942,5.7867,5.7705,5.7506,5.7347,5.7206,5.6687,0.0,0.0,0.0,0.0,0.0,0.0,0.0,0.0,0.0,0.0,0.0,0.0,0.0,0.0,0.0,0.0,0.0,0.0,0.0,0.0,0.0,0.0,0.0,0.0,0.0,0.0,0.0,0.0,0.0,0.0,0.0,0.0,0.0,0.0,0.0,0.0,0.0,0.0,0.0,0.0,0.0,0.0,0.0,0.0,0.0,0.0,0.0,0.0,0.0,0.0,0.0,0.0,5.6729,5.7942,5.9232,6.0311,6.1183,6.2022,6.2231,6.1777,6.0428,5.9251,0.0,0.0,0.0,0.0,0.0,0.0,0.0,0.0,0.0,0.0,0.0,0.0,0.0,0.0,0.0,0.0,0.0,0.0,0.0,0.0,0.0,0.0,0.0,0.0,0.0,0.0,0.0,0.0,4.7228,4.8256,4.9109,0.0,0.0,0.0,0.0,0.0,0.0,0.0,0.0,0.0,0.0,5.839,5.855,5.9065,5.9377,5.9346,5.9315,5.9346,5.9377,5.9324,5.9192,5.9127,0.0,0.0,0.0,0.0,0.0,0.0,0.0,0.0,0.0,0.0,0.0,0.0,0.0,0.0,0.0,0.0,0.0,0.0,0.0,0.0,0.0,0.0,0.0,0.0,0.0,0.0,0.0,0.0,0.0,0.0,5.115,0.0,0.0,0.0,0.0,0.0,0.0,0.0,0.0,0.0,0.0,0.0,0.0,0.0,0.0,0.0,0.0,0.0,0.0,0.0,0.0,0.0,0.0,5.7494,5.8314,6.0508,6.1838,6.2391,6.3658,6.3869,6.2997,6.167,6.0518,5.9584,0.0,0.0,0.0,0.0,0.0,0.0,0.0,0.0,0.0,0.0,0.0,0.0,0.0,0.0,0.0,0.0,0.0,0.0,0.0,0.0,0.0,0.0,0.0,0.0,0.0,0.0,4.8514,4.9689,5.047,0.0,0.0,0.0,0.0,0.0,0.0,0.0,0.0,0.0,0.0,5.9116,6.0356,6.036,6.163,6.2411,6.2314,6.2281,6.235,6.2546,6.1947,6.1703,0.0,0.0,0.0,0.0,0.0,0.0,0.0,0.0,0.0,0.0,0.0,0.0,0.0,0.0,0.0,0.0,0.0,0.0,0.0,0.0,0.0,0.0,0.0,0.0,0.0,0.0,0.0,5.3891,5.382,0.0,0.0,0.0,0.0,0.0,0.0,0.0,0.0,0.0,0.0,0.0,5.6952,5.7264,0.0,0.0,0.0,0.0,0.0,0.0,0.0,0.0,0.0,0.0,0.0,0.0,5.7989,5.976,6.1074,6.2188,6.3161,6.3973,6.4218,6.3797,6.2996,6.1735,5.9981,0.0,0.0,0.0,0.0,0.0,0.0,0.0,0.0,0.0,0.0,0.0,0.0,0.0,0.0,0.0,0.0,0.0,0.0,0.0,0.0,0.0,0.0,0.0,0.0,0.0,4.8821,0.0,0.0,0.0,0.0,0.0,0.0,0.0,0.0,0.0,0.0,0.0,5.8633,5.9628,6.1109,6.2245,6.2779,6.3176,6.3428,0.0,0.0,0.0,0.0,0.0,0.0,0.0,0.0,0.0,0.0,0.0,0.0,0.0,0.0,6.0102,5.7695,5.7637,5.7981,5.7981,0.0,0.0,0.0,0.0,0.0,0.0,0.0,0.0,0.0,0.0,0.0,0.0,0.0,0.0,5.5614,0.0,5.4848,0.0,0.0,0.0,0.0,0.0,0.0,0.0,0.0,5.7281,5.8007,5.884,5.9124,5.9296,0.0,5.8982,5.8307,0.0,0.0,0.0,0.0,0.0,0.0,0.0,0.0,5.8923,6.0722,6.173,6.2846,6.4136,6.4706,6.4953,6.4777,6.3903,6.2427,6.0336,5.8538,5.7254,0.0,0.0,0.0,0.0,0.0,0.0,0.0,0.0,0.0,0.0,0.0,0.0,0.0,0.0,0.0,0.0,0.0,0.0,0.0,0.0,0.0,0.0,0.0,5.0673,0.0,0.0,0.0,0.0,0.0,0.0,0.0,0.0,0.0,5.862,5.9355,6.0413,6.1915,6.3069,6.404,6.4687,0.0,0.0,0.0,0.0,0.0,0.0,0.0,6.6496,6.6427,6.6356,6.625,6.6107,6.5783,6.5491,6.523,0.0,0.0,6.1011,6.0739,6.1083,6.1083,6.1151,6.1219,6.1219,6.1219,6.1325,0.0,0.0,0.0,0.0,0.0,0.0,0.0,0.0,5.7499,5.7328,0.0,5.6626,0.0,0.0,0.0,0.0,0.0,5.7341,0.0,0.0,5.8759,5.9273,6.0058,6.0808,6.1165,6.1129,6.0386,5.9993,5.9851,5.8165,0.0,0.0,0.0,0.0,0.0,0.0,6.0232,6.1236,6.2515,6.3886,6.5214,6.5858,6.6074,6.5829,6.4425,6.2765,6.083,6.0458,5.9364,5.7288,5.6691,0.0,0.0,0.0,0.0,0.0,0.0,0.0,0.0,0.0,0.0,0.0,0.0,0.0,0.0,0.0,0.0,0.0,0.0,0.0,0.0,5.2173,0.0,0.0,0.0,0.0,0.0,0.0,0.0,0.0,0.0,0.0,6.0812,6.0899,6.1742,6.4017,0.0,0.0,0.0,0.0,6.7516,6.72,6.7796,6.8322,6.8252,6.8919,6.9484,6.9629,0.0,0.0,6.9182,6.8958,6.8729,6.834,6.857,6.7863,6.4761,6.4317,6.4356,6.4356,6.4356,6.4356,6.4356,6.4391,6.4355,6.0454,0.0,0.0,0.0,0.0,5.8235,5.8042,5.7977,5.819,5.819,5.7977,5.7977,0.0,0.0,0.0,0.0,0.0,0.0,5.9781,6.1176,6.1272,6.1664,6.2378,6.2628,6.2735,6.2735,6.2521,6.2128,6.1593,6.1069,5.9882,5.813,0.0,0.0,0.0,0.0,6.1264,6.2669,6.3614,6.4767,6.6228,6.6209,6.6074,6.5865,6.4917,6.393,6.2896,6.1242,6.0074,5.9435,5.7721,0.0,0.0,0.0,0.0,0.0,0.0,0.0,0.0,0.0,0.0,0.0,0.0,0.0,0.0,0.0,0.0,0.0,0.0,0.0,5.3174,5.422,5.4978,0.0,0.0,0.0,0.0,0.0,0.0,0.0,0.0,0.0,6.4251,6.3788,6.3894,0.0,0.0,6.7234,6.8398,6.8785,6.9066,6.9629,7.0258,0.0,6.9935,7.0348,7.0899,7.1416,7.1901,7.221,7.2091,7.2051,7.1891,7.1572,7.1613,7.1301,7.0274,6.8771,6.7856,6.7788,6.7753,6.7788,6.7753,6.7753,6.7716,6.2978,6.097,6.0883,6.064,6.0418,6.0306,6.0148,6.0048,6.0333,6.0297,6.0012,6.0012,5.9953,5.99,6.0184,0.0,0.0,0.0,6.2215,6.3234,6.3841,6.4376,6.484,6.509,6.5268,6.5233,6.4983,6.4622,6.4126,6.352,6.2455,6.0938,0.0,0.0,6.1152,6.1651,6.2536,6.3841,6.4567,6.5682,6.7145,6.7127,6.6884,6.6462,6.5619,6.474,6.3817,6.2443,6.1277,6.0525,5.9086,5.7675,0.0,0.0,0.0,0.0,0.0,0.0,0.0,0.0,0.0,0.0,0.0,5.0099,5.0887,0.0,0.0,0.0,5.3211,5.4063,5.5287,5.6355,0.0,0.0,0.0,0.0,0.0,0.0,0.0,6.3921,6.5083,6.6076,6.6823,6.6621,6.6658,6.7254,6.7868,6.8715,7.008,0.0,7.0883,7.1301,7.2166,7.2613,7.2119,7.2599,7.3102,7.335,7.3726,7.3955,7.3787,7.3787,7.3703,7.349,7.3404,7.3362,7.3189,7.2064,7.0913,7.0236,6.9822,6.9648,6.9648,6.9614,6.9648,6.5126,6.377,6.3492,6.2896,6.2204,6.2951,6.2973,6.2556,6.327,6.3199,6.2556,6.2556,6.2556,6.2592,6.327,0.0,6.3551,6.4389,6.484,6.4947,6.641,6.7088,6.7088,6.7766,6.8088,6.8052,6.741,6.7053,6.6981,6.559,6.4912,6.484,6.3448,6.2985,6.3377,6.3448,6.3841,6.459,6.5447,6.6563,6.7929,6.8364,6.8223,6.7377,6.6497,6.5337,6.4031,6.3853,6.2861,6.0972,6.0529,5.9346,5.7017,0.0,0.0,0.0,0.0,0.0,0.0,0.0,0.0,0.0,0.0,0.0,0.0,0.0,0.0,0.0,5.5265,0.0,5.7211,5.8628,0.0,0.0,0.0,6.252,6.3453,6.466,6.5457,6.553,0.0,0.0,6.8717,6.9241,6.9658,7.0093,6.9915,7.0187,7.128,7.2306,7.2792,7.2539,7.3641,7.4504,7.4393,7.508,7.5543,7.5371,7.5405,7.537,7.5063,7.4929,7.4806,7.4684,7.4537,7.4537,7.4423,7.4298,7.3772,7.1969,7.1167,7.0691,7.076,7.076,7.0753,6.7242,6.6981,6.6916,6.5387,6.3137,6.3957,6.4171,6.4126,6.4912,6.5126,6.4947,6.4983,6.4983,6.4983,6.5126,6.5522,6.6128,6.6307,6.6731,6.7267,6.7659,6.7838,6.7838,6.8016,6.8088,6.8088,6.7909,6.7838,6.7802,6.7445,6.7267,6.7267,6.691,6.559,6.3484,6.4019,6.4412,6.4595,6.5982,6.7316,6.8573,6.9212,6.907,6.8008,6.7199,6.6286,6.5407,6.4283,6.3404,6.2908,6.1248,5.9988,5.9141,5.7768,0.0,0.0,0.0,0.0,0.0,0.0,0.0,0.0,0.0,5.3013,5.4112,0.0,5.5418,0.0,5.8258,5.9348,5.97,6.0919,0.0,0.0,6.303,6.4088,6.4902,6.5797,6.666,6.7553,6.8505,6.9243,6.972,7.0787,7.1673,7.2116,7.1852,7.1857,7.2718,7.3485,7.4176,7.4483,7.5223,7.5682,7.548,7.6358,7.7091,7.7033,7.7479,7.7809,7.7669,7.7703,7.7656,7.7386,7.7339,7.7074,7.6354,7.5798,7.5018,7.407,7.3525,7.3279,7.3279,7.3245,7.3245,6.8143,6.789,6.789,6.6927,6.5426,6.595,6.6161,6.6196,6.6624,6.6803,6.6839,6.6803,6.6839,6.6803,6.6803,6.7053,6.7481,6.7838,6.823,6.8658,6.9015,6.9158,6.9158,6.9158,6.9158,6.9158,6.9158,6.9158,6.9122,6.8801,6.8623,6.8623,6.8266,6.7231,6.559,6.5946,6.6161,6.6161,6.7308,6.8388,6.9388,6.9672,6.9281,6.8361,6.7688,6.688,6.5829,6.4848,6.4043,6.3344,6.2152,6.1103,6.0309,5.8927,5.7865,0.0,0.0,0.0,0.0,0.0,0.0,0.0,0.0,0.0,0.0,0.0,5.7864,5.9801,6.0734,6.1523,6.2299,6.328,6.3917,6.4179,6.506,6.5921,6.6664,6.7374,6.8081,6.8949,6.9718,7.0441,7.1126,7.1827,7.2631,7.3464,7.3567,7.3652,7.3876,7.474,7.5517,7.579,7.6665,7.7297,7.7022,7.7601,7.8087,7.7993,7.8252,7.8476,7.8414,7.8414,7.8366,7.8186,7.8186,7.8036,7.7483,7.6758,7.6082,7.5723,7.5187,7.466,7.4026,7.389,7.389,6.8504,6.7903,6.7903,6.8006,6.8177,6.8344,6.8337,6.8266,6.8373,6.8409,6.8409,6.8409,6.8409,6.8409,6.8409,6.8409,6.8444,6.9089,6.9445,6.9447,7.0125,7.0445,7.0445,7.041,7.0445,7.0445,7.041,7.0445,7.041,6.9732,6.9376,6.941,6.8696,6.834,6.8409,6.8375,6.8304,6.8233,6.8742,6.935,7.0096,6.9742,6.9279,6.8573,6.8106,6.7221,6.593,6.5575,6.4736,6.3344,6.3135,6.244,6.1014,6.0046,5.9217,0.0,5.7534,0.0,0.0,0.0,0.0,0.0,0.0,0.0,0.0,5.9322,6.0483,6.2736,6.2916,6.3408,6.4674,6.5332,6.5916,6.6422,6.7095,6.7728,6.8359,6.9019,6.9599,6.9945,7.0704,7.155,7.249,7.2648,7.3205,7.4326,7.4945,7.5105,7.4898,7.5914,7.6759,7.6632,7.7801,7.8572,7.8777,7.8845,7.8817,7.8638,7.8657,7.8458,7.8397,7.8397,7.8314,7.8314,7.8431,7.828,7.8145,7.7604,7.7164,7.686,7.6265,7.5452,7.4301,7.3963,7.3781,6.9459,6.946,6.946,6.946,6.953,6.9705,6.9522,6.9122,6.9765,7.005,7.005,7.005,7.005,7.005,7.005,7.005,7.005,7.0021,7.0023,7.0023,7.0026,7.0026,7.0026,6.9991,6.9991,7.0026,6.9991,7.0026,7.0026,6.9885,6.9848,7.0023,6.9846,6.9913,7.0016,0.0,0.0,0.0,6.8958,6.9211,6.9671,6.9489,6.9235,6.8945,6.8127,0.0,6.7211,6.6398,6.5523,6.4693,6.3852,0.0,0.0,0.0,0.0,0.0,0.0,0.0,0.0,0.0,0.0,0.0,6.1466,6.1527,6.1027,6.2273,6.3417,6.4126,6.4882,6.5569,6.5953,6.6424,6.6953,6.7474,6.8025,6.8569,6.9142,6.9708,7.0303,7.0891,7.1607,7.2313,7.2946,7.3988,7.4707,7.49,7.5535,7.5816,7.5506,7.6548,7.7302,7.7203,7.8269,7.9241,7.9817,7.9851,7.9833,7.9869,7.9819,7.9785,7.9701,7.9701,7.9769,7.9701,7.9769,7.9566,7.9025,7.8788,7.8247,7.7164,7.6792,7.6386,7.5506,7.527,7.527,6.956,0.0,6.9633,6.9705,0.0,6.9849,6.9778,6.9633,7.0233,7.0514,7.0514,7.0514,7.0514,7.0514,7.0375,7.0341,7.0341,7.0132,7.0062,7.0062,6.9956,6.9885,6.9885,6.9885,6.9885,6.9885,6.9885,6.9885,6.9885,6.9885,6.992,7.0026,7.0062,7.0097,7.0202,7.0097,6.9849,6.9459,6.9353,6.9353,6.9417,6.9303,6.9118,6.8857,6.8319,0.0,0.0,0.0,0.0,0.0,0.0,0.0,0.0,0.0,0.0,6.2681,6.223,6.1987,6.2098,6.2172,6.2456,6.3017,6.3887,6.4108,6.3516,6.4386,6.512,6.5505,6.597,6.6529,6.7228,6.7424,6.7892,6.8773,6.914,6.9497,7.0017,7.0256,7.0764,7.165,7.2117,7.2676,7.3537,7.4238,7.4869,7.51,7.5473,7.5662,7.5667,7.6835,7.7944,7.8545,7.9158,7.9769,8.0107,8.0209,8.0209,8.0209,8.0209,8.0209,8.0209,8.0209,8.0209,8.0209,8.0209,8.004,7.9735,7.9363,7.8889,7.8111,7.7401,7.6826,7.6352,7.598,7.5676,6.9376,6.9376,6.9376,6.9451,6.9561,6.9561,6.9706,6.992,0.0,0.0,0.0,7.0445,7.0445,7.0375,7.0237,7.0167,7.0132,7.0097,7.0061,7.0061,7.0202,7.0131,6.999,7.0025,6.9919,6.9813,6.9813,6.9813,6.9813,6.9813,6.9813,6.9849,6.9849,6.9813,6.9778,6.9742,6.9741,6.967,6.9598,6.9416,6.9157,6.9005,6.8778,6.8551,6.8358,6.7886,6.7143,6.6907,6.6331,6.538,6.5267,6.5198,6.5062,6.4483,6.4103,6.4142,6.3563,6.326,6.3414,6.3452,6.3837,6.471,6.5401,6.5704,6.5574,6.5861,6.621,6.6797,6.6855,6.7326,6.8409,6.8418,6.8726,6.9849,6.9943,7.0166,7.0633,7.0731,7.113,7.2066,7.246,7.3021,7.3945,7.4268,7.457,7.5108,7.5277,7.5344,7.5662,7.6917,7.8397,7.9514,7.987,8.0175,8.0209,8.0209,8.0209,8.0209,8.0209,8.0209,8.0209,8.0209,8.0209,8.0209,8.0209,8.0175,8.0141,7.9735,7.9261,7.9126,7.8179,7.7232,7.7063,7.6589,7.6149,6.9376,6.9376,6.9376,6.9412,6.9414,6.9525,6.9706,6.9885,7.0132,7.0132,6.9991,7.0167,7.0167,6.9956,6.992,6.9956,6.9991,7.0447,7.0657,7.0727,7.1211,7.1066,7.0433,7.0433,7.0082,6.9521,6.9486,6.9486,6.9486,6.9486,6.9524,6.9634,6.9634,6.9561,6.9379,6.9231,6.9045,6.8895,6.9194,6.9083,6.8551,6.8319,6.8157,6.7959,6.7753,6.7563,6.742,6.7216,6.6753,6.5922,6.5561,6.5133,6.4729,6.439,6.4248,6.441,6.4349,6.4282,6.4282,6.4322,6.4661,6.5447,6.5657,6.571,6.5773,6.637,6.7027,6.7782,6.8245,6.8801,6.9343,6.9194,6.9313,6.9769,6.9849,7.0063,7.0556,7.1035,7.1492,7.1814,7.2854,7.3591,7.3912,7.4448,7.4865,7.5033,7.5018,7.5317,7.6084,7.7288,7.828,7.9126,7.9803,8.0141,8.0209,8.0209,8.0209,8.0209,8.0209,8.0209,8.0209,8.0209,8.0209,8.0209,8.0209,8.0209,8.0209,8.0141,7.9769,7.9329,7.8822,7.8483,7.7976,7.7671,7.7435,6.9376,6.9376,6.9376,6.9376,6.9412,6.9486,6.9524,6.9668,7.0273,7.0309,6.992,7.0026,7.0239,7.0557,7.0449,7.066,7.1084,7.1216,7.1279,7.1314,7.159,7.1517,7.1131,7.071,7.0323,6.9972,6.9586,6.9339,6.9227,6.9227,6.9192,6.912,6.912,6.9008,6.8819,6.9122,6.9138,6.8823,6.9215,6.9215,6.8823,6.8882,6.8802,6.863,6.8455,6.8209,6.8082,6.7996,6.7732,6.7266,6.669,6.6278,6.6027,6.5496,6.5261,6.5346,6.5388,6.5346,6.5388,6.5346,6.5724,6.6464,6.6531,6.6693,6.7108,6.7297,6.7728,6.8318,6.86,6.8947,6.9441,6.941,6.957,7.0129,7.0184,7.044,7.0984,7.1278,7.1718,7.2452,7.3153,7.3754,7.4154,7.4571,7.4771,7.4771,7.4771,7.5037,7.5619,7.6774,7.7949,7.8891,7.9397,7.9769,8.0107,8.0209,8.0209,8.0209,8.0209,8.0209,8.0209,8.0209,8.0209,8.0209,8.0209,8.0209,8.0209,8.0209,8.0006,7.9803,7.9329,7.8957,7.8653,7.8585,7.8314,6.9481,6.9621,6.9621,6.9727,6.9902,6.9902,6.9902,7.001,7.0684,7.0726,7.0342,7.0379,7.0697,7.1154,7.1078,7.1321,7.1885,7.1945,7.1974,7.1974,7.2111,7.2072,7.1827,7.1192,7.0699,7.0348,6.979,6.9365,6.904,6.8965,6.8816,6.859,6.8513,6.8435,6.828,6.8962,6.9101,6.8809,6.9323,6.9508,6.9172,6.9347,6.9322,6.9098,6.8924,6.8749,6.8573,6.8528,6.8439,6.8305,6.7714,6.738,6.738,6.6801,6.6422,6.6422,6.6422,6.6422,6.6422,6.6422,6.669,6.7224,6.7291,6.7625,6.8271,6.8215,6.8291,6.8707,6.8808,6.9021,6.9511,6.9599,6.9787,7.0309,7.0497,7.0797,7.1318,7.1575,7.2078,7.3142,7.3508,7.3874,7.434,7.4473,7.4473,7.4523,7.4473,7.4622,7.4954,7.604,7.7279,7.8337,7.8976,7.955,8.0107,8.0209,8.0209,8.0209,8.0209,8.0209,8.0209,8.0209,8.0209,8.0209,8.0209,8.0209,8.0209,8.0209,8.0175,8.0073,7.9735,7.9397,7.9363,7.9363,7.9194,6.9797,7.0359,7.0429,7.0815,7.1412,7.1447,7.1447,7.1447,7.1587,7.1625,7.1523,7.1711,7.1709,7.1625,7.1625,7.1696,7.1871,7.2395,7.2711,7.2742,7.3252,7.3138,7.2434,7.2131,7.1285,7.0175,6.9931,6.9474,6.8879,6.8617,6.8392,6.8162,6.7999,6.7914,6.7942,6.8467,6.8561,6.8268,6.9431,6.9717,6.903,6.9021,6.8837,6.8428,6.8384,6.8384,6.8406,6.8339,6.8339,6.8294,6.808,6.7911,6.7911,6.7629,6.7459,6.7426,6.7426,6.7459,6.7459,6.7459,6.7459,6.7558,6.7604,6.7936,6.8599,6.8646,6.8798,6.9219,6.9276,6.9553,7.007,7.009,7.0029,7.0007,7.0505,7.0873,7.1187,7.2133,7.2978,7.3094,7.3741,7.4155,7.4239,7.4272,7.4272,7.4272,7.4272,7.4439,7.4772,7.5489,7.6424,7.7463,7.8606,7.9668,8.0107,8.0209,8.0209,8.0209,8.0209,8.0209,8.0209,8.0209,8.0209,8.0209,8.0209,8.0209,8.0209,8.0209,8.0209,8.0209,8.0073,8.004,8.0073,8.004,7.9904,7.0696,7.0976,7.1125,7.1412,7.1693,7.1693,7.1693,7.1728,7.2184,7.236,7.243,7.2894,7.2858,7.236,7.236,7.2528,7.2902,7.3182,7.3242,7.3123,7.3235,7.3119,7.2765,7.211,7.1434,7.0845,7.0361,6.99,6.9538,6.9267,6.9022,6.8857,6.8732,6.8565,6.8345,6.8963,6.9204,6.8941,6.9828,7.0141,6.9769,6.9736,6.9645,6.9415,6.9277,6.9184,6.9184,6.9184,6.9184,6.9151,6.8692,6.8414,6.8414,6.7923,6.7566,6.7566,6.7566,6.7566,6.7566,6.7566,6.7764,6.8208,6.8241,6.8572,6.9268,6.9334,6.9429,6.957,6.9663,6.975,6.9955,6.9988,7.0059,7.0409,7.0726,7.1223,7.215,7.2713,7.3243,7.3674,7.4023,7.4221,7.4221,7.4221,7.4221,7.4221,7.4221,7.4405,7.497,7.5617,7.6417,7.744,7.8563,7.9392,7.9853,8.0107,8.0209,8.0209,8.0209,8.0209,8.0209,8.0209,8.0209,8.0209,8.0209,8.0209,8.0209,8.0209,8.0209,8.0209,8.0209,8.0209,8.0209,8.0209,8.0209,7.1377,7.1586,7.1987,7.217,7.2248,7.2248,7.2286,7.2395,7.2922,7.3093,7.3089,7.3685,7.3576,7.3011,7.3015,7.3252,7.3542,7.3537,7.3415,7.3211,7.2963,7.2762,7.2609,7.1951,7.1369,7.1087,7.0496,6.9993,6.9688,6.9484,6.9271,6.9055,6.8977,6.888,6.864,6.9301,6.958,6.9386,7.0055,7.0316,7.0129,7.0082,7.0082,7.0115,6.9893,6.9798,6.9798,6.9798,6.9798,6.9765,6.9268,6.9003,6.897,6.8473,6.8241,6.8208,6.8162,6.8208,6.8208,6.8208,6.844,6.8904,6.897,6.9202,6.9666,6.9798,6.9798,6.9765,6.9798,6.9765,6.9798,6.9964,7.0328,7.0858,7.1189,7.1985,7.2912,7.3243,7.3608,7.4072,7.4188,7.4221,7.4221,7.4221,7.4221,7.4221,7.4221,7.4487,7.5216,7.586,7.666,7.7614,7.8417,7.9113,7.9699,7.9955,8.0107,8.0209,8.0209,8.0209,8.0209,8.0209,8.0209,8.0209,8.0209,8.0209,8.0209,8.0209,8.0209,8.0209,8.0209,8.0209,8.0209,8.0209,8.0209,7.1454,7.222,7.2916,7.3322,7.3592,7.3557,7.3672,7.369,7.3865,7.3821,7.3627,7.3657,7.3537,7.3229,7.3397,7.3502,7.3334,7.3088,7.3005,7.2887,7.2501,7.2167,7.1917,7.1664,7.107,7.0307,7.0172,6.9712,6.884,6.8739,6.8528,6.8417,6.8484,6.8451,6.8495,6.9176,6.9307,6.9323,6.9843,7.0082,6.9846,6.9846,6.9846,6.9846,6.9798,6.9798,6.9798,6.9798,6.9798,6.9798,6.9732,6.9699,6.9732,6.9666,6.9599,6.9633,6.9633,6.9633,6.9599,6.9566,6.9633,6.9699,6.9633,6.9732,6.9765,6.9798,6.9798,6.9798,6.9798,6.9798,6.9931,7.0394,7.0825,7.1123,7.2183,7.2879,7.3111,7.3707,7.4122,7.4221,7.4221,7.4221,7.4221,7.4221,7.4221,7.4221,7.4221,7.4469,7.5264,7.5927,7.6589,7.7437,7.8278,7.906,7.9647,7.9853,7.9955,8.0057,8.0158,8.0209,8.0209,8.0209,8.0209,8.0209,8.0209,8.0209,8.0209,8.0209,8.0209,8.0209,8.0209,8.0209,8.0209,8.0209,8.0209,7.2551,7.2951,7.3154,7.3375,7.3456,7.3456,7.3496,7.3537,7.3537,7.3496,7.3415,7.3293,7.3129,7.2922,7.2636,7.2678,7.288,7.2509,7.2219,7.2081,7.16,7.1244,7.1019,7.0791,7.0461,6.9962,6.9916,6.9795,6.9687,6.9608,6.9608,6.9516,6.9516,6.9423,6.935,6.9517,6.9636,6.9575,6.9841,6.9893,6.9798,6.9798,6.9798,6.9798,6.9798,6.9798,6.9798,6.9798,6.9798,6.9798,6.9798,6.9798,6.9798,6.9798,6.9798,6.9798,6.9798,6.9798,6.9798,6.9798,6.9798,6.9798,6.9798,6.9798,6.9798,6.9798,6.9798,6.9798,6.9798,6.9964,7.0461,7.0759,7.1289,7.2216,7.278,7.326,7.3707,7.4056,7.4221,7.4221,7.4221,7.4221,7.4221,7.4221,7.4221,7.4221,7.4221,7.4701,7.5628,7.6192,7.6755,7.7815,7.8365,7.8777,7.9146,7.9596,7.9853,7.9955,8.0057,8.0158,8.0209,8.0158,8.0158,8.0209,8.0209,8.0209,8.0209,8.0209,8.0209,8.0209,8.0209,8.0209,8.0209,8.0209,8.0209,7.2755,7.288,7.288,7.2887,7.297,7.297,7.3012,7.3053,7.3053,7.3012,7.2929,7.272,7.2544,7.2253,7.182,7.1732,7.1951,7.1688,7.1467,7.1244,7.087,7.0502,7.0143,7.0035,6.9798,6.9574,6.9559,6.9655,6.9798,6.9798,6.9798,6.9765,6.9846,6.9751,6.9574,6.9622,6.9703,6.967,6.9751,6.9798,6.9798,6.9798,6.9798,6.9798,6.9798,6.9798,6.9798,6.9798,6.9798,6.9798,6.9798,6.9798,6.9798,6.9798,6.9798,6.9798,6.9798,6.9798,6.9798,6.9703,6.9655,6.9655,6.9607,6.9526,6.9526,6.9526,6.9526,6.9526,6.9559,6.9889,7.0748,7.1012,7.1556,7.273,7.3076,7.3356,7.3818,7.3884,7.3968,7.4019,7.412,7.4171,7.4221,7.4221,7.4221,7.4221,7.4387,7.5065,7.5993,7.6589,7.7053,7.8246,7.8477,7.8564,7.883,7.9146,7.9492,7.9647,7.9801,7.9955,8.0057,8.0057,8.0107,8.0158,8.0209,8.0209,8.0209,8.0209,8.0209,8.0209,8.0209,8.0209,8.0209,8.0209,8.0209,7.2029,7.2029,7.1985,7.2159,7.2253,7.2253,7.2382,7.2517,7.2559,7.2432,7.2253,7.2038,7.1786,7.1556,7.1109,7.0745,7.0654,7.0745,7.0699,7.0469,7.0223,6.9846,6.9382,6.9334,6.914,6.8896,6.8945,6.8945,6.8994,6.9042,6.9042,6.9042,6.9091,6.914,6.9042,6.9285,6.9382,6.943,6.9655,6.9751,6.9798,6.9798,6.9798,6.9798,6.9798,6.9798,6.9798,6.9798,6.9798,6.9798,6.9798,6.9798,6.9798,6.9798,6.9798,6.9751,6.9798,6.9798,6.9751,6.9559,6.9382,6.9382,6.9188,6.9091,6.9091,6.9091,6.9091,6.9091,6.9222,6.9633,7.0896,7.1206,7.1668,7.2593,7.3116,7.3323,7.3337,7.337,7.3422,7.3712,7.4001,7.4171,7.4171,7.4171,7.4255,7.4453,7.4851,7.5463,7.6324,7.692,7.7649,7.8279,7.8511,7.8511,7.8617,7.8724,7.8988,7.9284,7.944,7.9596,7.975,7.9801,7.9955,8.0006,8.0209,8.0209,8.0209,8.0209,8.0209,8.0209,8.0209,8.0209,8.0209,8.0209,8.0209,7.1898,7.1732,7.1732,7.1644,7.1566,7.1522,7.161,7.1654,7.1654,7.161,7.1522,7.1289,7.1064,7.0791,7.033,7.0035,6.9717,6.967,6.9622,6.9703,6.9285,6.8945,6.86,6.8401,6.8151,6.7949,6.7899,6.8,6.8201,6.8351,6.855,6.8699,6.8896,6.8994,6.8945,6.9091,6.914,6.914,6.9382,6.9559,6.9559,6.967,6.9798,6.9798,6.9798,6.9798,6.9798,6.9798,6.9798,6.9798,6.9798,6.9798,6.9798,6.9798,6.9703,6.9559,6.9559,6.943,6.9237,6.9188,6.9091,6.9091,6.9042,6.8994,6.8994,6.8945,6.8945,6.9059,6.9452,7.0206,7.1025,7.1444,7.1966,7.2995,7.3206,7.3266,7.3214,7.3266,7.337,7.3473,7.3712,7.3899,7.4001,7.4019,7.4403,7.4884,7.5216,7.5761,7.6788,7.7285,7.7715,7.8345,7.8444,7.8511,7.8564,7.8617,7.8724,7.8969,7.9127,7.9284,7.944,7.9544,7.9647,7.9904,8.0057,8.0175,8.0209,8.0209,8.0209,8.0209,8.0209,8.0209,8.0209,8.0209,8.0209,7.1334,7.1165,7.1199,7.103,7.0837,7.0837,7.0757,7.0666,7.0666,7.0666,7.0654,7.0423,7.0236,7.0049,6.967,6.9498,6.9452,6.9222,6.9253,6.9401,6.8763,6.8284,6.7899,6.7625,6.7439,6.7317,6.7265,6.7388,6.7644,6.7797,6.8,6.8151,6.8351,6.8401,6.8451,6.86,6.8699,6.8748,6.9042,6.9237,6.9285,6.9415,6.9478,6.9511,6.9511,6.9478,6.9478,6.9511,6.9607,6.9751,6.9703,6.9574,6.9526,6.9511,6.9463,6.9285,6.9237,6.9188,6.8994,6.8847,6.8699,6.8699,6.8501,6.8401,6.8401,6.8401,6.8401,6.8499,6.9,6.9765,7.0428,7.1038,7.1751,7.2538,7.2741,7.2794,7.2709,7.29,7.3005,7.3057,7.3318,7.3609,7.3797,7.4196,7.4599,7.5231,7.5761,7.6225,7.7252,7.7649,7.808,7.8378,7.8477,7.8511,7.8511,7.8511,7.8511,7.8617,7.881,7.8988,7.9146,7.9198,7.9303,7.9699,7.9955,8.0107,8.0107,8.0209,8.0209,8.0209,8.0209,8.0209,8.0209,8.0209,8.0209,7.0469,7.0423,7.0423,7.0363,7.0129,7.0129,7.0021,6.9898,6.9898,6.9964,6.9982,6.9938,6.9678,6.9483,6.9452,6.9451,6.9592,6.9418,6.9369,6.9362,6.8718,6.7952,6.7265,6.7005,6.6849,6.6849,6.6849,6.7005,6.713,6.7233,6.7336,6.7336,6.7388,6.7388,6.7542,6.7899,6.8101,6.8201,6.8649,6.8945,6.8945,6.9042,6.9042,6.9042,6.9042,6.9042,6.9091,6.9141,6.9336,6.9655,6.9478,6.9285,6.9091,6.8994,6.8994,6.8945,6.8945,6.8847,6.8797,6.8401,6.8151,6.805,6.7746,6.7336,6.7471,6.7471,6.7439,6.7503,6.8156,6.886,6.95,7.0268,7.094,7.1429,7.1884,7.1992,7.1721,7.2187,7.2422,7.2582,7.2952,7.337,7.3675,7.4272,7.4907,7.5492,7.6405,7.7152,7.7616,7.8014,7.8378,7.8511,7.8511,7.8511,7.8511,7.8511,7.8511,7.8511,7.8617,7.8724,7.8883,7.8936,7.9094,7.9492,7.9801,7.9955,8.0107,8.0158,8.0209,8.0209,8.0209,8.0209,8.0209,8.0209,8.0209,6.986,6.967,6.967,6.9526,6.9334,6.9318,6.9647,6.9977,7.001,7.0305,7.065,7.0732,7.0483,7.038,7.0062,6.9936,6.9808,6.956,6.917,6.8923,6.8701,6.7546,6.6393,6.6076,6.6023,6.6023,6.6023,6.6076,6.6183,6.6364,6.6417,6.647,6.6659,6.6901,6.7109,6.7213,6.7388,6.7644,6.8151,6.8401,6.8451,6.8797,6.8994,6.8994,6.8945,6.8945,6.901,6.9271,6.9287,6.9173,6.914,6.9091,6.8977,6.8781,6.8583,6.8401,6.8201,6.8,6.7848,6.7695,6.7491,6.7336,6.7161,6.7005,6.6796,6.6828,6.6796,6.7018,6.7842,6.8635,6.9015,6.9935,7.0608,7.0718,7.1227,7.1644,7.1589,7.1721,7.1916,7.2187,7.2508,7.2794,7.3273,7.4045,7.4983,7.5733,7.6597,7.7616,7.7927,7.8212,7.8511,7.8511,7.8511,7.8511,7.8511,7.8511,7.8511,7.8511,7.8511,7.8564,7.8671,7.8777,7.9041,7.9388,7.9647,7.9801,8.0057,8.0209,8.0209,8.0209,8.0209,8.0209,8.0209,8.0209,8.0209,6.9382,6.927,6.9566,6.955,6.9337,6.9664,6.9923,7.0199,7.0214,7.0442,7.075,7.0713,7.0577,7.0371,7.0079,7.0062,7.0129,6.9765,6.96,6.9406,6.8712,6.736,6.6058,6.5482,6.5156,6.5156,6.5156,6.5235,6.5344,6.5507,6.5561,6.5561,6.5754,6.5969,6.6268,6.6396,6.6691,6.7057,6.7523,6.7746,6.7899,6.8151,6.8301,6.8301,6.8351,6.8399,6.8788,6.9284,6.9548,6.9477,6.9462,6.9231,6.8788,6.8503,6.8138,6.776,6.7439,6.7213,6.7109,6.6921,6.6712,6.6501,6.6343,6.613,6.5915,6.5893,6.5893,6.637,6.7387,6.8037,6.8625,6.9646,7.018,7.0218,7.0557,7.0838,7.0838,7.106,7.1282,7.1557,7.2025,7.2455,7.2721,7.3763,7.4819,7.5721,7.6624,7.7523,7.8225,7.8391,7.8511,7.8511,7.8511,7.8511,7.8511,7.8511,7.8511,7.8511,7.8511,7.8511,7.8564,7.8671,7.8883,7.9179,7.944,7.9699,7.9955,8.0158,8.0209,8.0209,8.0209,8.0209,8.0209,8.0209,8.0209,6.8961,6.9092,6.9714,6.9941,6.9903,7.0471,7.0545,7.05,7.05,7.0546,7.0571,7.0264,7.0372,7.0042,7.0119,7.0086,7.0521,7.003,7.0045,6.9571,6.852,6.6936,6.5959,6.4988,6.457,6.4453,6.4361,6.4382,6.4463,6.4574,6.4629,6.4629,6.4629,6.485,6.5156,6.5429,6.5862,6.6374,6.6691,6.6974,6.7181,6.7336,6.7388,6.742,6.7612,6.7964,6.8519,6.9138,6.9681,7.0167,6.9966,6.9326,6.8583,6.8203,6.779,6.7272,6.6997,6.6837,6.6604,6.6484,6.6081,6.5841,6.5506,6.5108,6.4912,6.4826,6.5042,6.5657,6.6596,6.742,6.825,6.9131,6.9468,6.9472,6.9557,6.9614,6.9729,7.0218,7.0613,7.0726,7.1502,7.2025,7.2617,7.3359,7.4396,7.5489,7.6424,7.7416,7.8085,7.8424,7.8457,7.8511,7.8511,7.8511,7.8511,7.8511,7.8511,7.8511,7.8511,7.8511,7.8511,7.8564,7.8671,7.8883,7.9198,7.9492,7.9801,7.9955,8.0107,8.0209,8.0209,8.0209,8.0209,8.0209,8.0209,6.8726,6.9278,6.9408,6.9779,7.0247,7.039,7.0675,7.0897,7.0897,7.0995,7.1252,7.1272,7.1154,7.1154,7.0763,7.0798,7.0577,7.0217,6.9953,6.8969,6.7301,6.6402,6.5799,6.4953,6.438,6.4056,6.3547,6.3394,6.3451,6.3478,6.3391,6.3448,6.3676,6.3932,6.4214,6.4549,6.4991,6.5515,6.5808,6.613,6.6364,6.6523,6.6659,6.6723,6.7251,6.7884,6.8527,6.9028,6.9493,6.9674,6.9436,6.8943,6.859,6.8256,6.788,6.7449,6.7173,6.6982,6.679,6.6554,6.6262,6.5489,6.5315,6.5019,6.4218,6.4223,6.4497,6.5075,6.583,6.6833,6.7899,6.8235,6.8476,6.8535,6.8535,6.8476,6.8595,6.9325,7.0104,7.0557,7.0893,7.1282,7.2079,7.2951,7.4042,7.5114,7.6177,7.7223,7.7759,7.8197,7.8296,7.8296,7.8296,7.8296,7.8296,7.8296,7.8296,7.8296,7.8296,7.8403,7.8403,7.8457,7.8564,7.8724,7.8936,7.9251,7.9596,7.9801,7.9904,8.0057,8.0209,8.0209,8.0158,8.0209,8.0209,6.8895,6.9162,6.9776,7.024,7.0554,7.0823,7.107,7.1252,7.1284,7.1368,7.1525,7.1479,7.1369,7.1171,7.0893,7.0613,7.0218,6.9818,6.9065,6.8058,6.6853,6.6307,6.5609,6.493,6.4337,6.3981,6.3357,6.306,6.2971,6.2733,6.2613,6.2555,6.2788,6.3019,6.3306,6.3592,6.4045,6.4604,6.4936,6.518,6.5507,6.5615,6.5723,6.5973,6.666,6.744,6.7728,6.8644,6.9007,6.9046,6.8696,6.842,6.8202,6.7946,6.7595,6.7147,6.6629,6.6399,6.6138,6.5964,6.5607,6.5044,6.4983,6.4599,6.4183,6.4005,6.4335,6.4844,6.5502,6.6312,6.7578,6.797,6.797,6.803,6.797,6.797,6.815,6.883,6.9472,6.9901,7.0388,7.0838,7.1584,7.2398,7.3274,7.4183,7.519,7.6201,7.7139,7.7576,7.7905,7.7971,7.8025,7.8025,7.8025,7.7992,7.7938,7.7938,7.7938,7.8046,7.8242,7.8296,7.8403,7.8617,7.8777,7.8988,7.9251,7.9459,7.9665,7.9853,8.0006,8.0107,8.0158,8.0158,8.0209,6.9175,6.9238,7.0448,7.0835,7.0844,7.1324,7.1493,7.1502,7.1534,7.1415,7.1424,7.1203,7.0925,7.0613,7.0275,6.999,6.9441,6.8858,6.7999,6.7274,6.6725,6.6171,6.5463,6.4927,6.4487,6.4085,6.3409,6.3085,6.2733,6.238,6.2115,6.2057,6.2028,6.2263,6.2497,6.273,6.3192,6.3706,6.3932,6.4239,6.4518,6.4629,6.4685,6.4986,6.5945,6.6533,6.6932,6.7706,6.8446,6.8119,6.7849,6.7665,6.7509,6.7472,6.7054,6.6478,6.6068,6.5861,6.5772,6.5413,6.5143,6.4632,6.4633,6.4394,6.4124,6.4035,6.4362,6.4835,6.5433,6.6036,6.7153,6.7365,6.7608,6.7759,6.782,6.7971,6.8153,6.8603,6.9022,6.9123,6.9703,7.0218,7.0782,7.1528,7.2375,7.3231,7.4258,7.5245,7.618,7.6954,7.7337,7.7719,7.7774,7.7829,7.7829,7.7774,7.7719,7.7665,7.761,7.7774,7.7938,7.7992,7.8101,7.8457,7.8671,7.883,7.8988,7.9146,7.9407,7.9614,7.975,7.9801,7.9955,8.0107,8.0158,6.9285,7.0321,7.0599,7.0962,7.142,7.1525,7.1479,7.1314,7.1258,7.1148,7.0869,7.0589,7.0444,7.0218,6.9761,6.924,6.8564,6.7819,6.7243,6.6753,6.629,6.5601,6.5416,6.5076,6.4838,6.4513,6.379,6.3036,6.257,6.2159,6.193,6.155,6.1583,6.1791,6.185,6.2087,6.2468,6.2788,6.3019,6.3306,6.3562,6.3706,6.3819,6.4084,6.5122,6.5642,6.5946,6.6703,6.7152,6.6846,6.6814,6.6602,6.6544,6.6791,6.6731,6.6489,6.6216,6.5973,6.5818,6.5751,6.5453,6.5096,6.4919,6.4624,6.4207,6.4089,6.444,6.4943,6.5506,6.6014,6.6228,6.6595,6.6708,6.7008,6.7525,6.7799,6.8313,6.8749,6.9093,6.8995,6.9281,6.9592,7.0261,7.0827,7.1489,7.2371,7.3292,7.4374,7.5404,7.6222,7.6823,7.726,7.7665,7.7665,7.7665,7.7555,7.7499,7.7389,7.7389,7.7444,7.7555,7.7665,7.7829,7.8155,7.8457,7.8617,7.8777,7.8936,7.9094,7.9355,7.9492,7.9544,7.975,7.9904,8.0057,6.9873,7.0403,7.0754,7.0995,7.1171,7.1203,7.1092,7.0981,7.0813,7.0701,7.0476,7.0161,6.9875,6.9588,6.9298,6.8654,6.7699,6.7091,6.6568,6.6165,6.5727,6.5348,6.5285,6.5031,6.4996,6.4822,6.4299,6.369,6.3051,6.2383,6.2006,6.1718,6.1548,6.1404,6.1464,6.1673,6.191,6.2087,6.2263,6.2438,6.2788,6.2788,6.2903,6.3262,6.4128,6.4726,6.4993,6.5945,6.6414,6.6257,6.607,6.5945,6.5882,6.5882,6.607,6.6195,6.6103,6.5915,6.5756,6.5601,6.5299,6.5095,6.5007,6.489,6.4656,6.4564,6.4656,6.5011,6.54,6.5903,6.6226,6.6353,6.674,6.7275,6.758,6.7821,6.8156,6.8657,6.8898,6.9002,6.9393,6.9716,6.9942,7.0459,7.0841,7.1481,7.2333,7.3379,7.4534,7.52,7.589,7.6507,7.6831,7.6887,7.6887,7.6831,7.6887,7.6887,7.6943,7.6999,7.7167,7.7167,7.7499,7.7829,7.8101,7.8296,7.8564,7.8671,7.8883,7.9041,7.9146,7.9284,7.9492,7.9699,7.9801,7.0326,7.0298,7.087,7.1013,7.0813,7.0701,7.0701,7.0645,7.0331,7.0192,7.0078,6.9761,6.9325,6.8889,6.8476,6.7879,6.6814,6.6444,6.5978,6.5664,6.5412,6.5222,6.506,6.4996,6.4996,6.4967,6.488,6.4648,6.3835,6.308,6.247,6.2006,6.1542,6.128,6.1342,6.1464,6.1494,6.1613,6.1761,6.1939,6.1998,6.2057,6.2116,6.2234,6.3353,6.403,6.4209,6.5205,6.5731,6.5694,6.5567,6.5412,6.5348,6.5158,6.5251,6.563,6.5538,6.5412,6.5348,6.5222,6.5094,6.5007,6.5031,6.4967,6.5002,6.4891,6.4973,6.506,6.5251,6.5611,6.6078,6.6446,6.7014,6.7665,6.7936,6.8089,6.836,6.8737,6.9184,6.9376,6.9731,6.9854,7.0002,7.0013,7.0411,7.0568,7.1339,7.2242,7.3352,7.3969,7.4676,7.5477,7.5893,7.5893,7.5893,7.5861,7.5919,7.6066,7.6181,7.6264,7.6492,7.6662,7.6999,7.7334,7.7499,7.7697,7.8079,7.8403,7.8564,7.8724,7.8777,7.8936,7.9198,7.9355,7.9492,7.0173,7.0687,7.0782,7.0845,7.0733,7.0476,7.0363,7.0275,6.999,6.9703,6.9472,6.9123,6.8741,6.8268,6.7517,6.6785,6.6257,6.579,6.5601,6.5412,6.5222,6.5094,6.4967,6.4996,6.4996,6.4996,6.4996,6.4619,6.4154,6.3806,6.3109,6.2325,6.2006,6.1745,6.1222,6.1313,6.1253,6.1253,6.1313,6.1464,6.1673,6.1939,6.2057,6.2322,6.3024,6.3664,6.3778,6.4648,6.5222,6.5187,6.5124,6.506,6.506,6.506,6.506,6.5124,6.506,6.506,6.5124,6.506,6.4996,6.4996,6.4996,6.4996,6.4996,6.4996,6.4996,6.4996,6.5089,6.5502,6.6025,6.6142,6.6752,6.7524,6.8218,6.8576,6.8877,6.8906,6.9358,6.9589,6.9789,6.984,6.9972,6.9945,6.9991,7.01,7.0419,7.1384,7.2328,7.3191,7.3781,7.4753,7.5134,7.5134,7.5134,7.5043,7.5075,7.5252,7.5428,7.5545,7.5777,7.5977,7.6296,7.6581,7.6863,7.7255,7.7665,7.7992,7.8242,7.8403,7.8564,7.8724,7.8883,7.9041,7.9198,6.9935,7.0218,7.0218,7.0218,7.0218,7.0047,6.9933,6.9703,6.9472,6.9123,6.8772,6.8298,6.7819,6.7274,6.6476,6.5978,6.5694,6.5348,6.5222,6.5222,6.5031,6.4996,6.4996,6.4996,6.4996,6.4996,6.4967,6.4909,6.4532,6.4125,6.3516,6.279,6.2267,6.1774,6.1309,6.1193,6.1193,6.1193,6.1193,6.1224,6.1404,6.1523,6.1612,6.1641,6.2747,6.324,6.3586,6.4425,6.4938,6.4996,6.4996,6.4996,6.4996,6.4996,6.4996,6.4996,6.4996,6.4996,6.4996,6.4996,6.4996,6.4996,6.4996,6.4996,6.4996,6.4996,6.4996,6.4996,6.5344,6.578,6.6389,6.6825,6.7492,6.814,6.8506,6.8652,6.9019,6.9278,6.9523,6.9693,6.9867,6.9943,6.9976,6.9969,7.0068,7.0217,7.0546,7.1213,7.2223,7.3239,7.3735,7.4231,7.4448,7.4448,7.4388,7.4328,7.4328,7.4448,7.4719,7.4838,7.5016,7.5252,7.5603,7.5951,7.6296,7.6751,7.7223,7.7719,7.8079,7.8242,7.8403,7.8564,7.8724,7.885,7.9041,6.9356,6.9356,6.9588,6.9703,6.9703,6.9499,6.9356,6.9123,6.8713,6.8358,6.7939,6.7396,6.6814,6.629,6.579,6.5538,6.5348,6.5094,6.4996,6.4932,6.4868,6.4804,6.4676,6.474,6.474,6.4804,6.4804,6.4746,6.4694,6.4468,6.4009,6.3312,6.2732,6.2093,6.1571,6.128,6.1193,6.1193,6.1193,6.1193,6.1253,6.1253,6.1253,6.1631,6.2296,6.3109,6.3283,6.4299,6.4967,6.4996,6.4996,6.4996,6.4996,6.4996,6.4996,6.4996,6.4996,6.4996,6.4996,6.4996,6.4996,6.4996,6.4996,6.4996,6.4996,6.4996,6.4996,6.4996,6.5519,6.6128,6.6825,6.7434,6.8015,6.8421,6.8741,6.8799,6.8828,6.9098,6.9337,6.9478,6.9648,6.9877,6.9927,7.0093,7.0207,7.037,7.074,7.1138,7.1967,7.2982,7.3291,7.36,7.36,7.3539,7.3539,7.3539,7.3539,7.3661,7.3875,7.4118,7.4207,7.4539,7.4897,7.531,7.5661,7.6066,7.6492,7.7223,7.7916,7.8134,7.8296,7.8403,7.8511,7.8724,7.885,6.815,6.8209,6.9006,6.9387,6.9298,6.8772,6.8535,6.8327,6.7819,6.7396,6.703,6.6444,6.6007,6.5601,6.5475,6.5285,6.506,6.4996,6.4804,6.4612,6.4483,6.4354,6.4289,6.4224,6.416,6.4224,6.4418,6.4547,6.4612,6.4688,6.4381,6.398,6.3279,6.2674,6.2006,6.1425,6.1222,6.1193,6.1193,6.1193,6.1193,6.1193,6.1193,6.1454,6.2325,6.3109,6.3167,6.4328,6.4996,6.4996,6.4996,6.4996,6.4996,6.4996,6.4996,6.4996,6.4996,6.4996,6.4996,6.4996,6.4996,6.4996,6.4996,6.4996,6.4996,6.4996,6.4996,6.5141,6.5751,6.6331,6.6912,6.7492,6.8276,6.8596,6.876,6.876,6.876,6.8828,6.903,6.9232,6.9404,6.9604,6.9803,6.9862,7.0171,7.0347,7.0609,7.1074,7.1441,7.2273,7.2457,7.2672,7.261,7.261,7.2547,7.261,7.2765,7.289,7.3077,7.3231,7.3416,7.3783,7.4178,7.4539,7.4897,7.5279,7.5803,7.6605,7.7334,7.7862,7.8188,7.8296,7.8403,7.8564,7.8724,6.7365,6.7396,6.7578,6.7819,6.8209,6.7939,6.7638,6.7213,6.6999,6.6538,6.6103,6.5819,6.5475,6.5285,6.5158,6.4996,6.474,6.4676,6.4483,6.4289,6.416,6.4095,6.403,6.39,6.403,6.3965,6.4095,6.416,6.4224,6.4547,6.4589,6.422,6.3825,6.3022,6.2267,6.1571,6.1251,6.1193,6.1193,6.1193,6.1193,6.1193,6.1193,6.128,6.2441,6.3022,6.3283,6.4357,6.4822,6.4996,6.4996,6.4996,6.4996,6.4996,6.4996,6.4996,6.4996,6.4996,6.4996,6.4996,6.4996,6.4996,6.4996,6.4996,6.4996,6.4996,6.5257,6.5577,6.6099,6.668,6.7434,6.8073,6.8625,6.877,6.876,6.876,6.876,6.876,6.8828,6.903,6.9068,6.9136,6.9404,6.9612,6.9992,7.0301,7.0607,7.0902,7.1274,7.1428,7.1676,7.183,7.18,7.1921,7.1921,7.1949,7.1977,7.2104,7.2263,7.2452,7.2672,7.3046,7.3416,7.3722,7.4239,7.4747,7.5396,7.6092,7.6775,7.7444,7.7916,7.8242,7.835,7.8457,7.8564,6.6691,6.6691,6.6444,6.6691,6.7182,6.7121,6.6814,6.6382,6.6257,6.5853,6.5348,6.5348,6.5222,6.506,6.4868,6.474,6.4547,6.4354,6.403,6.3834,6.361,6.3545,6.3413,6.3282,6.315,6.3413,6.361,6.361,6.361,6.4095,6.4325,6.4374,6.4185,6.3415,6.2529,6.16,6.1193,6.1193,6.1193,6.1193,6.1193,6.1193,6.1193,6.1367,6.2441,6.3022,6.3428,6.4241,6.4909,6.4996,6.4996,6.4996,6.4996,6.4996,6.4996,6.4996,6.4996,6.4996,6.4996,6.4996,6.4996,6.4996,6.4996,6.4996,6.4996,6.4996,6.5228,6.5838,6.6476,6.7173,6.7841,6.8363,6.8712,6.876,6.876,6.876,6.876,6.876,6.876,6.8828,6.8895,6.8963,6.9068,6.9337,6.9781,7.0153,7.0485,7.0667,7.0678,7.0866,7.0899,7.096,7.096,7.1174,7.1325,7.1413,7.1469,7.1564,7.1692,7.1819,7.2073,7.2452,7.2735,7.3077,7.3631,7.4268,7.4925,7.5545,7.6321,7.7111,7.7642,7.8188,7.835,7.8511,7.8511,6.6007,6.6007,6.6007,6.6195,6.6444,6.6195,6.6007,6.5945,6.5664,6.5348,6.5124,6.506,6.4996,6.4868,6.4612,6.4418,6.4224,6.403,6.361,6.3084,6.282,6.2487,6.2192,6.1991,6.2153,6.2058,6.2487,6.282,6.3018,6.361,6.403,6.4268,6.408,6.3786,6.3022,6.1803,6.1222,6.1193,6.1193,6.1193,6.1193,6.1193,6.1193,6.1483,6.2412,6.308,6.337,6.4328,6.4938,6.4996,6.4996,6.4996,6.4996,6.4996,6.4996,6.4996,6.4996,6.4996,6.4996,6.4996,6.4996,6.4996,6.4996,6.4996,6.4996,6.5054,6.5257,6.5867,6.6506,6.7144,6.7812,6.8421,6.8683,6.876,6.876,6.876,6.876,6.876,6.876,6.876,6.876,6.8828,6.8963,6.9136,6.9612,6.9979,7.0301,7.039,7.0231,7.0217,7.016,7.016,7.016,7.0401,7.0611,7.0843,7.0929,7.0988,7.1178,7.1371,7.1564,7.1819,7.2137,7.2452,7.3015,7.3722,7.4328,7.4956,7.5919,7.6887,7.7697,7.8188,7.835,7.8511,7.8511,6.5124,6.5314,6.5314,6.5378,6.5504,6.5601,6.5538,6.5348,6.5222,6.5124,6.4996,6.4804,6.4676,6.4547,6.4289,6.3965,6.3479,6.3348,6.2886,6.222,6.1951,6.1777,6.1411,6.1207,6.1207,6.1411,6.1816,6.2153,6.2582,6.3084,6.3413,6.3655,6.3629,6.3232,6.2786,6.1919,6.1193,6.1193,6.1193,6.1193,6.1193,6.1193,6.1222,6.1309,6.247,6.3138,6.3225,6.4386,6.4938,6.4996,6.4996,6.4996,6.4996,6.4996,6.4996,6.4996,6.4996,6.4996,6.4996,6.4996,6.4996,6.4996,6.4996,6.4996,6.4996,6.4996,6.5344,6.5867,6.6506,6.7144,6.7812,6.845,6.8702,6.876,6.876,6.876,6.876,6.876,6.876,6.876,6.876,6.876,6.8828,6.8759,6.9073,6.9082,6.9352,6.9524,6.9521,6.9419,6.94,6.9336,6.9396,6.9666,6.9901,7.0231,7.059,7.0774,7.0894,7.1048,7.1242,7.1435,7.1692,7.2104,7.261,7.317,7.4026,7.4956,7.5803,7.6662,7.7444,7.8079,7.835,7.8457,7.8511,6.4483,6.4676,6.4676,6.4676,6.474,6.4996,6.4996,6.4676,6.4676,6.4676,6.4612,6.4418,6.4289,6.4224,6.3834,6.3479,6.2886,6.242,6.2086,6.1411,6.107,6.0755,6.048,6.0384,6.0315,6.0618,6.0892,6.1207,6.1749,6.2287,6.2886,6.3224,6.3064,6.2985,6.2633,6.1855,6.1193,6.1193,6.1193,6.1193,6.1251,6.1367,6.1542,6.189,6.2645,6.3457,6.3719,6.427,6.4996,6.4996,6.4996,6.4996,6.4996,6.4996,6.4996,6.4996,6.4996,6.4996,6.4996,6.4996,6.4996,6.4996,6.4996,6.4996,6.4996,6.4996,6.5373,6.5896,6.6476,6.7144,6.7783,6.8421,6.8702,6.876,6.876,6.876,6.876,6.876,6.8799,6.8799,6.8712,6.8741,6.8683,6.8479,6.8477,6.8401,6.8253,6.849,6.863,6.8593,6.8396,6.8307,6.8522,6.8824,6.9243,6.9752,7.0141,7.053,7.0709,7.0889,7.0954,7.1178,7.1435,7.1722,7.22,7.2859,7.3966,7.4925,7.5803,7.6548,7.7334,7.7862,7.8296,7.8403,7.8457,6.3965,6.403,6.403,6.403,6.403,6.4289,6.4224,6.403,6.403,6.403,6.403,6.403,6.39,6.3769,6.3216,6.2753,6.2487,6.1681,6.107,6.0591,6.0108,5.9718,5.9368,5.9368,5.9272,5.9438,5.9718,6.0246,6.0728,6.1654,6.2487,6.3141,6.3193,6.294,6.2443,6.1849,6.1336,6.1251,6.1338,6.1367,6.1483,6.1861,6.2093,6.2499,6.3196,6.3777,6.4096,6.4561,6.4909,6.4996,6.4996,6.4996,6.4996,6.4996,6.4996,6.4996,6.4996,6.4996,6.4996,6.4996,6.4996,6.4996,6.4996,6.4996,6.4996,6.4996,6.5257,6.578,6.6389,6.7057,6.7725,6.8276,6.876,6.876,6.876,6.876,6.876,6.8799,6.8741,6.8654,6.8509,6.8421,6.8276,6.8102,6.7791,6.7458,6.7253,6.7002,6.7206,6.7441,6.7337,6.7132,6.7406,6.7924,6.8495,6.912,6.9812,7.0231,7.0709,7.0919,7.0889,7.0954,7.1242,7.15,7.185,7.264,7.3844,7.4866,7.5835,7.6548,7.7111,7.7752,7.8188,7.8403,7.8511,6.3741,6.403,6.403,6.3834,6.3545,6.3178,6.3376,6.3965,6.403,6.403,6.3965,6.3413,6.3216,6.315,6.2487,6.1856,6.1343,6.0728,6.0177,5.9552,5.8991,5.8497,5.8284,5.8141,5.8167,5.8355,5.8779,5.9342,6.0081,6.1043,6.2125,6.2906,6.2977,6.2765,6.2365,6.1866,6.153,6.1365,6.16,6.1745,6.2006,6.247,6.2703,6.3109,6.3632,6.4004,6.427,6.4677,6.4938,6.4996,6.4996,6.4996,6.4996,6.4996,6.4996,6.4996,6.4996,6.4996,6.4996,6.4996,6.4996,6.4996,6.4996,6.4996,6.4996,6.5025,6.5112,6.5577,6.6215,6.6883,6.7463,6.8015,6.8567,6.8731,6.877,6.8654,6.8625,6.8509,6.8421,6.8131,6.7986,6.7783,6.7667,6.7434,6.7028,6.6593,6.6222,6.6008,6.5967,6.6323,6.6516,6.6313,6.653,6.7165,6.7859,6.8515,6.9299,6.9931,7.038,7.0799,7.0889,7.0984,7.1113,7.1435,7.1947,7.2765,7.3783,7.4747,7.5719,7.6264,7.6831,7.7444,7.8025,7.8296,7.8457,6.3018,6.315,6.315,6.2886,6.2554,6.2113,6.2315,6.2687,6.3018,6.315,6.3084,6.2487,6.2287,6.2153,6.1478,6.0865,6.0315,5.9691,5.9061,5.8355,5.7713,5.7282,5.7065,5.6993,5.7065,5.7354,5.7713,5.8284,5.9315,6.0564,6.1721,6.2365,6.2502,6.243,6.2216,6.2096,6.1886,6.1729,6.1768,6.2209,6.2645,6.3109,6.337,6.3574,6.4096,6.4328,6.4415,6.4851,6.4938,6.4996,6.4996,6.4996,6.4996,6.4996,6.4996,6.4996,6.4996,6.4996,6.4996,6.4996,6.4996,6.4996,6.4996,6.4996,6.4996,6.4996,6.5025,6.5228,6.5954,6.6651,6.7202,6.7754,6.8276,6.8731,6.8625,6.845,6.8305,6.8131,6.787,6.7522,6.7289,6.7086,6.6883,6.6651,6.6418,6.6128,6.5809,6.5467,6.5484,6.5743,6.5903,6.5849,6.6129,6.6527,6.7186,6.7787,6.8508,6.9232,7.0021,7.0316,7.0709,7.0984,7.1113,7.1597,7.217,7.2984,7.3722,7.4719,7.5545,7.6034,7.6662,7.7334,7.7883,7.8242,7.8403,6.2113,6.1816,6.1654,6.1546,6.1166,6.1098,6.0892,6.0591,6.1179,6.1586,6.1654,6.1343,6.1138,6.1002,6.0384,5.9804,5.9272,5.8709,5.7999,5.721,5.6776,5.6292,5.5999,5.5926,5.6146,5.6292,5.6729,5.7569,5.8638,5.9804,6.0838,6.1721,6.2298,6.2268,6.1876,6.2274,6.2251,6.2117,6.2249,6.2699,6.3225,6.3719,6.4125,6.4212,6.4561,6.4938,6.4938,6.4996,6.4996,6.4996,6.4996,6.4996,6.4996,6.4996,6.4996,6.4996,6.4996,6.4996,6.4996,6.4996,6.4996,6.4996,6.4996,6.4996,6.4996,6.4996,6.4996,6.5112,6.578,6.6215,6.6738,6.726,6.7783,6.8015,6.7957,6.7841,6.7725,6.7463,6.7028,6.6709,6.6476,6.6302,6.6215,6.6012,6.5867,6.5664,6.5489,6.5112,6.5153,6.5285,6.5412,6.5475,6.5756,6.6004,6.6365,6.6964,6.769,6.8411,6.9257,6.9952,7.0246,7.0679,7.1178,7.1628,7.2073,7.2797,7.36,7.4448,7.5252,7.5893,7.6492,7.7245,7.7774,7.8134,7.835,6.1749,6.137,6.0797,6.0357,5.9969,5.9718,5.9438,5.9061,5.9202,5.9873,6.0701,6.0288,6.0012,5.9804,5.9202,5.8709,5.8141,5.7569,5.6946,5.634,5.5852,5.5485,5.5189,5.5189,5.5263,5.5558,5.6072,5.7091,5.8141,5.9105,5.9942,6.0906,6.1519,6.1614,6.1641,6.2182,6.228,6.2336,6.283,6.3203,6.3709,6.4294,6.4793,6.4764,6.4996,6.4996,6.4996,6.4996,6.4996,6.4996,6.4996,6.4996,6.4996,6.4996,6.4996,6.4996,6.4996,6.4996,6.4996,6.4996,6.4996,6.4996,6.4996,6.4996,6.4996,6.4996,6.5054,6.5228,6.546,6.5838,6.6273,6.6796,6.7202,6.726,6.7231,6.7173,6.7086,6.6651,6.6186,6.5954,6.5722,6.5606,6.5548,6.5431,6.5257,6.517,6.5141,6.4996,6.4996,6.5124,6.5187,6.5222,6.5412,6.566,6.584,6.6235,6.6955,6.7678,6.8521,6.912,6.9754,7.0366,7.0984,7.1371,7.1883,7.261,7.3355,7.4057,7.4838,7.5629,7.6378,7.7111,7.761,7.7938,7.8242,6.1002,6.048,5.9927,5.9342,5.885,5.8426,5.807,5.7739,5.7595,5.7927,5.8683,5.8753,5.8753,5.8541,5.7999,5.7451,5.6946,5.6485,5.5901,5.5312,5.509,5.4719,5.457,5.4593,5.4645,5.4868,5.5754,5.6776,5.7569,5.847,5.9315,6.0012,6.0537,6.1069,6.1309,6.1695,6.2212,6.2543,6.3122,6.3558,6.3971,6.4509,6.4996,6.4996,6.4996,6.4996,6.4996,6.4996,6.4996,6.4996,6.4996,6.4996,6.4996,6.4996,6.4996,6.4996,6.4996,6.4996,6.4996,6.4996,6.4996,6.4996,6.4996,6.4996,6.4996,6.4996,6.4996,6.5112,6.5141,6.5489,6.5925,6.6389,6.6767,6.6912,6.6622,6.6389,6.6128,6.5722,6.5519,6.546,6.5286,6.5257,6.5228,6.5228,6.5083,6.5083,6.4996,6.4996,6.4996,6.4996,6.4996,6.506,6.5222,6.5285,6.5373,6.5738,6.6285,6.7035,6.7722,6.8571,6.9327,7.0081,7.0759,7.1242,7.1756,7.2452,7.32,7.3875,7.4778,7.5629,7.6264,7.6887,7.7389,7.7829,7.8134,6.0039,5.9368,5.8947,5.8381,5.7713,5.7282,5.6921,5.6583,5.6219,5.6122,5.6491,5.7291,5.7359,5.7065,5.6703,5.6171,5.5805,5.5782,5.5188,5.4962,5.4737,5.4733,5.4482,5.421,5.4512,5.4816,5.546,5.5877,5.634,5.7354,5.8258,5.8868,5.9627,6.0347,6.0674,6.1335,6.2036,6.2239,6.2718,6.3394,6.4001,6.4547,6.474,6.4868,6.4903,6.4996,6.4996,6.4996,6.4996,6.4996,6.4996,6.4996,6.4996,6.4996,6.4996,6.4996,6.4996,6.4996,6.4996,6.4996,6.4996,6.4996,6.4996,6.4996,6.4996,6.4996,6.4996,6.4996,6.5025,6.517,6.5606,6.5867,6.6215,6.6389,6.5983,6.5693,6.5344,6.5054,6.5054,6.5054,6.5025,6.4996,6.4996,6.4996,6.4996,6.4996,6.4996,6.4996,6.4996,6.4996,6.4996,6.4996,6.5124,6.5124,6.506,6.5304,6.5826,6.6182,6.6902,6.79,6.8808,6.9625,7.036,7.1018,7.1597,7.2296,7.3046,7.3753,7.4687,7.5603,7.6034,7.6548,7.7389,7.7774,7.8134,5.8947,5.8141,5.7523,5.6946,5.6485,5.612,5.5705,5.5411,5.5263,5.5485,5.5881,5.6005,5.6079,5.5926,5.5485,5.5386,5.568,5.5455,5.5646,5.5686,5.5186,5.5053,5.4952,5.4664,5.4965,5.5054,5.5014,5.5115,5.5607,5.634,5.6993,5.7687,5.8497,5.9192,5.9931,6.0605,6.1193,6.1623,6.2292,6.2952,6.3216,6.3741,6.4289,6.4483,6.4612,6.474,6.4932,6.4996,6.4996,6.4996,6.4996,6.4996,6.4996,6.4996,6.4996,6.4996,6.4996,6.4996,6.4996,6.4996,6.4996,6.4996,6.4996,6.4996,6.4996,6.4996,6.4996,6.4996,6.4996,6.4996,6.5286,6.5286,6.5489,6.5489,6.5257,6.5228,6.5083,6.5025,6.5025,6.4996,6.4996,6.4996,6.4996,6.4996,6.4996,6.4996,6.4996,6.4996,6.4996,6.4996,6.4996,6.4996,6.4996,6.4996,6.4996,6.4996,6.5362,6.56,6.6078,6.7196,6.8224,6.9139,6.9814,7.0316,7.1288,7.2109,7.2891,7.3476,7.4568,7.5337,7.5629,7.6206,7.7111,7.7719,7.7992]}]]